[[{"header":{"parameterUnit":"m.s-1","parameterCategory":1,"la1":30.6,"la2":28.766,"lo1":-90.7593,"lo2":-88.6598,"dy":0.0162,"dx":0.0183,"nx":116,"ny":114,"refTime":"2023-05-08T12:00:00:Z","depth":0,"parameterNumber":2,"parameterNumberName":"U-component_of_WINDS"},"data":[0.0,0.0,0.0,0.0,0.0,0.0,0.0,0.0,0.0,0.0,0.0,0.0,0.0,0.0,0.0,0.0,0.0,0.0,0.0,0.0,0.0,0.0,0.0,0.0,0.0,0.0,0.0,0.0,0.0,0.0,0.0,0.0,0.0,0.0,0.0,0.0,0.0,0.0,0.0,0.0,0.0,0.0,0.0,0.0,0.0,0.0,0.0,0.0,0.0,0.0,0.0,0.0,0.0,0.0,0.0,0.0,0.0,0.0,0.0,0.0,0.0,0.0,0.0,0.0,0.0,0.0,0.0,0.0,0.0,0.0,0.0,0.0,0.0,0.0,0.0,0.0,0.0,0.0,0.0,0.0,0.0,0.0,0.0,0.0,0.0,0.0,0.0,0.0,0.0,0.0,0.0,0.0,0.0,0.0,0.0,0.0,0.0,0.0,0.0,0.0,0.0,0.0,0.0,0.0,0.0,0.0,0.0,0.0,0.0,0.0,0.0,0.0,0.0,0.0,0.0,0.0,0.0,0.0,0.0,0.0,0.0,0.0,0.0,0.0,0.0,0.0,0.0,0.0,0.0,0.0,0.0,0.0,0.0,0.0,0.0,0.0,0.0,0.0,0.0,0.0,0.0,0.0,0.0,0.0,0.0,0.0,0.0,0.0,0.0,0.0,0.0,0.0,0.0,0.0,0.0,0.0,0.0,0.0,0.0,0.0,0.0,0.0,0.0,0.0,0.0,0.0,0.0,0.0,0.0,0.0,0.0,0.0,0.0,0.0,0.0,0.0,0.0,0.0,0.0,0.0,0.0,0.0,0.0,0.0,0.0,0.0,0.0,0.0,0.0,0.0,0.0,0.0,0.0,0.0,0.0,0.0,0.0,0.0,0.0,0.0,0.0,0.0,0.0,0.0,0.0,0.0,0.0,0.0,0.0,0.0,0.0,0.0,0.0,0.0,0.0,0.0,0.0,0.0,0.0,0.0,0.0,0.0,0.0,0.0,0.0,0.0,0.0,0.0,0.0,0.0,0.0,0.0,0.0,0.0,0.0,0.0,0.0,0.0,0.0,0.0,0.0,0.0,0.0,0.0,0.0,0.0,0.0,0.0,0.0,0.0,0.0,0.0,0.0,0.0,0.0,0.0,0.0,0.0,0.0,0.0,0.0,0.0,0.0,0.0,0.0,0.0,0.0,0.0,0.0,0.0,0.0,0.0,0.0,0.0,0.0,0.0,0.0,0.0,0.0,0.0,0.0,0.0,0.0,0.0,0.0,0.0,0.0,0.0,0.0,0.0,0.0,0.0,0.0,0.0,0.0,0.0,0.0,0.0,0.0,0.0,0.0,0.0,0.0,0.0,0.0,0.0,0.0,0.0,0.0,0.0,0.0,0.0,0.0,0.0,0.0,0.0,0.0,0.0,0.0,0.0,0.0,0.0,0.0,0.0,0.0,0.0,0.0,0.0,0.0,0.0,0.0,0.0,0.0,0.0,0.0,0.0,0.0,0.0,0.0,0.0,0.0,0.0,0.0,0.0,0.0,0.0,0.0,0.0,0.0,0.0,0.0,0.0,0.0,0.0,0.0,0.0,0.0,0.0,0.0,0.0,0.0,0.0,0.0,0.0,0.0,0.0,0.0,0.0,0.0,0.0,0.0,0.0,0.0,0.0,0.0,0.0,0.0,0.0,0.0,0.0,0.0,0.0,0.0,0.0,0.0,0.0,0.0,0.0,0.0,0.0,0.0,0.0,0.0,0.0,0.0,0.0,0.0,0.0,0.0,0.0,0.0,0.0,0.0,0.0,0.0,0.0,0.0,0.0,0.0,0.0,0.0,0.0,0.0,0.0,0.0,0.0,0.0,0.0,0.0,0.0,0.0,0.0,0.0,0.0,0.0,0.0,0.0,0.0,0.0,0.0,0.0,0.0,0.0,0.0,0.0,0.0,0.0,0.0,0.0,0.0,0.0,0.0,0.0,0.0,0.0,0.0,0.0,0.0,0.0,0.0,0.0,0.0,0.0,0.0,0.0,0.0,0.0,0.0,0.0,0.0,0.0,0.0,0.0,0.0,0.0,0.0,0.0,0.0,0.0,0.0,0.0,0.0,0.0,0.0,0.0,0.0,0.0,0.0,0.0,0.0,0.0,0.0,0.0,0.0,0.0,0.0,0.0,0.0,0.0,0.0,0.0,0.0,0.0,0.0,0.0,0.0,0.0,0.0,0.0,0.0,0.0,0.0,0.0,0.0,0.0,0.0,0.0,0.0,0.0,0.0,0.0,0.0,0.0,0.0,0.0,0.0,0.0,0.0,0.0,0.0,0.0,0.0,0.0,0.0,0.0,0.0,0.0,0.0,0.0,0.0,0.0,0.0,0.0,0.0,0.0,0.0,0.0,0.0,0.0,0.0,0.0,0.0,0.0,0.0,0.0,0.0,0.0,0.0,0.0,0.0,0.0,0.0,0.0,0.0,0.0,0.0,0.0,0.0,0.0,0.0,0.0,0.0,0.0,0.0,0.0,0.0,0.0,0.0,0.0,0.0,0.0,0.0,0.0,0.0,0.0,0.0,0.0,0.0,0.0,0.0,0.0,0.0,0.0,0.0,0.0,0.0,0.0,0.0,0.0,0.0,0.0,0.0,0.0,0.0,0.0,0.0,0.0,0.0,0.0,0.0,0.0,0.0,0.0,0.0,0.0,0.0,0.0,0.0,0.0,0.0,0.0,0.0,0.0,0.0,0.0,0.0,0.0,0.0,0.0,0.0,0.0,0.0,0.0,0.0,0.0,0.0,0.0,0.0,0.0,0.0,0.0,0.0,0.0,0.0,0.0,0.0,0.0,0.0,0.0,0.0,0.0,0.0,0.0,0.0,0.0,0.0,0.0,0.0,0.0,0.0,0.0,0.0,0.0,0.0,0.0,0.0,0.0,0.0,0.0,0.0,0.0,0.0,0.0,0.0,0.0,0.0,0.0,0.0,0.0,0.0,0.0,0.0,0.0,0.0,0.0,0.0,0.0,0.0,0.0,0.0,0.0,0.0,0.0,0.0,0.0,0.0,0.0,0.0,0.0,0.0,0.0,0.0,0.0,0.0,0.0,0.0,0.0,0.0,0.0,0.0,0.0,0.0,0.0,0.0,0.0,0.0,0.0,0.0,0.0,0.0,0.0,0.0,0.0,0.0,0.0,0.0,0.0,0.0,0.0,0.0,0.0,0.0,0.0,0.0,0.0,0.0,0.0,0.0,0.0,0.0,0.0,0.0,0.0,0.0,0.0,0.0,0.0,0.0,0.0,0.0,0.0,0.0,0.0,0.0,0.0,0.0,0.0,0.0,0.0,0.0,0.0,0.0,0.0,0.0,0.0,0.0,0.0,0.0,0.0,0.0,0.0,0.0,0.0,0.0,0.0,0.0,0.0,0.0,0.0,0.0,0.0,0.0,0.0,0.0,0.0,0.0,0.0,0.0,0.0,0.0,0.0,0.0,0.0,0.0,0.0,0.0,0.0,0.0,0.0,0.0,0.0,0.0,0.0,0.0,0.0,0.0,0.0,0.0,0.0,0.0,0.0,0.0,0.0,0.0,0.0,0.0,0.0,0.0,0.0,0.0,0.0,0.0,0.0,0.0,0.0,0.0,0.0,0.0,0.0,0.0,0.0,0.0,0.0,0.0,0.0,0.0,0.0,0.0,0.0,0.0,0.0,0.0,0.0,0.0,0.0,0.0,0.0,0.0,0.0,0.0,0.0,0.0,0.0,0.0,0.0,0.0,0.0,0.0,0.0,0.0,0.0,0.0,0.0,0.0,0.0,0.0,0.0,0.0,0.0,0.0,0.0,0.0,0.0,0.0,0.0,0.0,0.0,0.0,0.0,0.0,0.0,0.0,0.0,0.0,0.0,0.0,0.0,0.0,0.0,0.0,0.0,0.0,0.0,0.0,0.0,0.0,0.0,0.0,0.0,0.0,0.0,0.0,0.0,0.0,0.0,0.0,0.0,0.0,0.0,0.0,0.0,0.0,0.0,0.0,0.0,0.0,0.0,0.0,0.0,0.0,0.0,0.0,0.0,0.0,0.0,0.0,0.0,0.0,0.0,0.0,0.0,0.0,0.0,0.0,0.0,0.0,0.0,0.0,0.0,0.0,0.0,0.0,0.0,0.0,0.0,0.0,0.0,0.0,0.0,0.0,0.0,0.0,0.0,0.0,0.0,0.0,0.0,0.0,0.0,0.0,0.0,0.0,0.0,0.0,0.0,0.0,0.0,0.0,0.0,0.0,0.0,0.0,0.0,0.0,0.0,0.0,0.0,0.0,0.0,0.0,0.0,0.0,0.0,0.0,0.0,0.0,0.0,0.0,0.0,0.0,0.0,0.0,0.0,0.0,0.0,0.0,0.0,0.0,0.0,0.0,0.0,0.0,0.0,0.0,0.0,0.0,0.0,0.0,0.0,0.0,0.0,0.0,0.0,0.0,0.0,0.0,0.0,0.0,0.0,0.0,0.0,0.0,0.0,0.0,0.0,0.0,0.0,0.0,0.0,0.0,0.0,0.0,0.0,0.0,0.0,0.0,0.0,0.0,0.0,0.0,0.0,0.0,0.0,0.0,0.0,0.0,0.0,0.0,0.0,0.0,0.0,0.0,0.0,0.0,0.0,0.0,0.0,0.0,0.0,0.0,0.0,0.0,0.0,0.0,0.0,0.0,0.0,0.0,0.0,0.0,0.0,0.0,0.0,0.0,0.0,0.0,0.0,0.0,0.0,0.0,0.0,0.0,0.0,0.0,0.0,0.0,0.0,0.0,0.0,0.0,0.0,0.0,0.0,0.0,0.0,0.0,0.0,0.0,0.0,0.0,0.0,0.0,0.0,0.0,0.0,0.0,0.0,0.0,0.0,0.0,0.0,0.0,0.0,0.0,0.0,0.0,0.0,0.0,0.0,0.0,0.0,0.0,0.0,0.0,0.0,0.0,0.0,0.0,0.0,0.0,0.0,0.0,0.0,0.0,0.0,0.0,0.0,0.0,0.0,0.0,0.0,0.0,0.0,0.0,0.0,0.0,0.0,0.0,0.0,0.0,0.0,0.0,0.0,0.0,0.0,0.0,0.0,0.0,0.0,0.0,0.0,0.0,0.0,0.0,0.0,0.0,0.0,0.0,0.0,0.0,0.0,0.0,0.0,0.0,0.0,0.0,0.0,0.0,0.0,0.0,0.0,0.0,0.0,0.0,0.0,0.0,0.0,0.0,0.0,0.0,0.0,0.0,0.0,0.0,0.0,0.0,0.0,0.0,0.0,0.0,0.0,0.0,0.0,0.0,0.0,0.0,0.0,0.0,0.0,0.0,0.0,0.0,0.0,0.0,0.0,0.0,0.0,0.0,0.0,0.0,0.0,0.0,0.0,0.0,0.0,0.0,0.0,0.0,0.0,0.0,0.0,0.0,0.0,0.0,0.0,0.0,0.0,0.0,0.0,0.0,0.0,0.0,0.0,0.0,0.0,0.0,0.0,0.0,0.0,0.0,0.0,0.0,0.0,0.0,0.0,0.0,0.0,0.0,0.0,0.0,0.0,0.0,0.0,0.0,0.0,0.0,0.0,0.0,0.0,0.0,0.0,0.0,0.0,0.0,0.0,0.0,0.0,0.0,0.0,0.0,0.0,0.0,0.0,0.0,0.0,0.0,0.0,0.0,0.0,0.0,0.0,0.0,0.0,0.0,0.0,0.0,0.0,0.0,0.0,0.0,0.0,0.0,0.0,0.0,0.0,0.0,0.0,0.0,0.0,0.0,0.0,0.0,0.0,0.0,0.0,0.0,0.0,0.0,0.0,0.0,0.0,0.0,0.0,0.0,0.0,0.0,0.0,0.0,0.0,0.0,0.0,0.0,0.0,0.0,0.0,0.0,0.0,0.0,0.0,0.0,0.0,0.0,0.0,0.0,0.0,0.0,0.0,0.0,0.0,0.0,0.0,0.0,0.0,0.0,0.0,0.0,0.0,0.0,0.0,0.0,0.0,0.0,0.0,0.0,0.0,0.0,0.0,0.0,0.0,0.0,0.0,0.0,0.0,0.0,0.0,0.0,0.0,0.0,0.0,0.0,0.0,0.0,0.0,0.0,0.0,0.0,0.0,0.0,0.0,0.0,-3.3909,-3.4747,0.0,0.0,0.0,0.0,0.0,0.0,0.0,0.0,0.0,0.0,0.0,0.0,0.0,0.0,0.0,0.0,0.0,0.0,0.0,0.0,0.0,0.0,0.0,0.0,0.0,0.0,0.0,0.0,0.0,0.0,0.0,0.0,0.0,0.0,0.0,0.0,0.0,-3.1423,-3.1423,-3.1686,-3.2263,-3.335,-3.366,-3.325,0.0,0.0,0.0,0.0,0.0,0.0,0.0,0.0,0.0,0.0,0.0,0.0,0.0,0.0,0.0,0.0,0.0,0.0,0.0,0.0,0.0,0.0,0.0,0.0,0.0,0.0,0.0,0.0,0.0,0.0,0.0,0.0,0.0,0.0,0.0,0.0,0.0,0.0,0.0,0.0,0.0,0.0,0.0,0.0,0.0,0.0,0.0,0.0,0.0,0.0,0.0,0.0,0.0,0.0,0.0,0.0,0.0,0.0,0.0,0.0,0.0,0.0,0.0,0.0,0.0,0.0,0.0,0.0,0.0,0.0,-3.2815,-3.3268,0.0,0.0,0.0,0.0,0.0,0.0,0.0,0.0,0.0,0.0,0.0,0.0,0.0,0.0,0.0,0.0,0.0,0.0,0.0,0.0,0.0,0.0,0.0,-2.7666,-2.7666,-2.7666,-2.7666,-2.7774,0.0,0.0,0.0,0.0,0.0,0.0,-2.9023,-2.9394,-2.9996,-3.084,-3.0785,-3.1278,-3.2254,-3.2254,-3.1902,-3.1257,-3.1671,0.0,0.0,0.0,0.0,0.0,0.0,0.0,0.0,0.0,0.0,0.0,0.0,0.0,0.0,0.0,0.0,0.0,0.0,0.0,0.0,0.0,0.0,0.0,0.0,0.0,0.0,0.0,0.0,0.0,0.0,0.0,0.0,0.0,0.0,0.0,0.0,0.0,0.0,0.0,0.0,0.0,0.0,0.0,0.0,0.0,0.0,0.0,0.0,0.0,0.0,0.0,0.0,0.0,0.0,0.0,0.0,0.0,0.0,0.0,0.0,0.0,0.0,0.0,-3.1994,-3.1994,-3.1994,-3.1994,-3.1439,-3.0529,-3.1534,-3.1554,-3.0878,-3.1879,0.0,0.0,0.0,0.0,0.0,0.0,0.0,0.0,0.0,0.0,0.0,0.0,0.0,0.0,0.0,0.0,0.0,0.0,0.0,-2.5167,-2.5167,-2.5167,-2.5167,-2.5167,-2.5167,-2.5686,-2.6864,0.0,0.0,0.0,0.0,0.0,-2.9492,-2.9607,-2.9514,-2.9402,-2.9066,-2.9178,-2.9607,-2.9607,-2.9715,-2.9928,-3.1847,-3.2809,-3.2915,0.0,0.0,0.0,0.0,0.0,0.0,0.0,0.0,0.0,0.0,0.0,0.0,0.0,0.0,0.0,0.0,0.0,0.0,0.0,0.0,0.0,0.0,0.0,0.0,0.0,0.0,0.0,0.0,0.0,0.0,0.0,0.0,0.0,0.0,0.0,0.0,0.0,0.0,0.0,0.0,0.0,-3.3134,-3.3134,0.0,0.0,0.0,0.0,0.0,0.0,0.0,0.0,0.0,0.0,0.0,0.0,0.0,-3.2109,-3.1053,-3.1053,-3.0529,-2.949,-2.949,-2.949,-2.949,-2.949,-2.939,-2.9272,-2.939,0.0,-3.082,-3.0995,0.0,0.0,0.0,0.0,0.0,0.0,0.0,0.0,0.0,0.0,0.0,0.0,0.0,0.0,0.0,0.0,0.0,0.0,0.0,0.0,0.0,-2.4736,-2.4736,-2.4736,-2.4736,-2.497,-2.5551,-2.5666,0.0,0.0,0.0,-2.7196,-2.7196,-2.7427,-2.7845,-2.8483,-2.9025,-2.9373,-2.9546,-2.9546,-2.9604,-2.9834,-3.0767,-3.1476,-3.193,-3.193,0.0,0.0,0.0,0.0,0.0,0.0,0.0,0.0,0.0,0.0,0.0,0.0,0.0,0.0,0.0,0.0,0.0,0.0,0.0,0.0,0.0,0.0,0.0,0.0,0.0,0.0,0.0,0.0,0.0,0.0,0.0,0.0,0.0,0.0,0.0,0.0,0.0,0.0,0.0,-3.0801,-3.0801,-3.0801,-3.0801,-3.0742,0.0,0.0,0.0,0.0,0.0,0.0,0.0,0.0,0.0,-3.0568,-3.0568,-3.0295,-2.9785,-2.9785,-2.9509,-2.8975,-2.8975,-2.8975,-2.8975,-2.8975,-2.8975,-2.8975,-2.8975,-2.9272,-2.9785,-2.9785,-3.0119,-3.0568,0.0,0.0,0.0,0.0,-2.945,-2.8975,0.0,0.0,0.0,0.0,0.0,0.0,0.0,0.0,0.0,0.0,0.0,0.0,-2.3769,-2.3769,-2.3769,-2.3769,-2.3769,-2.3948,-2.4305,-2.4364,-2.4542,-2.4897,-2.5261,-2.5452,-2.5452,-2.5715,-2.6365,-2.7366,-2.8224,-2.8879,-2.9313,-2.9313,-2.949,-2.9922,-2.9922,-3.0258,-3.0853,-3.0853,-3.1574,-3.2748,0.0,0.0,0.0,0.0,0.0,0.0,0.0,0.0,0.0,0.0,0.0,0.0,0.0,0.0,0.0,0.0,0.0,0.0,0.0,0.0,0.0,0.0,0.0,0.0,0.0,0.0,0.0,0.0,0.0,0.0,0.0,0.0,0.0,0.0,0.0,0.0,0.0,-2.8975,-2.8975,-2.8975,-2.8975,-2.8975,0.0,0.0,0.0,0.0,0.0,0.0,-2.8975,-2.8975,-2.8975,-2.8975,-2.8975,-2.8975,-2.8975,-2.8975,-2.8975,-2.8975,-2.8975,-2.8975,-2.8975,-2.8975,-2.8975,-2.8975,-2.8975,-2.8975,-2.8975,-2.8975,-2.8975,-2.8975,-2.8975,-2.8975,-2.8975,-2.8975,-2.8975,-2.8975,0.0,0.0,0.0,0.0,0.0,0.0,0.0,0.0,0.0,0.0,0.0,-2.1308,-2.1308,-2.1308,-2.1308,-2.1308,-2.1308,-2.1797,-2.3095,-2.3452,-2.4194,-2.5404,-2.5769,-2.5951,-2.5951,-2.568,-2.5574,-2.5635,-2.5346,-2.6078,-2.7589,-2.7589,-2.8462,-2.9922,-2.9922,-2.9903,-2.9982,-2.9982,-3.082,-3.2219,-3.224,0.0,0.0,0.0,0.0,0.0,0.0,0.0,0.0,0.0,0.0,0.0,0.0,0.0,0.0,0.0,0.0,0.0,0.0,0.0,0.0,0.0,0.0,0.0,0.0,0.0,0.0,0.0,0.0,0.0,0.0,0.0,0.0,0.0,0.0,0.0,0.0,0.0,0.0,-2.8975,-2.8975,0.0,0.0,0.0,0.0,-2.8975,-2.8975,-2.8975,-2.8975,-2.8975,-2.8975,-2.8975,-2.8975,-2.8975,-2.8975,-2.8975,-2.8975,-2.8975,-2.8975,-2.8975,-2.8975,-2.8975,-2.8975,-2.8975,-2.8975,-2.8975,-2.8975,-2.8975,-2.8975,-2.8975,-2.8975,-2.8975,-2.8975,-2.8975,-2.8975,-2.8975,0.0,0.0,0.0,0.0,0.0,0.0,0.0,0.0,-2.0628,-2.0922,-2.0271,-2.0068,-2.0982,-2.0272,-2.0132,-2.1046,-2.1109,-2.1299,-2.179,-2.1902,-2.2215,-2.264,-2.2764,-2.2875,-2.2875,-2.3559,-2.3931,-2.3931,-2.4687,-2.5301,-2.5896,-2.5896,-2.62,-2.6762,-2.7684,-2.8044,-2.8104,-2.9372,-3.0197,-3.0723,-3.0723,-3.1169,0.0,0.0,0.0,0.0,0.0,0.0,0.0,0.0,0.0,0.0,0.0,0.0,0.0,0.0,0.0,0.0,0.0,0.0,0.0,0.0,0.0,0.0,0.0,0.0,0.0,0.0,0.0,0.0,0.0,0.0,0.0,0.0,0.0,0.0,0.0,0.0,0.0,-2.8975,-2.8975,0.0,-2.8975,-2.8975,-2.8975,-2.8975,-2.8182,-2.7684,-2.7684,-2.69,-2.6399,-2.6399,-2.6399,-2.6399,-2.6399,-2.7263,-2.7263,-2.6459,-2.8182,-2.8558,-2.7762,-2.8618,-2.8975,-2.8975,-2.8975,-2.8975,-2.8975,-2.8975,-2.8975,-2.8975,-2.8975,-2.8975,-2.8975,-2.8975,-2.8975,-2.8975,0.0,0.0,0.0,0.0,0.0,0.0,0.0,0.0,-1.9951,-1.9712,-1.8908,-1.8652,-1.9623,-1.8908,-1.8716,-1.9623,-1.975,-1.975,-1.975,-2.0144,-2.0399,-2.0399,-2.0856,-2.1109,-2.1109,-2.1964,-2.2466,-2.2466,-2.3263,-2.3946,-2.4379,-2.4379,-2.4564,-2.5056,-2.5912,-2.6338,-2.6459,-2.8164,-2.9253,-2.9745,-2.9745,-2.9981,-3.0274,0.0,0.0,0.0,0.0,0.0,0.0,0.0,0.0,0.0,0.0,0.0,0.0,0.0,0.0,0.0,0.0,0.0,0.0,0.0,0.0,0.0,0.0,0.0,0.0,0.0,0.0,0.0,0.0,0.0,0.0,0.0,0.0,0.0,0.0,-2.8975,-2.8975,-2.8975,-2.8618,-2.8301,-2.8301,-2.7942,-2.7624,-2.7624,-2.684,-2.6338,-2.6338,-2.5485,-2.4994,-2.4994,-2.4994,-2.4994,-2.4994,-2.5851,-2.5851,-2.4994,-2.6779,-2.7203,-2.6338,-2.7263,-2.7624,-2.7624,-2.7624,-2.7624,-2.7624,-2.7624,-2.7624,-2.7762,-2.8677,-2.8737,-2.8301,-2.8301,-2.8062,-2.7624,0.0,0.0,0.0,0.0,0.0,0.0,-1.8337,-1.8419,-1.8179,-1.7141,-1.698,-1.698,-1.698,-1.698,-1.698,-1.698,-1.698,-1.698,-1.698,-1.8203,-1.8908,-1.8908,-2.0272,-2.1046,-2.1046,-2.1109,-2.1109,-2.1109,-2.1109,-2.179,-2.3014,-2.3014,-2.3698,-2.4871,-2.4933,-2.4933,-2.5056,-2.6338,-2.7864,-2.9372,-2.945,-2.9627,-2.9922,0.0,0.0,0.0,0.0,0.0,0.0,0.0,0.0,0.0,0.0,0.0,0.0,0.0,0.0,0.0,0.0,0.0,0.0,0.0,0.0,0.0,0.0,0.0,0.0,0.0,0.0,0.0,0.0,0.0,0.0,0.0,0.0,0.0,-2.8498,-2.8856,-2.8856,-2.8856,-2.7744,-2.6961,-2.6961,-2.5729,-2.4994,-2.4994,-2.4933,-2.4933,-2.4933,-2.4871,-2.4871,-2.4871,-2.4871,-2.4871,-2.4871,-2.4933,-2.4933,-2.4871,-2.4933,-2.4994,-2.4933,-2.4994,-2.4994,-2.4994,-2.4994,-2.4994,-2.4994,-2.4994,-2.4994,-2.524,-2.7882,-2.8062,-2.6961,-2.6961,-2.6095,-2.4994,0.0,0.0,0.0,0.0,0.0,0.0,-1.8239,-1.7759,-1.7354,-1.7033,-1.6138,-1.5879,-1.6915,-1.6073,-1.5879,-1.6915,-1.698,-1.698,-1.698,-1.7367,-1.756,-1.756,-1.8844,-1.9559,-1.9559,-2.0589,-2.1109,-2.1109,-2.1109,-2.1299,-2.1664,-2.1664,-2.1853,-2.2215,-2.3201,-2.3636,-2.3698,-2.4994,-2.5851,-2.6399,-2.8361,-2.9331,-2.9627,0.0,0.0,0.0,0.0,0.0,0.0,0.0,0.0,0.0,0.0,0.0,0.0,0.0,0.0,0.0,0.0,0.0,0.0,0.0,0.0,0.0,0.0,0.0,0.0,0.0,0.0,0.0,0.0,0.0,0.0,0.0,-2.524,-2.524,-2.5973,-2.6095,-2.6095,-2.6095,-2.579,-2.5546,-2.5546,-2.524,-2.4994,-2.4994,-2.4131,-2.3636,-2.3636,-2.2716,-2.2153,-2.2153,-2.2153,-2.2153,-2.2153,-2.3139,-2.3139,-2.2215,-2.407,-2.4502,-2.3636,-2.4564,-2.4994,-2.4994,-2.4994,-2.4994,-2.4994,-2.4994,-2.4994,-2.5056,-2.579,-2.5851,-2.5546,-2.5546,-2.5162,-2.4655,0.0,0.0,0.0,0.0,0.0,0.0,-1.7391,-1.6615,-1.5879,-1.5294,-1.452,-1.4324,-1.5173,-1.452,-1.4324,-1.5163,-1.5229,-1.5229,-1.5229,-1.5814,-1.6398,-1.698,-1.7753,-1.8139,-1.8139,-1.9495,-2.0195,-2.0195,-2.0779,-2.1109,-2.1109,-2.1109,-2.1109,-2.1109,-2.1902,-2.2278,-2.2341,-2.3636,-2.4193,-2.4379,-2.6459,-2.7804,-2.854,-2.9194,-2.9627,-2.9745,-2.9863,-2.9922,-2.9922,-2.9922,0.0,0.0,0.0,0.0,0.0,0.0,0.0,0.0,0.0,0.0,0.0,0.0,0.0,0.0,0.0,0.0,0.0,0.0,0.0,0.0,0.0,0.0,0.0,0.0,-2.376,-2.3387,-2.3387,-2.4317,-2.4994,-2.4994,-2.4502,-2.4193,-2.4193,-2.3698,-2.3387,-2.3387,-2.2716,-2.2278,-2.2278,-2.166,-2.1296,-2.1296,-2.1416,-2.1483,-2.1483,-2.2226,-2.2226,-2.1483,-2.3041,-2.3359,-2.2659,-2.3423,-2.3739,-2.3739,-2.3739,-2.3739,-2.3739,-2.3739,-2.3739,-2.3836,0.0,0.0,0.0,0.0,-2.3139,-2.2875,0.0,0.0,0.0,0.0,0.0,0.0,-1.6269,-1.5278,-1.4193,-1.2964,-1.2774,-1.2774,-1.2774,-1.2774,-1.2774,-1.2774,-1.2774,-1.2774,-1.2774,-1.394,-1.5229,-1.6462,-1.6656,-1.6786,-1.6786,-1.8075,-1.8844,-1.8972,-2.0259,-2.0919,-2.1109,-2.1109,-2.1109,-2.1109,-2.1109,-2.1109,-2.1172,-2.2404,-2.2889,-2.3014,-2.4255,-2.5607,-2.6944,-2.8403,-2.9076,-2.9253,-2.9509,-2.9686,-2.9804,-2.9804,0.0,0.0,0.0,0.0,0.0,0.0,0.0,0.0,0.0,0.0,0.0,0.0,0.0,0.0,0.0,0.0,0.0,0.0,0.0,0.0,0.0,0.0,0.0,0.0,-2.1915,-2.1109,-2.1109,-2.3091,-2.4564,-2.4564,-2.3574,-2.2889,-2.2889,-2.179,-2.1122,-2.1162,-2.1162,-2.1176,-2.1203,-2.1456,0.0,0.0,0.0,-2.1991,-2.1991,-2.1991,-2.1991,-2.1991,-2.1991,-2.1991,-2.1991,-2.1991,-2.1991,-2.1991,-2.1991,-2.1991,-2.1991,-2.1925,-2.1925,-2.2055,-2.3873,-2.3914,-2.2702,-2.1475,-2.0856,-2.0539,0.0,0.0,0.0,0.0,0.0,0.0,-1.6145,-1.4455,-1.3095,-1.284,-1.2774,-1.2774,-1.2774,-1.2774,-1.2774,-1.2774,-1.2774,-1.2774,-1.2774,-1.303,-1.3358,-1.3613,-1.4716,-1.5294,-1.5294,-1.6656,-1.7946,-1.8972,-1.9291,-2.0005,-2.1109,-2.1109,-2.1109,-2.1109,-2.1109,-2.1109,-2.1109,-2.1362,-2.1475,-2.1601,-2.2952,-2.4255,-2.5423,-2.5729,-2.652,-2.7504,-2.7564,-2.8241,-2.9153,-2.9153,-2.9153,-2.9153,-2.9153,-2.9153,0.0,0.0,0.0,0.0,0.0,0.0,0.0,0.0,0.0,0.0,0.0,0.0,0.0,0.0,0.0,0.0,0.0,0.0,0.0,-2.1664,-2.1299,-2.1109,-2.1109,-2.1538,-2.1853,-2.1853,-2.1664,-2.1475,-2.1475,-2.1235,-2.1203,-2.1443,-2.1534,-2.1563,-2.1804,-2.1871,-2.1897,-2.1897,-2.1951,-2.1991,-2.1991,-2.1991,-2.1991,-2.1991,-2.1991,0.0,-2.1991,-2.1991,-2.1991,-2.1991,-2.1991,-2.1991,-2.1991,-2.1648,-2.1397,-2.1159,-2.1978,-2.1947,-2.1411,-2.0919,-2.0488,-2.017,0.0,0.0,0.0,0.0,0.0,0.0,-1.6083,-1.4199,-1.2774,-1.2774,-1.2774,-1.2774,-1.2774,-1.2774,-1.2774,-1.2774,-1.2774,-1.2774,-1.2774,-1.2774,-1.2774,-1.2774,-1.3481,-1.3875,-1.3875,-1.5238,-1.6268,-1.6969,-1.8332,-1.9355,-2.0068,-2.0779,-2.1109,-2.1109,-2.1109,-2.1109,-2.1109,-2.1109,-2.1109,-2.1172,-2.1853,-2.2466,-2.3201,-2.4502,-2.5423,-2.5973,-2.5973,-2.6399,-2.7021,-2.7021,-2.7021,-2.7021,-2.7021,-2.7021,-2.7021,0.0,0.0,0.0,0.0,0.0,0.0,0.0,0.0,0.0,0.0,0.0,0.0,0.0,0.0,-2.2841,-2.2215,0.0,-2.1915,-2.1235,-2.1109,-2.1109,-2.1109,-2.1109,-2.1109,-2.1109,-2.1243,-2.1336,-2.1336,-2.1456,-2.1617,-2.1764,-2.1764,-2.183,-2.1977,-2.2124,-2.2205,-2.2205,-2.2352,-2.2418,-2.2418,-2.2418,-2.2418,-2.2418,-2.2418,-2.2418,-2.2418,-2.2418,-2.2418,-2.2418,-2.2418,-2.2418,-2.2418,-2.2015,-2.1533,-2.1124,-2.1382,-2.128,-2.0968,-2.0838,-2.0526,-2.0176,0.0,0.0,0.0,0.0,0.0,0.0,0.0,-1.4801,-1.3447,-1.3218,-1.3227,-1.3095,-1.2832,-1.2774,-1.2774,-1.2774,-1.2774,-1.2774,-1.2774,-1.2774,-1.2774,-1.2774,-1.2774,-1.2774,-1.2774,-1.394,-1.4651,-1.4912,-1.7356,-1.8716,-1.9036,-2.0462,-2.1109,-2.1109,-2.1109,-2.1109,-2.1109,-2.1109,-2.1109,-2.1109,-2.1109,-2.1109,-2.1362,-2.345,-2.4379,-2.4625,-2.4625,-2.481,-2.4994,-2.4994,-2.4994,-2.4994,-2.4994,-2.4994,-2.4994,-2.4994,-2.4994,0.0,0.0,0.0,0.0,0.0,0.0,0.0,0.0,-2.345,-2.2702,-2.2702,-2.1853,-2.1109,-2.1109,-2.1109,-2.1109,-2.1109,-2.1109,-2.1122,-2.1189,-2.1189,-2.1216,-2.1269,-2.1443,-2.1641,-2.1695,-2.1844,-2.2004,-2.2071,-2.2071,-2.2098,-2.2151,-2.2378,-2.2498,-2.2498,-2.2739,-2.2928,-2.2928,-2.2928,-2.2928,-2.2928,-2.2928,-2.2928,-2.2928,-2.2928,-2.2928,-2.2928,-2.2791,-2.2722,-2.2654,-2.2242,-2.1757,-2.1157,-2.1157,-2.1019,-2.0885,-2.0838,-2.0601,-2.0377,0.0,0.0,0.0,0.0,0.0,0.0,0.0,0.0,-1.5721,-1.4819,-1.4651,-1.4193,-1.2964,-1.2774,-1.2774,-1.2774,-1.2774,-1.2774,-1.2774,-1.2774,-1.2774,-1.2774,-1.2774,-1.2774,-1.2774,-1.2964,-1.3678,-1.4912,-1.6462,-1.7818,-1.9036,-2.0462,-2.1109,-2.1109,-2.1109,-2.1109,-2.1109,-2.1109,-2.1109,-2.1109,-2.1109,-2.1109,-2.1109,-2.1411,-2.2278,-2.3325,-2.3325,-2.407,-2.4994,-2.4994,-2.4994,-2.4994,-2.4994,-2.4994,-2.4994,-2.4994,-2.4994,-2.4994,-2.4994,-2.4193,-2.3325,-2.3325,-2.2404,-2.1538,0.0,-2.1425,-2.1299,-2.1299,-2.1235,-2.1109,-2.1109,-2.1109,-2.1109,-2.1109,-2.1109,-2.1203,-2.1534,-2.1574,-2.1603,-2.1857,-2.1683,-2.1722,-2.1911,-2.1964,-2.2098,-2.2352,-2.2378,-2.2485,-2.2752,-2.2792,-2.2819,-2.2819,-2.2914,-2.2928,-2.2928,-2.2928,-2.2928,-2.2928,-2.2928,-2.2928,-2.2928,-2.2928,-2.2928,-2.2859,-2.2516,-2.2173,-2.1897,-2.1484,-2.1126,-2.0756,-2.0756,-2.0743,-2.0727,-2.052,-2.0414,-2.0335,0.0,0.0,0.0,0.0,0.0,0.0,0.0,0.0,-1.634,-1.587,-1.5281,-1.4651,-1.4071,-1.3293,-1.2774,-1.2774,-1.2774,-1.2774,-1.2774,-1.2774,-1.2774,-1.2774,-1.3547,-1.3613,-1.2832,-1.3613,-1.4324,-1.4912,-1.6333,-1.7689,-1.9036,-2.0462,-2.1109,-2.1109,-2.1109,-2.1109,-2.1109,-2.1109,-2.1109,-2.1109,-2.1109,-2.1109,-2.1109,-2.1109,-2.1475,-2.1964,-2.1964,-2.2278,0.0,-2.2716,-2.2716,-2.2716,-2.2716,-2.2716,-2.2716,-2.2716,-2.2716,-2.2716,-2.2716,-2.2341,-2.1964,-2.1964,-2.1538,-2.1109,-2.1109,-2.1109,-2.1109,-2.1109,-2.1109,-2.1109,-2.1109,-2.1109,-2.1162,-2.1336,-2.1363,-2.147,-2.1764,-2.1804,-2.1911,-2.2205,-2.2124,-2.2111,-2.2231,-2.2392,-2.2552,-2.2672,-2.2672,-2.2726,-2.2928,-2.2928,-2.2928,-2.2928,-2.2928,-2.2928,-2.2928,-2.2928,-2.2928,-2.2928,-2.2928,-2.2928,-2.2928,-2.2928,-2.2928,-2.2859,-2.2448,-2.2104,-2.176,-2.1346,-2.1012,-2.0665,-2.0665,-2.0665,-2.0711,-2.063,-2.0544,-2.052,0.0,0.0,0.0,0.0,0.0,0.0,0.0,0.0,0.0,0.0,-1.6392,-1.5808,-1.5489,-1.4586,-1.394,-1.394,-1.394,-1.394,-1.394,-1.394,-1.394,-1.394,-1.4912,-1.4977,-1.4006,-1.4977,-1.5489,-1.5489,-1.685,-1.8075,-1.9036,-2.0462,-2.1109,-2.1109,-2.1109,-2.1109,-2.1109,-2.1109,-2.1109,-2.1109,-2.1109,-2.1109,-2.1109,-2.1109,-2.1109,-2.1109,-2.1109,-2.1109,-2.1109,-2.1109,-2.1109,-2.1109,-2.1109,-2.1109,-2.1109,-2.1109,-2.1109,-2.1109,-2.1109,-2.1109,-2.1109,-2.1109,-2.1109,-2.1109,-2.1109,-2.1109,-2.1109,-2.1109,-2.1109,-2.1136,-2.1216,-2.1229,-2.1323,-2.1695,-2.1735,-2.1777,-2.2071,-2.2111,-2.2218,-2.2512,-2.2539,-2.2539,-2.2539,-2.2739,-2.2928,-2.2928,-2.2928,-2.2928,-2.2928,-2.2928,-2.2928,-2.2928,-2.2928,-2.2928,-2.2928,-2.2928,-2.2928,-2.2928,-2.2928,-2.2928,-2.2928,-2.2928,-2.2928,-2.2859,-2.2448,-2.2104,-2.176,-2.1346,-2.1012,-2.0665,-2.0665,-2.0665,-2.0665,-2.0665,-2.0665,-2.0641,0.0,0.0,0.0,0.0,0.0,0.0,0.0,0.0,0.0,0.0,0.0,0.0,0.0,-1.6915,-1.685,-1.685,-1.685,-1.685,-1.685,-1.685,-1.685,-1.685,-1.6915,-1.6915,-1.685,-1.6915,-1.6915,-1.6915,-1.8267,-1.8972,-1.9036,-2.0462,-2.1109,-2.1109,-2.1109,-2.1109,-2.1109,-2.1109,-2.1109,-2.1109,-2.1109,-2.1109,-2.1109,-2.1109,-2.1109,-2.1109,-2.1109,-2.1109,-2.1109,-2.1109,-2.1109,-2.1109,-2.1109,-2.1109,-2.1109,-2.1109,-2.1109,-2.1109,-2.1109,-2.1109,-2.1109,-2.1109,-2.1109,-2.1109,-2.1109,-2.1109,-2.1109,-2.1109,-2.1109,-2.1203,-2.1547,-2.1601,-2.1695,-2.1924,-2.1977,-2.2071,-2.2365,-2.2405,-2.2512,-2.2887,-2.2846,-2.2846,-2.2846,-2.2859,-2.2928,-2.2928,-2.2928,-2.2928,-2.2928,-2.2928,-2.2928,-2.2928,-2.2928,-2.2928,-2.2928,-2.2928,-2.2928,-2.2928,-2.2928,-2.2928,-2.2928,-2.2928,-2.2928,-2.2859,-2.2448,-2.2104,-2.176,-2.1346,-2.1012,-2.0665,-2.0665,-2.0665,-2.0665,-2.0665,-2.0665,-2.0665,0.0,0.0,0.0,0.0,0.0,0.0,0.0,0.0,0.0,0.0,0.0,0.0,0.0,0.0,0.0,0.0,-1.698,-1.698,-1.698,-1.698,-1.698,-1.698,-1.7882,-1.7882,-1.7044,-1.7882,-1.8332,-1.8332,-1.878,-1.9483,-2.0399,-2.0856,-2.1109,-2.1109,-2.1109,-2.1109,-2.1109,-2.1109,-2.1109,-2.1109,-2.1109,-2.1109,-2.1109,-2.1109,-2.1109,-2.1109,0.0,-2.1109,-2.1109,-2.1109,-2.1109,-2.1109,-2.1109,-2.1109,-2.1109,-2.1109,-2.1109,-2.1109,-2.1109,-2.1109,-2.1109,-2.1109,-2.1109,-2.1109,-2.1109,-2.1256,-2.1403,-2.1403,-2.155,-2.1724,-2.1817,-2.1844,-2.1937,-2.2231,-2.2271,-2.2378,-2.2672,-2.2712,-2.2752,-2.2914,-2.2928,-2.2928,-2.2928,-2.2928,-2.2928,-2.2928,-2.2928,-2.2928,-2.2928,-2.2928,-2.2928,-2.2928,-2.2928,-2.2928,-2.2928,-2.2928,-2.2928,-2.2928,-2.2928,-2.2928,-2.2928,-2.2928,-2.2928,-2.2859,-2.2242,-2.1897,-2.1772,-2.1151,-2.0804,-2.0665,-2.0665,-2.0665,-2.0665,-2.0665,-2.0665,-2.0665,0.0,0.0,0.0,0.0,0.0,0.0,0.0,0.0,0.0,0.0,0.0,0.0,0.0,0.0,0.0,0.0,0.0,-1.846,-1.846,-1.846,-1.846,-1.846,-1.9291,-1.9367,-1.846,-1.9304,-1.975,-1.975,-1.975,-2.0195,-2.1109,-2.1109,-2.1109,-2.1109,-2.1109,-2.1109,-2.1109,-2.1109,-2.1109,-2.1109,-2.1109,-2.1109,-2.1109,-2.1109,-2.1109,0.0,-2.1109,-2.1109,-2.1109,-2.1109,-2.1109,-2.1109,-2.1109,-2.1109,-2.1109,-2.1109,-2.1109,-2.1109,-2.1109,-2.1109,-2.1136,-2.1243,-2.1269,-2.1296,-2.1403,-2.1577,-2.171,-2.171,-2.1857,-2.2017,-2.2124,-2.2138,-2.2231,-2.2525,-2.2579,-2.2645,-2.2832,-2.2928,-2.2928,-2.2928,-2.2928,-2.2928,-2.2928,-2.2928,-2.2928,-2.2928,-2.2928,-2.2928,-2.2928,-2.2928,-2.2928,-2.2928,-2.2928,-2.2928,-2.2928,-2.2928,-2.2928,-2.2928,-2.2928,-2.2928,-2.2928,-2.2928,-2.2791,-2.2654,-2.2173,-2.1829,-2.1553,-2.1081,-2.0804,-2.0665,-2.0665,-2.0665,-2.0665,-2.0665,-2.0665,-2.0665,0.0,0.0,0.0,0.0,0.0,0.0,0.0,0.0,0.0,0.0,0.0,0.0,0.0,0.0,0.0,0.0,0.0,0.0,-2.1109,-2.1109,-2.1109,-2.1109,-2.1109,-2.1109,-2.1109,-2.1109,-2.1109,-2.1109,-2.1109,-2.1109,-2.1109,-2.1109,-2.1109,-2.1109,-2.1109,-2.1109,-2.1109,-2.1109,-2.1109,-2.1109,-2.1109,-2.1109,-2.1109,-2.1109,-2.1109,-2.1109,-2.1109,-2.1109,-2.1109,-2.1109,-2.1109,-2.1109,-2.1109,-2.1109,-2.1109,-2.1109,-2.1109,-2.1109,-2.1122,-2.1136,-2.1203,-2.1561,-2.1641,-2.1708,-2.1924,-2.1991,-2.2004,-2.2004,-2.2017,-2.2111,-2.2392,-2.2445,-2.2539,-2.2819,-2.2928,-2.2928,-2.2928,-2.2928,-2.2928,-2.2928,-2.2928,-2.2928,-2.2928,-2.2928,-2.2928,-2.2928,-2.2928,-2.2928,-2.2928,-2.2928,-2.2928,-2.2928,-2.2928,-2.2928,-2.2928,-2.2928,-2.2928,-2.2928,-2.2928,-2.2928,-2.2928,-2.2859,-2.2654,-2.231,-2.2242,-2.1829,-2.1207,-2.1207,-2.1012,-2.0665,-2.0665,-2.0665,-2.0665,-2.0665,-2.0665,-2.0665,0.0,0.0,0.0,0.0,0.0,0.0,0.0,0.0,0.0,0.0,0.0,0.0,0.0,0.0,0.0,0.0,0.0,0.0,-2.1109,-2.1109,-2.1109,-2.1109,-2.1109,-2.1109,-2.1109,-2.1109,-2.1109,-2.1109,-2.1109,-2.1109,-2.1109,-2.1109,-2.1109,-2.1109,-2.1109,-2.1109,-2.1109,-2.1109,-2.1109,-2.1109,-2.1109,-2.1109,-2.1109,-2.1109,-2.1109,-2.1109,-2.1109,-2.1109,-2.1109,-2.1109,-2.1109,-2.1109,-2.1109,-2.1109,-2.1109,-2.1109,-2.1109,-2.1162,-2.1376,-2.1443,-2.151,-2.1804,-2.1871,-2.1897,-2.1964,-2.2151,-2.2311,-2.2311,-2.2485,-2.2659,-2.2739,-2.2752,-2.2779,-2.2914,-2.2928,-2.2928,-2.2928,-2.2928,-2.2928,-2.2928,-2.2928,-2.2928,-2.2928,-2.2928,-2.2928,-2.2928,-2.2928,-2.2928,-2.2928,-2.2928,-2.2928,-2.2928,-2.2928,-2.2928,-2.2928,-2.2928,-2.2928,-2.2928,-2.2928,-2.2928,-2.2859,-2.2585,-2.2379,-2.2242,-2.1691,-2.1346,-2.1207,-2.0943,-2.0804,-2.0665,-2.0665,-2.0665,-2.0665,-2.0665,-2.0665,-2.0665,0.0,0.0,0.0,0.0,0.0,0.0,0.0,0.0,0.0,0.0,0.0,0.0,0.0,0.0,0.0,0.0,0.0,0.0,0.0,-2.1109,-2.1109,-2.1109,-2.1109,-2.1109,-2.1109,-2.1109,-2.1109,-2.1109,-2.1109,-2.1109,-2.1109,-2.1109,-2.1109,-2.1109,-2.1109,-2.1109,-2.1109,-2.1109,-2.1109,0.0,0.0,-2.1109,-2.1109,-2.1109,-2.1109,-2.1109,-2.1109,-2.1109,-2.1109,-2.1109,-2.1109,-2.1109,-2.1109,-2.1109,-2.1109,-2.1109,-2.1203,-2.1336,-2.1574,-2.1708,-2.1817,-2.2111,-2.2178,-2.2205,-2.2338,-2.2498,-2.2619,-2.2619,-2.2752,-2.2928,-2.2928,-2.2928,-2.2928,-2.2928,-2.2928,-2.2928,-2.2928,-2.2928,-2.2928,-2.2928,-2.2928,-2.2928,-2.2928,-2.2928,-2.2928,-2.2928,-2.2928,-2.2928,-2.2928,-2.2928,-2.2928,-2.2928,-2.2928,-2.2928,-2.2928,-2.2928,-2.2928,-2.2928,-2.2928,-2.2928,-2.2859,-2.2448,-2.2242,-2.2035,-2.1484,-2.1138,-2.0943,-2.0804,-2.0665,-2.0665,-2.0665,-2.0665,-2.0665,-2.0665,-2.0665,-2.0665,0.0,0.0,0.0,0.0,0.0,0.0,0.0,0.0,0.0,0.0,-2.0191,0.0,0.0,0.0,0.0,0.0,0.0,0.0,0.0,0.0,-2.1109,-2.1109,-2.1109,-2.1109,-2.1109,-2.1109,-2.1109,-2.1109,-2.1109,-2.1109,-2.1109,-2.1109,-2.1109,-2.1109,-2.1109,-2.1109,-2.1109,-2.1109,-2.1109,-2.1109,-2.1109,-2.1109,-2.1109,0.0,-2.1109,-2.1109,-2.1109,-2.1109,-2.1109,-2.1109,-2.1109,-2.1109,-2.1109,-2.1109,-2.1122,-2.1162,-2.1349,-2.1641,-2.1708,-2.1857,-2.2111,-2.2405,-2.2472,-2.2539,-2.2806,-2.2928,-2.2928,-2.2928,-2.2928,-2.2928,-2.2928,-2.2928,-2.2928,-2.2928,-2.2928,-2.2928,-2.2928,-2.2928,-2.2928,-2.2928,-2.2928,-2.2928,-2.2928,-2.2928,-2.2928,-2.2928,-2.2928,-2.2928,-2.2928,-2.2928,-2.2928,-2.2928,-2.2928,-2.2928,-2.2928,-2.2928,-2.2928,-2.2928,-2.2928,-2.2859,-2.2791,-2.2379,-2.2035,-2.1691,-2.1276,-2.0943,-2.0665,-2.0665,-2.0665,-2.0665,-2.0665,-2.0665,-2.0665,-2.0665,-2.0665,-2.0665,0.0,0.0,0.0,0.0,0.0,0.0,0.0,0.0,0.0,0.0,-2.1876,-2.053,0.0,0.0,0.0,0.0,0.0,0.0,0.0,0.0,0.0,-2.1109,-2.1109,-2.1109,-2.1109,-2.1109,-2.1109,-2.1109,-2.1109,-2.1109,-2.1109,-2.1109,-2.1109,-2.1109,-2.1109,-2.1109,-2.1109,-2.1109,-2.1109,-2.1109,-2.1109,-2.1109,-2.1109,-2.1109,0.0,0.0,-2.1109,-2.1109,-2.1109,-2.1109,-2.1109,-2.1109,-2.1109,-2.1109,-2.1162,-2.1403,-2.1574,-2.1722,-2.2138,-2.2311,-2.2418,-2.2712,-2.2779,-2.2806,-2.2914,-2.2928,-2.2928,-2.2928,-2.2928,-2.2928,-2.2928,-2.2928,-2.2928,-2.2928,-2.2928,-2.2928,-2.2928,-2.2928,-2.2928,-2.2928,-2.2928,-2.2928,-2.2928,-2.2928,-2.2928,-2.2928,-2.2928,-2.2928,-2.2928,-2.2928,-2.2928,-2.2928,-2.2928,-2.2928,-2.2928,-2.2928,-2.2928,-2.2928,-2.2928,-2.2722,-2.2379,-2.2035,-2.1691,-2.1276,-2.0943,-2.0735,-2.0665,-2.0665,-2.0665,-2.0665,-2.0665,-2.0665,-2.0665,-2.0665,-2.0665,-2.0665,0.0,0.0,0.0,0.0,0.0,0.0,0.0,-2.632,-2.5926,-2.5165,-2.4098,-2.3322,-2.3007,-2.3199,-2.3373,0.0,0.0,0.0,0.0,0.0,0.0,-2.1109,-2.1109,-2.1109,-2.1109,-2.1109,-2.1109,-2.1109,0.0,-2.1109,-2.1109,-2.179,-2.179,-2.1109,-2.1853,-2.1727,-2.1109,-2.1109,-2.1109,-2.1109,-2.1109,-2.1109,-2.1109,0.0,0.0,0.0,-2.1109,-2.1109,-2.1109,-2.1109,-2.1109,-2.1109,-2.1109,-2.1109,-2.1162,-2.1534,-2.1722,-2.1871,-2.2298,-2.2539,-2.2686,-2.2887,-2.2928,-2.2928,-2.2928,-2.2928,-2.2928,-2.2928,-2.2928,-2.2928,-2.2928,-2.2928,-2.2928,-2.2928,-2.2928,-2.2928,-2.2928,-2.2928,-2.2928,-2.2928,-2.2928,-2.2928,-2.2928,-2.2928,-2.2928,-2.2928,-2.2928,-2.2928,-2.2928,-2.2928,-2.2928,-2.2928,-2.2928,-2.2928,-2.2928,-2.2928,-2.2928,-2.2928,-2.2928,-2.2722,-2.231,-2.1966,-2.1553,-2.1207,-2.0873,-2.0665,-2.0665,-2.0665,-2.0665,-2.0665,-2.0665,-2.0665,-2.0665,-2.0665,-2.0665,-2.0665,0.0,0.0,0.0,0.0,0.0,0.0,0.0,-2.8052,-2.7895,-2.6729,-2.683,-2.6957,-2.6685,-2.6,-2.5574,0.0,0.0,0.0,0.0,0.0,0.0,0.0,0.0,0.0,-2.1915,0.0,0.0,-2.1915,-2.1915,0.0,0.0,0.0,0.0,0.0,-2.3076,-2.2952,-2.2027,-2.1978,-2.179,0.0,0.0,-2.1348,0.0,0.0,0.0,0.0,0.0,-2.1109,-2.1109,-2.1109,-2.1109,-2.1109,-2.1109,-2.1109,-2.1176,-2.1537,-2.1804,-2.2058,-2.2418,-2.2686,-2.2928,-2.2928,-2.2928,-2.2928,-2.2928,-2.2928,-2.2928,-2.2928,-2.2928,-2.2928,-2.2928,-2.2928,-2.2928,-2.2928,-2.2928,-2.2928,-2.2928,-2.2928,-2.2928,-2.2928,-2.2928,0.0,-2.2928,-2.2928,-2.2928,-2.2928,-2.2928,-2.2928,-2.2928,-2.2928,-2.2928,-2.2928,-2.2928,-2.2928,-2.2928,-2.2928,-2.2928,-2.2928,-2.2791,-2.2585,-2.2173,-2.1829,-2.1496,-2.1081,-2.0804,-2.0665,-2.0665,-2.0665,-2.0665,-2.0665,-2.0665,-2.0665,-2.0665,-2.0665,-2.0665,-2.0665,0.0,0.0,0.0,0.0,0.0,0.0,0.0,-2.9694,-2.9966,-2.9775,-3.0181,-3.047,-3.0392,-2.7734,-2.5802,0.0,0.0,0.0,0.0,0.0,0.0,0.0,0.0,0.0,0.0,0.0,0.0,-2.4625,-2.4625,0.0,0.0,0.0,0.0,0.0,0.0,-2.4917,-2.5085,-2.4733,0.0,0.0,0.0,0.0,0.0,0.0,0.0,0.0,0.0,-2.1109,-2.1109,-2.1109,-2.1109,-2.1109,-2.1109,-2.1109,-2.1216,-2.1777,-2.1964,-2.2111,-2.2672,-2.2914,-2.2928,-2.2928,-2.2928,-2.2928,-2.2928,-2.2928,-2.2928,-2.2928,-2.2928,-2.2928,-2.2928,-2.2928,-2.2928,-2.2928,-2.2928,-2.2928,-2.2928,-2.2928,-2.2928,-2.2928,0.0,0.0,-2.2928,-2.2928,-2.2928,-2.2928,-2.2928,-2.2928,-2.2928,-2.2928,-2.2928,-2.2928,-2.2928,-2.2928,-2.2928,-2.2928,-2.2928,-2.2928,-2.2516,-2.2173,-2.1829,-2.1415,-2.1081,-2.0735,-2.0735,-2.0665,-2.0665,-2.0665,-2.0665,-2.0665,-2.0665,-2.0665,-2.0665,-2.0665,-2.0665,-2.0665,0.0,0.0,0.0,0.0,0.0,0.0,-2.9941,-3.0332,-3.0605,-3.0605,-3.0781,-3.0898,-3.0898,-2.9726,-2.8742,-2.8206,0.0,0.0,0.0,0.0,0.0,0.0,0.0,0.0,0.0,0.0,-2.5224,-2.4994,-2.4994,0.0,0.0,0.0,0.0,0.0,0.0,-2.6017,-2.5162,-2.5056,0.0,0.0,0.0,0.0,0.0,0.0,0.0,0.0,0.0,0.0,-2.1109,-2.1109,-2.1109,-2.1109,-2.1109,-2.1229,-2.1456,-2.1871,-2.2111,-2.2338,-2.2752,-2.2928,-2.2928,-2.2928,-2.2928,-2.2928,-2.2928,-2.2928,-2.2928,-2.2928,-2.2928,-2.2928,-2.2928,-2.2928,-2.2928,-2.2928,-2.2928,-2.2928,-2.2928,-2.2928,-2.2928,-2.2928,-2.2928,-2.2928,-2.2928,-2.2928,-2.2928,-2.2928,-2.2928,-2.2928,-2.2928,-2.2928,-2.2928,-2.2928,-2.2928,-2.2928,-2.2928,-2.2928,-2.2928,-2.2928,-2.2722,-2.2379,-2.176,-2.1634,-2.122,-2.0665,-2.0665,-2.0665,-2.0665,-2.0665,-2.0665,-2.0665,-2.0665,-2.0665,-2.0665,-2.0665,-2.0665,-2.0665,0.0,0.0,0.0,0.0,0.0,-3.041,-3.041,-3.0684,-3.0898,-3.0898,-3.0898,-3.0898,-3.0898,-3.0898,-3.0645,-3.0098,-2.9863,0.0,0.0,0.0,0.0,0.0,0.0,0.0,0.0,0.0,-2.6503,-2.6156,-2.6156,-2.6156,0.0,0.0,-2.7486,-2.6399,0.0,0.0,0.0,0.0,0.0,0.0,0.0,0.0,0.0,0.0,0.0,0.0,0.0,0.0,0.0,0.0,0.0,-2.1109,-2.1109,-2.1309,-2.1681,-2.1897,-2.2191,-2.2485,-2.2779,-2.2928,-2.2928,-2.2928,-2.2928,-2.2928,-2.2928,-2.2928,-2.2928,-2.2928,-2.2928,-2.2928,-2.2928,-2.2928,-2.2928,-2.2928,-2.2928,-2.2928,-2.2928,-2.2928,-2.2928,-2.2928,-2.2928,-2.2928,-2.2928,-2.2928,-2.2928,-2.2928,-2.2928,-2.2928,-2.2928,-2.2928,-2.2928,-2.2928,-2.2928,-2.2928,-2.2928,-2.2928,-2.2928,-2.2928,-2.2654,-2.231,-2.176,-2.1553,-2.122,-2.0665,-2.0665,-2.0665,-2.0665,-2.0665,-2.0665,-2.0665,-2.0665,-2.0665,-2.0665,-2.0665,-2.0665,-2.0665,0.0,0.0,0.0,0.0,0.0,0.0,-3.0879,-3.0879,-3.0898,-3.0898,-3.0898,-3.0898,-3.0898,-3.0898,-3.0762,-3.045,-3.0392,0.0,0.0,0.0,0.0,0.0,0.0,0.0,0.0,0.0,-2.9272,-2.8975,-2.8975,-2.8975,-2.8975,-2.9331,-2.945,-2.945,0.0,0.0,0.0,0.0,0.0,0.0,0.0,0.0,0.0,0.0,0.0,0.0,0.0,0.0,0.0,0.0,0.0,0.0,0.0,-2.1309,-2.1681,-2.1897,-2.2191,-2.2485,-2.2779,-2.2928,-2.2928,-2.2928,-2.2928,-2.2928,-2.2928,-2.2928,-2.2928,-2.2928,-2.2928,-2.2928,-2.2928,-2.2928,-2.2928,-2.2928,-2.2928,-2.2928,-2.2928,-2.2928,-2.2928,-2.2928,-2.2928,-2.2928,-2.2928,-2.2928,-2.2928,-2.2928,-2.2928,-2.2928,-2.2928,-2.2928,-2.2928,-2.2928,-2.2928,-2.2928,-2.2928,-2.2928,-2.2928,-2.2859,-2.2173,-2.1841,-2.1772,-2.1012,-2.0735,-2.0665,-2.0665,-2.0665,-2.0665,-2.0665,-2.0665,-2.0665,-2.0665,-2.0665,-2.0665,-2.0665,-2.0665,-2.0665,0.0,0.0,0.0,0.0,0.0,0.0,0.0,-3.0898,-3.0898,-3.0898,-3.0898,-3.0898,-3.0898,-3.0898,-3.084,-3.0762,-3.0509,0.0,0.0,0.0,0.0,0.0,0.0,0.0,0.0,-3.0098,-2.9981,-2.9627,-2.9627,-2.9627,-2.9627,-2.9745,-2.9686,-2.9509,-2.9509,-2.9509,0.0,0.0,0.0,0.0,0.0,0.0,-2.1109,0.0,0.0,0.0,0.0,0.0,0.0,0.0,0.0,0.0,0.0,0.0,0.0,-2.1735,-2.2031,-2.2485,-2.2779,-2.2928,-2.2928,-2.2928,-2.2928,-2.2928,-2.2928,-2.2928,-2.2928,-2.2928,-2.2928,-2.2928,-2.2928,-2.2928,-2.2928,-2.2928,-2.2928,-2.2928,-2.2928,-2.2928,-2.2928,-2.2928,-2.2928,-2.2928,-2.2928,-2.2928,-2.2928,-2.2928,-2.2928,-2.2928,-2.2928,-2.2928,-2.2928,-2.2928,-2.2928,-2.2928,-2.2928,-2.2928,-2.2928,-2.2928,-2.2654,-2.231,-2.176,-2.1565,-2.1151,-2.0665,-2.0665,-2.0665,-2.0665,-2.0665,-2.0665,-2.0665,-2.0665,-2.0665,-2.0665,-2.0665,-2.0665,-2.0665,0.0,0.0,0.0,0.0,0.0,0.0,0.0,-3.117,-3.0898,-3.0898,-3.0898,-3.0898,-3.0898,-3.0898,-3.0898,-3.0898,-3.0704,0.0,0.0,0.0,0.0,0.0,0.0,0.0,-3.0392,-3.0392,-3.0216,-2.9922,-2.9922,-2.9922,-2.9922,-3.0039,-2.9922,-2.9686,-2.9804,-2.9745,0.0,0.0,0.0,0.0,0.0,0.0,-2.1109,0.0,0.0,0.0,0.0,0.0,0.0,0.0,0.0,0.0,0.0,0.0,0.0,0.0,-2.1804,-2.2178,-2.2592,-2.2779,-2.2928,-2.2928,-2.2928,-2.2928,-2.2928,-2.2928,-2.2928,-2.2928,-2.2928,-2.2928,-2.2928,-2.2928,-2.2928,-2.2928,-2.2928,-2.2928,-2.2928,-2.2928,-2.2928,-2.2928,-2.2928,-2.2928,-2.2928,-2.2928,-2.2928,-2.2928,-2.2928,-2.2928,-2.2928,-2.2928,-2.2928,-2.2928,-2.2928,-2.2928,-2.2928,-2.2928,-2.2928,-2.2928,-2.2722,-2.2379,-2.176,-2.1622,-2.1289,-2.0665,-2.0665,-2.0665,0.0,-2.0665,-2.0665,-2.0665,-2.0665,-2.0665,-2.0665,-2.0665,-2.0665,-2.0665,0.0,0.0,0.0,0.0,0.0,0.0,0.0,-3.1845,-3.1112,-3.1054,-3.0995,-3.1015,-3.0898,-3.0898,-3.0898,-3.0898,0.0,0.0,0.0,0.0,0.0,0.0,0.0,0.0,-3.045,-3.045,-3.0274,-2.9981,-2.9981,-2.9981,-2.9981,-3.0274,-3.0216,-2.9922,-3.0216,-3.0039,0.0,0.0,0.0,0.0,-2.3636,-2.2341,0.0,0.0,0.0,0.0,0.0,0.0,0.0,0.0,0.0,0.0,0.0,0.0,0.0,0.0,0.0,0.0,0.0,-2.2592,-2.2832,-2.2859,-2.2928,-2.2928,-2.2928,-2.2928,0.0,-2.2928,-2.2928,-2.2928,-2.2928,-2.2928,-2.2928,-2.2928,-2.2928,-2.2928,-2.2928,-2.2928,-2.2928,-2.2928,-2.2928,-2.2928,-2.2928,-2.2928,-2.2928,-2.2928,-2.2928,-2.2928,-2.2928,-2.2928,-2.2928,-2.2928,-2.2928,-2.2928,-2.2928,-2.2928,-2.2928,-2.2928,-2.2516,-2.2104,-2.176,-2.1346,-2.1012,-2.0665,-2.0665,-2.0665,-2.0665,-2.0665,-2.0665,-2.0665,-2.0665,-2.0665,-2.0665,-2.0665,-2.0665,-2.0665,0.0,0.0,0.0,0.0,0.0,0.0,0.0,0.0,0.0,0.0,-3.2285,-3.1903,-3.0995,-3.0898,-3.0898,0.0,0.0,0.0,0.0,0.0,0.0,0.0,0.0,0.0,-3.0762,-3.0762,-3.0762,-3.0645,-3.0645,-3.0645,-3.0645,-3.045,-3.0333,-3.0274,-3.0098,-2.9804,0.0,0.0,0.0,0.0,-2.3993,-2.2889,0.0,0.0,0.0,0.0,-2.1109,-2.1109,0.0,0.0,0.0,0.0,0.0,0.0,0.0,0.0,-2.1376,-2.1641,-2.1724,0.0,-2.2579,-2.2806,-2.2928,-2.2928,0.0,-2.2928,-2.2928,-2.2928,-2.2928,-2.2928,-2.2928,-2.2928,-2.2928,-2.2928,-2.2928,-2.2928,-2.2928,-2.2928,-2.2928,-2.2928,-2.2928,-2.2928,-2.2928,-2.2928,-2.2928,-2.2928,-2.2928,-2.2928,-2.2928,-2.2928,-2.2928,-2.2928,-2.2928,-2.2928,-2.2928,-2.2928,-2.2928,-2.2928,-2.2516,-2.2104,-2.176,-2.1346,-2.1012,-2.0665,-2.0665,-2.0665,-2.0665,-2.0665,-2.0665,-2.0665,-2.0665,-2.0665,-2.0665,-2.0665,-2.0665,-2.0665,0.0,0.0,0.0,0.0,0.0,0.0,0.0,0.0,0.0,0.0,0.0,-3.2248,-3.0995,-3.0898,0.0,0.0,0.0,0.0,0.0,0.0,0.0,0.0,0.0,-3.0898,-3.0898,-3.0898,-3.0898,-3.0898,-3.0898,-3.0898,-3.0898,-3.0704,-3.0645,-3.0645,-3.0098,-2.9804,0.0,0.0,0.0,0.0,-2.4548,0.0,0.0,0.0,0.0,0.0,-2.1109,-2.1109,0.0,-2.1109,-2.1109,-2.1109,0.0,0.0,0.0,0.0,-2.1229,-2.1376,-2.1574,-2.1977,-2.2458,-2.2619,-2.2766,-2.2928,-2.2928,-2.2928,-2.2928,-2.2928,-2.2928,-2.2928,-2.2928,-2.2928,-2.2928,-2.2928,-2.2928,-2.2928,-2.2928,-2.2928,-2.2928,-2.2928,-2.2928,-2.2928,-2.2928,-2.2928,-2.2928,-2.2928,-2.2928,-2.2928,-2.2928,-2.2928,-2.2928,-2.2928,-2.2928,-2.2928,-2.2928,-2.2928,-2.2791,-2.2654,-2.2379,-2.2035,-2.1484,-2.1276,-2.1012,-2.0665,-2.0665,-2.0665,-2.0665,-2.0665,-2.0665,-2.0665,-2.0665,-2.0665,-2.0665,-2.0665,-2.0665,-2.0665,0.0,0.0,0.0,0.0,0.0,0.0,0.0,0.0,0.0,0.0,0.0,0.0,0.0,0.0,0.0,0.0,0.0,0.0,0.0,0.0,0.0,0.0,-3.0898,-3.0898,-3.0898,-3.0898,-3.0898,-3.0898,-3.0898,-3.0898,-3.0898,-3.0898,-3.0879,-3.082,-3.0176,-2.9863,-2.9804,0.0,0.0,0.0,-2.5178,0.0,0.0,0.0,0.0,0.0,0.0,0.0,0.0,-2.1109,-2.1109,-2.1109,-2.1109,0.0,0.0,0.0,0.0,0.0,-2.148,-2.1911,-2.2365,-2.2405,-2.2645,-2.2928,-2.2928,-2.2928,-2.2928,-2.2928,-2.2928,-2.2928,-2.2928,-2.2928,-2.2928,-2.2928,-2.2928,-2.2928,-2.2928,-2.2928,-2.2928,-2.2928,-2.2928,-2.2928,-2.2928,-2.2928,-2.2928,-2.2928,-2.2928,-2.2928,-2.2928,-2.2928,-2.2928,-2.2928,-2.2928,-2.2928,-2.2928,-2.2928,-2.2722,-2.2379,-2.231,-2.1897,-2.1276,-2.1207,-2.0943,-2.0665,-2.0665,-2.0665,-2.0665,-2.0665,-2.0665,-2.0665,-2.0665,-2.0665,-2.0665,-2.0665,-2.0665,-2.0665,0.0,0.0,0.0,0.0,0.0,0.0,0.0,0.0,0.0,0.0,0.0,0.0,0.0,0.0,0.0,0.0,0.0,0.0,0.0,0.0,0.0,-3.0898,-3.0898,-3.0898,-3.0898,-3.0898,-3.0898,-3.0898,-3.0898,-3.0898,-3.0898,-3.0898,-3.0762,-3.045,-3.0098,-2.9745,-2.9568,-2.9153,0.0,-2.8182,-2.5912,0.0,0.0,0.0,0.0,0.0,0.0,0.0,0.0,-2.1109,-2.1109,-2.1109,-2.1109,0.0,0.0,0.0,0.0,0.0,-2.1162,-2.1603,-2.2111,-2.2352,-2.2645,-2.2928,-2.2928,-2.2928,-2.2928,-2.2928,-2.2928,-2.2928,-2.2928,-2.2928,-2.2928,-2.2928,-2.2928,-2.2928,-2.2928,-2.2928,-2.2928,-2.2928,-2.2928,-2.2928,-2.2928,-2.2928,-2.2928,-2.2928,-2.2928,-2.2928,-2.2928,-2.2928,-2.2928,-2.2928,-2.2928,-2.2928,-2.2928,-2.2928,-2.2859,-2.2791,-2.2173,-2.1829,-2.1703,-2.1081,-2.0735,-2.0665,-2.0665,-2.0665,-2.0665,-2.0665,-2.0665,-2.0665,-2.0665,-2.0665,-2.0665,-2.0665,-2.0665,-2.0665,0.0,0.0,0.0,0.0,0.0,0.0,0.0,0.0,0.0,0.0,0.0,0.0,0.0,0.0,0.0,0.0,0.0,0.0,0.0,0.0,-3.0898,-3.0898,-3.0898,-3.0898,-3.0898,-3.0898,-3.0898,-3.0898,-3.0898,-3.0898,-3.0898,-3.0704,-3.045,-3.0098,-2.9981,-2.9745,-2.9509,-2.9331,-2.8361,-2.6702,0.0,0.0,0.0,0.0,0.0,0.0,0.0,0.0,0.0,0.0,-2.1109,-2.1109,-2.1109,0.0,0.0,0.0,0.0,0.0,-2.1109,-2.1537,-2.2017,-2.2151,-2.2525,-2.2928,-2.2928,-2.2928,-2.2928,-2.2928,-2.2928,-2.2928,-2.2928,-2.2928,-2.2928,-2.2928,-2.2928,-2.2928,-2.2928,-2.2928,-2.2928,-2.2928,-2.2928,-2.2928,-2.2928,-2.2928,-2.2928,-2.2928,-2.2928,-2.2928,-2.2928,-2.2928,-2.2928,-2.2928,-2.2928,-2.2928,-2.2928,-2.2654,-2.2448,-2.231,-2.1966,-2.1565,-2.122,-2.0873,-2.0665,-2.0665,-2.0665,-2.0665,-2.0665,-2.0665,-2.0665,-2.0665,-2.0665,-2.0665,-2.0665,-2.0665,-2.0665,-2.0665,0.0,0.0,0.0,0.0,0.0,0.0,0.0,0.0,0.0,0.0,0.0,0.0,0.0,0.0,0.0,0.0,0.0,0.0,0.0,-3.1556,-3.0898,-3.0898,-3.0898,-3.0898,-3.0898,-3.0898,-3.0898,-3.0898,-3.0898,-3.0898,-3.0898,-3.0645,-3.0274,-2.9922,-2.9922,-2.9686,-2.939,-2.939,-2.7864,-2.5423,0.0,0.0,0.0,0.0,0.0,0.0,0.0,0.0,0.0,0.0,0.0,0.0,0.0,0.0,0.0,-2.1109,-2.1109,-2.1122,-2.1189,-2.159,-2.2004,-2.2071,-2.2472,-2.2928,-2.2928,-2.2928,-2.2928,-2.2928,-2.2928,-2.2928,-2.2928,-2.2928,-2.2928,-2.2928,-2.2928,-2.2928,-2.2928,-2.2928,-2.2928,-2.2928,-2.2928,-2.2928,-2.2928,-2.2928,-2.2928,-2.2928,-2.2928,-2.2928,-2.2928,-2.2928,-2.2928,-2.2928,-2.2928,-2.2928,-2.2928,-2.2516,-2.2173,-2.1897,-2.176,-2.1346,-2.0804,-2.0735,-2.0665,-2.0665,-2.0665,-2.0665,-2.0665,-2.0665,-2.0665,-2.0665,-2.0665,-2.0665,-2.0665,-2.0665,-2.0665,-2.0665,0.0,0.0,0.0,0.0,0.0,0.0,0.0,0.0,0.0,0.0,0.0,0.0,0.0,0.0,0.0,0.0,0.0,0.0,0.0,-3.1556,-3.0898,-3.0898,-3.0898,-3.0898,-3.0898,-3.0898,-3.0898,-3.0898,-3.0898,-3.0898,-3.0898,-3.0898,-3.0528,-2.9922,-2.9922,-2.9568,-2.9035,-2.9035,-2.8182,-2.6762,-2.5485,0.0,0.0,0.0,0.0,0.0,0.0,0.0,0.0,0.0,0.0,0.0,0.0,0.0,-2.1109,-2.1109,-2.1109,-2.1162,-2.1507,-2.175,-2.2044,-2.2325,-2.2632,-2.2928,-2.2928,-2.2928,-2.2928,-2.2928,-2.2928,-2.2928,-2.2928,-2.2928,-2.2928,-2.2928,-2.2928,-2.2928,-2.2928,-2.2928,-2.2928,-2.2928,-2.2928,-2.2928,-2.2928,-2.2928,-2.2928,-2.2928,-2.2928,-2.2928,-2.2928,-2.2928,-2.2928,-2.2928,-2.2928,-2.2928,-2.2928,-2.2516,-2.231,-2.2242,-2.1553,-2.122,-2.1138,-2.0873,-2.0665,-2.0665,-2.0665,-2.0665,-2.0665,-2.0665,-2.0665,-2.0665,-2.0665,-2.0665,-2.0665,-2.0665,-2.0665,-2.0665,0.0,0.0,0.0,0.0,0.0,0.0,0.0,0.0,0.0,0.0,0.0,0.0,0.0,0.0,0.0,0.0,0.0,0.0,0.0,-3.3063,-3.2018,-3.2018,-3.1286,-3.0898,-3.0898,-3.0898,-3.0898,-3.0898,-3.0898,-3.0762,-3.0567,-3.0567,-3.0274,-2.9686,-2.9804,-2.9568,-2.8975,-2.9213,-2.7924,-2.5729,-2.5178,-2.376,0.0,0.0,0.0,0.0,0.0,0.0,0.0,0.0,-2.1109,-2.1109,-2.1109,-2.1109,-2.1109,-2.1109,-2.1109,-2.1176,-2.1534,-2.1829,-2.2058,-2.2352,-2.2645,-2.2928,-2.2928,-2.2928,-2.2928,-2.2928,-2.2928,-2.2928,-2.2928,-2.2928,-2.2928,-2.2928,-2.2928,-2.2928,-2.2928,-2.2928,-2.2928,-2.2928,-2.2928,-2.2928,-2.2928,-2.2928,-2.2928,-2.2928,-2.2928,-2.2928,-2.2928,-2.2928,-2.2928,-2.2928,-2.2928,-2.2928,-2.2928,-2.2516,-2.2173,-2.1966,-2.1415,-2.1069,-2.0873,-2.0735,-2.0665,-2.0665,-2.0665,-2.0665,-2.0665,-2.0665,-2.0665,-2.0665,-2.0665,-2.0665,-2.0665,-2.0665,-2.0665,-2.0665,0.0,0.0,0.0,0.0,0.0,0.0,0.0,0.0,0.0,0.0,0.0,0.0,0.0,0.0,0.0,0.0,0.0,0.0,-3.6177,-3.4357,-3.3063,-3.2742,-3.1903,-3.1286,-3.0898,-3.0898,-3.0898,-3.0898,-3.0898,-3.0762,-3.0567,-3.045,-3.0098,-2.9627,-2.9745,-2.9509,-2.9035,-2.9213,-2.7924,-2.5607,-2.5607,-2.407,0.0,0.0,0.0,0.0,0.0,0.0,0.0,0.0,-2.1109,-2.1109,-2.1109,-2.1109,-2.1109,-2.1109,-2.1176,-2.1309,-2.1603,-2.1897,-2.2191,-2.2485,-2.2712,-2.2928,-2.2928,-2.2928,-2.2928,-2.2928,-2.2928,-2.2928,-2.2928,-2.2928,-2.2928,-2.2928,-2.2928,-2.2928,-2.2928,-2.2928,-2.2928,-2.2928,-2.2928,-2.2928,-2.2928,-2.2928,-2.2928,-2.2928,-2.2928,-2.2928,-2.2928,-2.2928,-2.2928,-2.2928,-2.2928,-2.2928,-2.2928,-2.2516,-2.2104,-2.176,-2.1415,-2.1012,-2.0665,-2.0665,-2.0665,-2.0665,-2.0665,-2.0665,-2.0665,-2.0665,-2.0665,-2.0665,-2.0665,-2.0665,-2.0665,-2.0665,-2.0665,-2.0665,0.0,0.0,0.0,0.0,0.0,0.0,0.0,0.0,0.0,0.0,0.0,0.0,0.0,0.0,0.0,0.0,0.0,0.0,-3.6231,-3.5113,-3.3888,-3.2799,-3.2742,-3.219,-3.0957,-3.0937,-3.0898,-3.0898,-3.0898,-3.0898,-3.0898,-3.0567,-3.0216,-2.9863,-2.9627,-2.9331,-2.8975,-2.8975,-2.8241,-2.7021,-2.7021,-2.5407,-2.3139,0.0,0.0,0.0,0.0,0.0,0.0,0.0,-2.1109,-2.1109,-2.1109,-2.1109,-2.1109,-2.1109,-2.1323,-2.1681,-2.1911,-2.2205,-2.2485,-2.2792,-2.2928,-2.2928,-2.2928,-2.2928,-2.2928,-2.2928,-2.2928,-2.2928,-2.2928,-2.2928,-2.2928,-2.2928,-2.2928,-2.2928,-2.2928,-2.2928,-2.2928,-2.2928,-2.2928,-2.2928,-2.2928,-2.2928,-2.2928,-2.2928,-2.2928,-2.2928,-2.2928,-2.2928,-2.2928,-2.2928,-2.2928,-2.2928,-2.2928,-2.2516,-2.2104,-2.176,-2.1415,-2.1012,-2.0665,-2.0665,-2.0665,-2.0665,-2.0665,-2.0665,-2.0665,-2.0665,-2.0665,-2.0665,-2.0665,-2.0665,-2.0665,-2.0665,-2.0665,-2.0665,0.0,0.0,0.0,0.0,0.0,0.0,0.0,0.0,0.0,0.0,0.0,0.0,0.0,0.0,0.0,0.0,0.0,0.0,-3.7495,-3.634,-3.5521,-3.519,-3.4336,-3.3741,-3.3402,-3.2571,-3.173,-3.0898,-3.0898,-3.0898,-3.0898,-3.0567,-3.0216,-2.9863,-2.9627,-2.9331,-2.8975,-2.8975,-2.8241,-2.7021,-2.7021,-2.5973,-2.4317,0.0,0.0,0.0,0.0,0.0,0.0,0.0,0.0,0.0,-2.1109,-2.1109,-2.1109,-2.1109,-2.1323,-2.1681,-2.1911,-2.2205,-2.2485,-2.2792,-2.2928,-2.2928,-2.2928,-2.2928,-2.2928,-2.2928,-2.2928,-2.2928,-2.2928,-2.2928,-2.2928,-2.2928,-2.2928,-2.2928,-2.2928,-2.2928,-2.2928,-2.2928,-2.2928,-2.2928,-2.2928,-2.2928,-2.2928,-2.2928,-2.2928,-2.2928,-2.2928,-2.2928,-2.2928,-2.2928,-2.2928,-2.2928,-2.2928,-2.2516,-2.2104,-2.176,-2.1415,-2.1012,-2.0665,-2.0665,-2.0665,-2.0665,-2.0665,-2.0665,-2.0665,-2.0665,-2.0665,-2.0665,-2.0665,-2.0665,-2.0665,-2.0665,-2.0665,-2.0665,0.0,0.0,0.0,0.0,0.0,0.0,0.0,0.0,0.0,0.0,-3.7974,-3.7974,0.0,0.0,0.0,0.0,0.0,0.0,-3.7974,-3.7334,-3.6719,-3.6231,-3.5498,-3.467,-3.3719,-3.2571,-3.1614,-3.0898,-3.0898,-3.0898,-3.0898,-3.0567,-3.0274,-3.0098,-2.9686,-2.939,-2.9213,-2.9035,-2.8558,-2.7804,-2.7804,-2.7021,-2.5668,0.0,0.0,0.0,0.0,0.0,0.0,0.0,0.0,0.0,-2.1109,-2.1109,-2.1136,-2.1256,-2.1496,-2.179,-2.2084,-2.2365,-2.2632,-2.2819,-2.2928,-2.2928,-2.2928,-2.2928,-2.2928,-2.2928,-2.2928,-2.2928,-2.2928,-2.2928,-2.2928,-2.2928,-2.2928,-2.2928,-2.2928,-2.2928,-2.2928,-2.2928,-2.2928,-2.2928,-2.2928,-2.2928,-2.2928,-2.2928,-2.2928,-2.2928,-2.2928,-2.2928,-2.2928,-2.2928,-2.2928,-2.2928,-2.2928,-2.2654,-2.231,-2.176,-2.1553,-2.1151,-2.0665,-2.0665,-2.0665,-2.0665,-2.0665,-2.0665,-2.0665,-2.0665,-2.0665,-2.0665,-2.0665,-2.0665,-2.0665,-2.0665,-2.0665,-2.0665,0.0,0.0,0.0,0.0,0.0,0.0,0.0,0.0,0.0,0.0,-3.7974,-3.7974,0.0,0.0,0.0,0.0,0.0,0.0,0.0,-3.7974,-3.7495,-3.6394,-3.634,-3.5245,-3.2913,-3.1787,-3.1112,-3.0898,-3.0898,-3.0898,-3.0898,-3.0509,-3.0333,-3.0333,-2.9745,-2.945,-2.945,-2.9153,-2.8975,-2.8975,-2.8975,-2.8241,-2.7021,-2.5546,0.0,0.0,0.0,0.0,0.0,0.0,0.0,0.0,-2.1109,-2.1109,-2.1162,-2.1534,-2.1764,-2.2044,-2.2338,-2.2632,-2.2859,-2.2722,-2.2585,-2.2516,-2.2516,-2.2516,-2.2585,-2.2859,-2.2928,-2.2928,-2.2928,-2.2928,-2.2928,-2.2928,-2.2928,-2.2928,-2.2928,-2.2928,-2.2928,-2.2928,-2.2928,-2.2928,-2.2928,-2.2928,-2.2928,-2.2928,-2.2928,-2.2928,-2.2928,-2.2928,-2.2928,-2.2928,-2.2928,-2.2928,-2.2928,-2.2859,-2.2516,-2.176,-2.176,-2.1358,-2.0665,-2.0665,-2.0665,-2.0665,-2.0665,-2.0665,-2.0665,-2.0665,-2.0665,-2.0665,-2.0665,-2.0665,-2.0665,-2.0665,-2.0665,-2.0665,0.0,0.0,0.0,0.0,0.0,0.0,0.0,0.0,0.0,0.0,0.0,0.0,0.0,0.0,0.0,0.0,0.0,0.0,0.0,-3.7974,-3.7868,-3.7601,-3.7601,-3.6503,-3.4112,-3.3776,-3.2721,-3.0898,-3.0898,-3.0898,-3.0898,-3.0294,-2.9981,-2.9981,-2.939,-2.9094,-2.9094,-2.9035,-2.8975,-2.8975,-2.8975,-2.8797,-2.8301,-2.5912,-2.481,0.0,0.0,0.0,0.0,0.0,0.0,0.0,-2.1109,-2.1109,-2.1162,-2.1534,-2.1764,-2.2044,-2.2338,-2.2632,-2.2585,-2.1402,-2.0201,-1.9356,-1.9356,-1.9356,-2.0063,-2.2435,-2.2928,-2.2928,-2.2928,-2.2928,-2.2928,-2.2928,-2.2928,-2.2928,-2.2928,-2.2928,-2.2928,-2.2928,-2.2928,-2.2928,-2.2928,-2.2928,-2.2928,-2.2928,-2.2928,-2.2928,-2.2928,-2.2928,-2.2928,-2.2928,-2.2928,-2.2928,-2.2928,-2.2585,-2.2242,-2.176,-2.1484,-2.1081,-2.0665,-2.0665,-2.0665,-2.0665,-2.0665,-2.0665,-2.0665,-2.0665,-2.0665,-2.0665,-2.0665,-2.0665,-2.0665,-2.0665,-2.0665,-2.0665,0.0,0.0,0.0,0.0,0.0,0.0,0.0,0.0,0.0,0.0,0.0,0.0,0.0,0.0,0.0,0.0,0.0,0.0,0.0,0.0,-3.7974,-3.7974,-3.6881,-3.5663,-3.4447,-3.3289,-3.2113,-3.0898,-3.0898,-3.0898,-3.0898,-3.0528,-3.0274,-3.0098,-2.9627,-2.9331,-2.9213,-2.9035,-2.8975,-2.8975,-2.8975,-2.8975,-2.8797,-2.6702,-2.5546,-2.4748,-2.2779,0.0,0.0,0.0,0.0,0.0,0.0,0.0,-2.1376,-2.167,-2.1964,-2.2258,-2.2552,-2.2739,-2.2516,-2.0975,-1.9507,-1.8379,-1.8379,-1.8379,-1.8868,-2.0409,-2.1321,-2.2022,-2.2791,-2.2928,-2.2928,-2.2928,-2.2928,-2.2928,-2.2928,-2.2928,-2.2928,-2.2928,-2.2928,-2.2928,-2.2928,-2.2928,-2.2928,-2.2928,-2.2928,-2.2928,-2.2928,-2.2928,-2.2928,-2.2928,-2.2928,-2.2928,-2.2928,-2.2516,-2.2104,-2.176,-2.1415,-2.1012,-2.0665,-2.0665,-2.0665,-2.0665,-2.0665,-2.0665,-2.0665,-2.0665,-2.0665,-2.0665,-2.0665,-2.0665,-2.0665,-2.0665,-2.0665,-2.0665,0.0,0.0,0.0,0.0,0.0,0.0,0.0,0.0,0.0,0.0,0.0,0.0,0.0,0.0,0.0,0.0,0.0,0.0,0.0,0.0,0.0,-3.7708,-3.5772,-3.4503,-3.4112,-3.2227,-3.1112,-3.0898,-3.0898,-3.0898,-3.0898,-3.082,-3.0704,-3.0392,-2.9981,-2.9686,-2.9509,-2.9153,-2.8975,-2.8975,-2.8975,-2.8975,-2.8856,-2.7504,-2.6277,-2.5178,-2.3636,-2.2404,-2.1411,-2.1172,0.0,0.0,0.0,0.0,-2.1681,-2.1897,-2.2191,-2.2485,-2.2779,-2.2516,-2.1747,-2.0213,-1.874,-1.7609,-1.7609,-1.7609,-1.7679,-1.797,-1.9158,-2.0629,-2.1885,-2.2091,-2.2229,-2.2448,-2.2516,-2.2585,-2.2859,-2.2928,-2.2928,-2.2928,-2.2928,-2.2928,-2.2928,-2.2928,-2.2928,-2.2928,-2.2928,-2.2928,-2.2928,-2.2928,-2.2928,-2.2928,-2.2928,-2.2859,-2.2791,-2.2448,-2.2104,-2.1703,-2.1276,-2.0943,-2.0665,-2.0665,-2.0665,-2.0665,-2.0665,-2.0665,-2.0665,-2.0665,-2.0665,-2.0665,-2.0665,-2.0665,-2.0665,-2.0665,-2.0665,-2.0665,0.0,0.0,0.0,0.0,0.0,0.0,0.0,0.0,0.0,0.0,-3.7974,0.0,0.0,0.0,0.0,0.0,0.0,0.0,0.0,0.0,0.0,-3.6503,-3.6154,-3.498,-3.297,-3.2628,-3.196,-3.0898,-3.0898,-3.0898,-3.0898,-3.0567,-3.045,-3.0392,-2.9804,-2.9509,-2.9509,-2.9153,-2.8975,-2.8975,-2.8975,-2.8975,-2.8856,-2.7504,-2.69,-2.6399,-2.3993,-2.2952,-2.264,-2.1475,-2.1109,0.0,0.0,0.0,-2.1681,-2.1897,-2.2191,-2.2485,-2.2779,-2.0963,-1.8659,-1.7057,-1.5584,-1.4537,-1.4537,-1.4537,-1.4884,-1.615,-1.7619,-1.8729,-1.8938,-1.9008,-1.9437,-2.0698,-2.0906,-2.139,-2.2722,-2.2928,-2.2928,-2.2928,-2.2928,-2.2928,-2.2928,-2.2928,-2.2928,-2.2928,-2.2928,-2.2928,-2.2928,-2.2928,-2.2928,-2.2928,-2.2928,-2.2722,-2.2379,-2.231,-2.1966,-2.1276,-2.0943,-2.0735,-2.0665,-2.0665,-2.0665,-2.0665,-2.0665,-2.0665,-2.0665,-2.0665,-2.0665,-2.0665,-2.0665,-2.0665,-2.0665,-2.0665,-2.0665,-2.0665,0.0,0.0,0.0,0.0,0.0,0.0,0.0,0.0,0.0,0.0,0.0,-3.8767,0.0,0.0,0.0,-3.8022,0.0,0.0,0.0,0.0,0.0,-3.6231,-3.5553,-3.4391,-3.2742,-3.2018,-3.146,-3.0898,-3.0898,-3.082,-3.0645,-3.0645,-3.047,-3.0098,-2.9863,-2.9568,-2.9213,-2.9035,-2.8975,-2.8975,-2.8975,-2.8975,-2.8916,-2.8361,-2.7624,-2.684,-2.5729,-2.4363,-2.3014,-2.2404,-2.1727,-2.1136,-2.1309,0.0,0.0,0.0,-2.2432,-2.2699,-2.2887,-2.0686,-1.8239,-1.7549,-1.5655,-1.3904,-1.3904,-1.3904,-1.411,-1.4742,-1.5372,-1.6423,-1.81,-1.8379,-1.8589,-1.9298,-2.0063,-2.0837,-2.154,-2.2379,-2.2928,-2.2928,-2.2928,-2.2928,-2.2928,-2.2928,-2.2928,-2.2928,-2.2928,-2.2928,-2.2928,-2.2928,-2.2928,-2.2928,-2.2928,-2.2791,-2.2654,-2.2242,-2.1622,-2.0943,-2.0735,-2.0665,-2.0665,-2.0665,-2.0665,-2.0665,-2.0665,-2.0665,-2.0665,-2.0665,-2.0665,-2.0665,-2.0665,-2.0665,-2.0665,-2.0665,-2.0665,-2.0665,0.0,0.0,0.0,0.0,0.0,0.0,0.0,0.0,0.0,0.0,0.0,0.0,0.0,0.0,0.0,0.0,-3.819,0.0,0.0,0.0,0.0,-3.5795,-3.4614,-3.3459,-3.2305,-3.1344,-3.084,-3.0762,-3.084,-3.0704,-3.0392,-3.0762,-3.0587,-3.0039,-3.0039,-2.9686,-2.9153,-2.9153,-2.9094,-2.8975,-2.8975,-2.8975,-2.8975,-2.8975,-2.8433,-2.7583,-2.7177,-2.5659,-2.3798,-2.3348,-2.2384,-2.1363,-2.159,-2.1857,0.0,0.0,0.0,-2.2722,-2.1953,-2.0132,-1.8239,-1.7479,-1.5584,-1.3904,-1.3904,-1.3904,-1.3904,-1.3904,-1.3904,-1.46,-1.6846,-1.7268,-1.7409,-1.7749,-1.874,-1.9715,-2.0491,-2.1609,-2.2448,-2.2859,-2.2928,-2.2928,-2.2928,-2.2928,-2.2928,-2.2928,-2.2928,-2.2928,-2.2928,-2.2928,-2.2928,-2.2928,-2.2928,-2.2859,-2.2722,-2.2104,-2.1496,-2.0804,-2.0804,-2.0804,-2.0665,-2.0665,-2.0665,-2.0665,-2.0665,-2.0665,-2.0665,-2.0665,-2.0665,-2.0665,-2.0665,-2.0665,-2.0665,-2.0665,-2.0665,-2.0665,0.0,0.0,0.0,0.0,0.0,0.0,0.0,0.0,0.0,0.0,0.0,0.0,-3.9561,-3.9561,-3.9345,-3.8815,-3.8767,-3.8551,-3.8022,-3.6935,0.0,-3.4558,-3.3402,0.0,-3.0995,-3.0957,-3.0762,-3.045,-3.0762,-3.0704,-3.0392,-3.0762,-3.0704,-3.0392,-3.0392,-3.0039,-2.945,-2.945,-2.9272,-2.8975,-2.8975,-2.8975,-2.8975,-2.8975,-2.9214,-2.9246,-2.7583,-2.6542,-2.5658,-2.4063,-2.2784,-2.1937,-2.1951,-2.2164,-2.2405,0.0,0.0,0.0,-1.9426,-1.8519,-1.7679,-1.4884,-1.4047,-1.3904,-1.3904,-1.3904,-1.3904,-1.3904,-1.3904,-1.3975,-1.411,-1.411,-1.4608,-1.6009,-1.6291,-1.7338,-2.0213,-2.0698,-2.1252,-2.2722,-2.2928,-2.2928,-2.2928,-2.2928,-2.2928,-2.2928,-2.2928,-2.2928,-2.2928,-2.2928,-2.2928,-2.2928,-2.2928,-2.2722,-2.231,-2.1966,-2.1553,-2.1138,-2.1138,-2.1012,-2.0665,-2.0665,-2.0665,-2.0665,-2.0665,-2.0665,-2.0665,-2.0665,-2.0665,-2.0665,-2.0665,-2.0665,-2.0665,-2.0665,-2.0665,-2.0665,0.0,0.0,0.0,0.0,0.0,0.0,0.0,0.0,0.0,0.0,0.0,0.0,0.0,-4.0114,-3.9898,-3.9369,-3.9008,-3.8251,-3.6928,-3.6449,0.0,-3.3402,-3.2721,-3.1805,-3.0626,-3.0333,-3.0274,-3.0392,-3.0509,-3.0509,-3.0392,-3.0509,-3.0333,-2.9863,-2.9981,-2.9863,-2.9527,-2.955,-2.9481,-2.9379,-2.9654,-2.9764,-2.9764,-2.9764,-2.9855,-2.9886,-2.931,-2.8365,-2.7234,-2.5691,-2.4327,-2.3252,0.0,-2.2338,-2.2458,-2.2645,-2.2779,-2.2435,-2.034,-1.9147,-1.7889,-1.5797,-1.4608,-1.3904,-1.3904,-1.3904,-1.3904,-1.3904,-1.3904,-1.3904,-1.3904,-1.3904,-1.4039,-1.4608,-1.5452,-1.6856,-1.8879,-1.9993,-2.1183,-2.2722,-2.2928,-2.2928,-2.2928,-2.2928,-2.2928,-2.2928,-2.2928,-2.2928,-2.2928,-2.2928,-2.2928,-2.2928,-2.2928,-2.2722,-2.231,-2.2173,-2.1829,-2.1207,-2.1207,-2.1012,-2.0665,-2.0665,-2.0665,-2.0665,-2.0665,-2.0665,-2.0665,-2.0665,-2.0665,-2.0665,-2.0665,-2.0665,-2.0665,-2.0665,-2.0665,-2.0665,0.0,0.0,0.0,0.0,0.0,0.0,0.0,0.0,-4.1172,-4.1172,0.0,0.0,0.0,0.0,-3.9608,-3.8614,-3.7962,-3.7072,-3.5901,-3.5335,-3.4357,-3.2799,-3.2092,-3.1422,-3.0603,-3.0367,-3.0249,-3.0308,-3.0367,-3.035,-3.0098,-3.035,-3.0249,-2.9833,-3.0043,-2.9905,-2.9554,-2.9841,-2.9904,-2.98,-3.0094,-3.0204,-3.0204,-3.0204,-3.0277,-3.0387,-3.0241,-2.9475,-2.8384,-2.7338,-2.5841,-2.4276,0.0,0.0,0.0,0.0,-2.2928,-2.2585,-2.1044,-1.9854,-1.867,-1.6644,-1.5381,-1.4537,-1.4039,-1.3904,-1.3904,-1.3904,-1.3904,-1.3904,-1.3904,-1.3904,-1.3904,-1.3904,-1.475,-1.5867,-1.7409,-1.8949,-2.0421,-2.1953,-2.2585,-2.2928,-2.2928,-2.2928,-2.2928,-2.2928,-2.2928,-2.2928,-2.2928,-2.2928,-2.2928,-2.2928,-2.2928,-2.2791,-2.2516,-2.2379,-2.1966,-2.1415,-2.1276,-2.1012,-2.0665,-2.0665,-2.0665,-2.0665,-2.0665,-2.0665,-2.0665,-2.0665,-2.0665,-2.0665,-2.0665,-2.0665,-2.0665,-2.0665,-2.0665,-2.0665,0.0,0.0,0.0,0.0,0.0,0.0,0.0,0.0,-4.1057,-4.1057,0.0,0.0,0.0,0.0,0.0,-3.6631,-3.562,-3.5076,-3.4997,-3.3543,-3.2628,-3.2628,0.0,0.0,-3.0947,-3.0967,-3.0667,-3.0065,-3.0347,-3.0159,-2.9527,-3.0178,-3.0487,-3.0505,-3.0635,-3.0291,-2.9696,-3.0408,-3.0513,-3.0222,-3.0241,-3.0241,-3.0241,-3.0241,-3.0479,-3.0754,-3.0369,-2.9895,-2.9279,-2.8854,-2.713,-2.5143,0.0,0.0,0.0,0.0,0.0,0.0,0.0,0.0,0.0,-1.6926,-1.615,-1.5797,-1.4395,-1.3967,-1.3975,-1.4039,-1.3967,-1.3904,-1.3967,-1.3904,-1.3904,-1.3904,-1.3904,-1.4395,-1.5877,-1.7409,-1.8938,-2.0421,-2.1953,-2.2928,-2.2928,-2.2928,-2.2928,-2.2928,-2.2928,-2.2928,-2.2928,-2.2928,-2.2928,-2.2928,-2.2928,-2.2859,-2.2859,-2.2516,-2.2104,-2.1772,-2.1415,-2.1012,-2.0665,-2.0665,-2.0665,-2.0665,-2.0665,-2.0665,-2.0665,-2.0665,-2.0665,-2.0665,-2.0665,-2.0665,-2.0665,-2.0665,-2.0665,-2.0665,0.0,0.0,0.0,0.0,0.0,-3.8387,-3.8387,-3.8387,-3.8387,0.0,0.0,0.0,-3.8387,-3.8029,-3.7352,-3.6254,-3.5648,-3.4688,-3.3152,-3.2374,-3.1574,-3.0723,-3.0157,-2.992,-2.9914,-2.9695,-2.9558,-2.9677,-3.0054,-3.0189,-3.0257,-3.0489,-3.0635,-3.0653,-3.0754,-3.0678,-3.0461,-3.0696,-3.0751,-3.0644,-3.0937,-3.1047,-3.1047,-3.1047,-3.1121,-3.1194,-3.1084,-3.0938,-3.0631,-2.9488,-2.8656,-2.7734,0.0,0.0,0.0,0.0,0.0,0.0,-2.1044,0.0,0.0,0.0,0.0,0.0,-1.7268,-1.6291,-1.5797,-1.6916,-1.5443,-1.4252,-1.531,-1.4608,-1.3904,-1.3904,-1.3904,-1.4395,-1.5877,-1.7409,-1.8938,-2.0421,-2.1953,-2.2928,-2.2928,-2.2928,-2.2928,-2.2928,-2.2928,-2.2928,-2.2928,-2.2928,-2.2928,-2.2928,-2.2928,-2.2791,-2.2448,-2.2379,-2.1966,-2.1346,-2.1276,-2.1012,-2.0665,-2.0665,-2.0665,-2.0665,-2.0665,-2.0665,-2.0665,-2.0665,-2.0665,-2.0665,-2.0665,-2.0665,-2.0665,-2.0665,-2.0665,-2.0665,0.0,0.0,0.0,0.0,0.0,-3.7309,-3.7309,-3.7309,-3.7248,0.0,0.0,0.0,-3.6133,-3.6072,-3.5661,-3.4616,-3.4001,-3.3153,-3.1918,-3.127,-3.0665,-2.9922,-2.9745,-2.9777,-3.0013,-2.9791,-2.9804,-3.0032,-3.0272,-3.0371,-3.0387,-3.0612,-3.0754,-3.0773,-3.0991,-3.1029,-3.1029,-3.1029,-3.1029,-3.1047,-3.1286,-3.1377,-3.1377,-3.1377,-3.1377,-3.1377,-3.1377,-3.1377,-3.1249,-3.0455,-2.9805,-2.8806,0.0,0.0,0.0,0.0,0.0,0.0,0.0,0.0,0.0,0.0,0.0,0.0,-1.8519,-1.7689,-1.7338,-1.8239,-1.6987,-1.6009,-1.6916,-1.6352,-1.5797,-1.5797,-1.5797,-1.5867,-1.6079,-1.797,-1.9646,-2.0491,-2.1953,-2.2928,-2.2928,-2.2928,-2.2928,-2.2928,-2.2928,-2.2928,-2.2928,-2.2928,-2.2928,-2.2928,-2.2928,-2.2791,-2.2516,-2.2242,-2.1897,-2.1415,-2.1151,-2.0873,-2.0665,-2.0665,-2.0665,-2.0665,-2.0665,-2.0665,-2.0665,-2.0665,-2.0665,-2.0665,-2.0665,-2.0665,-2.0665,-2.0665,-2.0665,-2.0665,0.0,0.0,-3.7067,-3.6885,-3.6885,-3.6885,-3.6885,-3.6885,-3.6742,0.0,-3.6377,-3.5827,-3.4383,-3.4195,-3.3713,-3.2485,-3.164,-3.1167,-3.1167,-3.037,-2.9936,-2.9936,-2.9936,-3.0174,-3.0599,-3.0618,-3.068,-3.0717,-3.0772,-3.0607,-3.0277,-3.0662,-3.0846,-3.0864,-3.1231,-3.1377,-3.1377,-3.1377,-3.1377,-3.1377,-3.1377,-3.1442,-3.1442,-3.1442,-3.1377,-3.1377,-3.1377,-3.1377,-3.1377,-3.1377,-3.0455,-2.8871,0.0,0.0,0.0,0.0,-2.3133,0.0,0.0,0.0,0.0,0.0,-2.0837,0.0,-1.9217,-1.8798,-1.8659,-1.8868,-1.8659,-1.8449,-1.8589,-1.8519,-1.8379,-1.8379,-1.8519,-1.81,-1.6574,-1.8809,-2.0629,-2.0629,-2.1953,-2.2928,-2.2928,-2.2928,-2.2928,-2.2928,-2.2928,-2.2928,-2.2928,-2.2928,-2.2928,-2.2928,-2.2928,-2.2859,-2.2791,-2.2104,-2.176,-2.1703,-2.1012,-2.0665,-2.0665,-2.0665,-2.0665,-2.0665,-2.0665,-2.0665,-2.0665,-2.0665,-2.0665,-2.0665,-2.0665,-2.0665,-2.0665,-2.0665,-2.0665,-2.0665,0.0,-3.5005,-3.5438,-3.434,-3.4153,-3.4153,-3.4153,-3.4153,-3.4153,-3.409,-3.3839,-3.3524,-3.3228,-3.2975,-3.2613,-3.2038,-3.157,-3.1164,-3.0914,-3.0408,-3.015,-3.015,-3.015,-3.0162,-3.0309,-3.0328,-3.0303,-3.0314,-3.0626,-3.0754,-3.0681,-3.1084,-3.1267,-3.1267,-3.1341,-3.1377,-3.1377,-3.1377,-3.1377,-3.1377,-3.1377,-3.1589,-3.1782,-3.1506,-3.1377,-3.1377,-3.1377,-3.1377,-3.1377,-3.1377,-3.0455,-2.9199,-2.8674,0.0,0.0,-2.5008,0.0,0.0,0.0,0.0,0.0,0.0,-2.2448,0.0,-2.2091,-2.1044,-2.0491,-2.1747,-2.0063,-1.8729,-1.9924,-1.9228,-1.8379,-1.8379,-1.9367,-1.9646,-1.818,-1.9507,-2.0629,-2.0629,-2.1953,-2.2928,-2.2928,-2.2928,-2.2928,-2.2928,-2.2928,-2.2928,-2.2928,-2.2928,-2.2928,-2.2928,-2.2928,-2.2585,-2.2035,-2.1897,-2.1496,-2.0943,-2.0735,-2.0665,-2.0665,-2.0665,-2.0665,-2.0665,-2.0665,-2.0665,-2.0665,-2.0665,-2.0665,-2.0665,-2.0665,-2.0665,-2.0665,-2.0665,-2.0665,-2.0665,-3.3544,-3.3902,-3.4153,-3.3292,-3.3165,-3.3102,-3.2912,-3.2912,-3.2867,-3.2676,-3.2339,-3.2147,-3.2147,-3.2019,-3.1827,-3.1653,-3.1265,-3.098,-3.0791,-3.0424,-3.0204,-3.0204,-3.0204,-3.0296,-3.0497,-3.0497,-3.0589,-3.0791,-3.0992,-3.1084,-3.1084,-3.1286,-3.1377,-3.1377,-3.1377,-3.1377,-3.1377,-3.1377,-3.1506,-3.1653,-3.1442,-3.1506,-3.1653,-3.1442,-3.1377,-3.1377,-3.1377,-3.1377,-3.1377,-3.1377,-3.0908,-3.0195,-2.9526,-2.8806,-2.7932,0.0,-2.5532,-2.4873,0.0,0.0,0.0,-2.2928,0.0,0.0,0.0,-2.2297,-2.1953,-2.2722,-2.1665,-2.0894,-2.1609,-2.1113,-2.0617,-2.0617,-2.1252,-2.1459,-2.0756,-2.1252,-2.1747,-2.1747,-2.2448,-2.2928,-2.2928,-2.2928,-2.2928,-2.2928,-2.2928,-2.2928,-2.2928,-2.2928,-2.2928,-2.2928,-2.2722,-2.2448,-2.2035,-2.1691,-2.1358,-2.0943,-2.0804,-2.0665,-2.0665,-2.0665,-2.0665,-2.0665,-2.0665,-2.0665,-2.0665,-2.0665,-2.0665,-2.0665,-2.0665,-2.0665,-2.0665,-2.0665,-2.0665,-2.0665,-3.3355,-3.3418,-3.3292,-3.3038,-3.2912,-3.2785,-3.2549,-3.2422,-3.2294,-3.2038,-3.1717,-3.1506,-3.1506,-3.1442,-3.1377,-3.1377,-3.1084,-3.0901,-3.0901,-3.0607,-3.0424,-3.0424,-3.0424,-3.0571,-3.0901,-3.0901,-3.1047,-3.1377,-3.1377,-3.1377,-3.1377,-3.1377,-3.1377,-3.1377,-3.1377,-3.1377,-3.1377,-3.1377,-3.1589,-3.1782,-3.1506,-3.1442,-3.1506,-3.1442,-3.1377,-3.1377,-3.1377,-3.1377,-3.1377,-3.1377,-3.1377,-3.1184,-3.0065,-2.9739,0.0,0.0,0.0,0.0,0.0,0.0,0.0,0.0,0.0,-2.2928,0.0,0.0,0.0,-2.2928,-2.2928,-2.2928,-2.2928,-2.2928,-2.2928,-2.2928,-2.2928,-2.2928,-2.2928,-2.2928,-2.2928,-2.2928,-2.2928,-2.2928,-2.2928,-2.2928,-2.2928,-2.2928,-2.2928,-2.2928,-2.2928,-2.2928,-2.2928,-2.2928,-2.2516,-2.2242,-2.2173,-2.1553,-2.1138,-2.1081,-2.0804,-2.0665,-2.0665,-2.0665,-2.0665,-2.0665,-2.0665,-2.0665,-2.0665,-2.0665,-2.0665,-2.0665,-2.0665,-2.0665,-2.0665,-2.0665,-2.0665,-2.0665,-3.3355,-3.3418,-3.3355,-3.3355,-3.3102,-3.2867,-3.2867,-3.2613,-3.2358,-3.2358,-3.2038,-3.1846,-3.1846,-3.1589,-3.1377,-3.1377,-3.1341,-3.1304,-3.1304,-3.1267,-3.1249,-3.1249,-3.1249,-3.1267,-3.1304,-3.1304,-3.1341,-3.1377,-3.1377,-3.1377,-3.1377,-3.1377,-3.1377,-3.1377,-3.1377,-3.1377,-3.1377,-3.1377,-3.1442,-3.1442,-3.1442,-3.1589,-3.1782,-3.1506,-3.1377,-3.1377,-3.1377,-3.1377,-3.1377,-3.1377,-3.1377,-3.1377,0.0,-3.1184,-3.0908,-2.9461,0.0,0.0,0.0,0.0,0.0,0.0,-2.2928,0.0,-2.2928,0.0,-2.2928,-2.2928,0.0,-2.2928,-2.2928,0.0,0.0,-2.2928,-2.2928,-2.2928,-2.2928,-2.2928,-2.2928,-2.2928,-2.2928,-2.2928,-2.2928,-2.2928,-2.2928,-2.2928,-2.2928,-2.2928,-2.2928,-2.2928,-2.2928,-2.2928,-2.2516,-2.2173,-2.1829,-2.1415,-2.1081,-2.0735,-2.0735,-2.0665,-2.0665,-2.0665,-2.0665,-2.0665,-2.0665,-2.0665,-2.0665,-2.0665,-2.0665,-2.0665,-2.0665,-2.0665,-2.0665,-2.0665,-2.0665,-2.0665,-3.3102,-3.2912,0.0,-3.2549,-3.2422,-3.223,-3.2083,-3.1891,-3.1827,-3.1827,-3.1699,-3.1589,-3.1589,-3.1506,-3.1377,-3.1377,-3.1377,-3.1377,-3.1377,-3.1377,-3.1377,-3.1377,-3.1377,-3.1377,-3.1377,-3.1377,-3.1377,-3.1377,-3.1377,-3.1377,-3.1377,-3.1377,-3.1377,-3.1377,-3.1377,-3.1377,-3.1396,-3.1634,-3.1744,-3.1763,-3.1983,-3.2159,-3.2235,-3.1626,-3.1377,-3.1377,-3.1377,-3.1377,-3.1377,-3.1377,-3.1543,-3.1689,0.0,0.0,0.0,-3.0786,0.0,0.0,0.0,0.0,0.0,0.0,0.0,0.0,-2.4142,0.0,-2.2928,-2.2928,0.0,0.0,0.0,0.0,0.0,0.0,-2.2928,-2.2928,-2.2928,-2.2928,-2.2928,-2.2928,-2.2928,-2.2928,-2.2928,-2.2928,-2.2928,-2.2928,-2.2928,-2.2928,-2.2928,-2.2928,-2.2928,-2.2928,-2.231,-2.1966,-2.176,-2.122,-2.0873,-2.0665,-2.0665,-2.0665,-2.0665,-2.0665,-2.0665,-2.0665,-2.0665,-2.0665,-2.0665,-2.0665,-2.0665,-2.0665,-2.0665,-2.0665,-2.0665,-2.0665,-2.0665,-2.0665,-3.2613,0.0,0.0,-3.2102,-3.1974,-3.1782,-3.1442,-3.1377,-3.1377,-3.1377,-3.1377,-3.1377,-3.1377,-3.1377,-3.1377,-3.1377,-3.1377,-3.1377,-3.1377,-3.1377,-3.1377,-3.1377,-3.1377,-3.1377,-3.1377,-3.1377,-3.1377,-3.1377,-3.1377,-3.1377,-3.1377,-3.1377,-3.1377,-3.1377,-3.1506,-3.1543,-3.1579,-3.2001,-3.2166,-3.2203,-3.2478,-3.2588,-3.2533,-3.1946,-3.1708,-3.1708,-3.1708,-3.1708,-3.1708,-3.1708,-3.1909,-3.2111,-3.1799,-3.1928,-3.2111,0.0,0.0,0.0,-2.955,0.0,0.0,0.0,0.0,0.0,0.0,0.0,0.0,0.0,-2.2928,0.0,0.0,0.0,-2.2928,-2.2928,0.0,-2.2928,-2.2928,-2.2928,-2.2928,-2.2928,-2.2928,-2.2928,-2.2928,-2.2928,-2.2928,-2.2928,-2.2928,-2.2928,-2.2928,-2.2928,-2.2859,-2.2722,-2.2104,-2.1772,-2.1622,-2.1012,-2.0665,-2.0665,-2.0665,-2.0665,-2.0665,-2.0665,-2.0665,-2.0665,-2.0665,-2.0665,-2.0665,-2.0665,-2.0665,-2.0665,-2.0665,-2.0665,-2.0665,-2.0665,-2.0665,-2.0665,-3.191,-3.2166,0.0,-3.2358,-3.2102,-3.1782,-3.1442,-3.1377,-3.1377,-3.1377,-3.1377,-3.1377,-3.1377,-3.1377,-3.1377,-3.1377,-3.1377,-3.1377,-3.1377,-3.1377,-3.1377,-3.1377,-3.1377,-3.1377,-3.1377,-3.1377,-3.1377,-3.1377,-3.1377,-3.1377,-3.1377,-3.1377,-3.1377,-3.1396,-3.1799,-3.1983,-3.2019,-3.2404,-3.257,-3.257,-3.2588,-3.2588,-3.2588,-3.257,-3.2551,-3.2551,-3.2551,-3.2551,-3.2551,-3.2551,-3.257,-3.257,-3.2551,-3.257,0.0,0.0,0.0,0.0,0.0,-2.9539,-2.8871,-2.7453,-2.7055,-2.6655,-2.533,0.0,-2.4535,0.0,0.0,0.0,0.0,0.0,0.0,0.0,0.0,0.0,0.0,-2.2928,-2.2928,-2.2928,-2.2928,-2.2928,-2.2928,-2.2928,-2.2928,-2.2928,-2.2928,-2.2928,-2.2928,-2.2928,-2.2722,-2.231,-2.1966,-2.1622,-2.1207,-2.0873,-2.0665,-2.0665,-2.0665,-2.0665,-2.0665,-2.0665,-2.0665,-2.0665,-2.0665,-2.0665,-2.0665,-2.0665,-2.0665,-2.0665,-2.0665,-2.0665,-2.0665,-2.0665,-2.0665,-2.0665,0.0,0.0,0.0,-3.1792,-3.1635,-3.1506,-3.1442,-3.1377,-3.1377,-3.1377,-3.1377,-3.1377,-3.1377,-3.1377,-3.1377,-3.1377,-3.1377,-3.1377,-3.1377,-3.1377,-3.1377,-3.1377,-3.1377,-3.1377,-3.1377,-3.1377,-3.1377,-3.1377,-3.1377,-3.1377,-3.1377,-3.1653,-3.1799,-3.1818,-3.2221,-3.2404,-3.2423,-3.2845,-3.301,-3.3028,-3.3303,-3.3395,-3.334,-3.2808,-3.2588,-3.2588,-3.2588,-3.2588,-3.2588,-3.2588,-3.2771,-3.2955,-3.268,-3.279,-3.2955,-3.268,-3.2496,-3.2253,-3.1835,-3.1612,-3.1371,-3.0888,-3.0068,-2.9127,-2.8408,0.0,0.0,0.0,0.0,0.0,0.0,0.0,0.0,0.0,0.0,0.0,0.0,-2.2928,-2.2928,-2.2928,-2.2928,-2.2928,-2.2928,-2.2928,-2.2928,-2.2928,-2.2928,-2.2928,-2.2928,-2.2928,-2.2722,-2.231,-2.1966,-2.1622,-2.1207,-2.0873,-2.0665,-2.0665,-2.0665,-2.0665,-2.0665,-2.0665,-2.0665,-2.0665,-2.0665,-2.0665,-2.0665,-2.0665,-2.0665,-2.0665,-2.0665,-2.0665,-2.0665,-2.0665,-2.0665,-2.0665,-3.114,-3.1428,-3.1805,-3.1826,-3.1818,-3.1818,-3.1818,-3.1818,-3.1818,-3.1818,-3.1818,-3.1818,-3.1818,-3.1818,-3.1744,-3.1616,-3.1598,-3.1598,-3.1598,-3.1469,-3.1451,-3.1598,-3.1451,-3.1377,-3.1377,-3.1524,-3.1598,-3.1598,-3.1744,-3.1538,-3.0996,-3.1264,-3.1123,-3.0606,-3.0972,-3.1487,-3.1997,-3.2409,-3.2932,-3.345,-3.3707,-3.3817,-3.3762,-3.323,-3.3028,-3.3028,-3.3028,-3.3028,-3.3028,-3.3028,-3.3211,-3.3395,-3.312,-3.3211,-3.3376,-3.3101,-3.2936,-3.2826,-3.2826,-3.2716,-3.2588,-3.2588,-3.1917,-3.102,-3.0288,-2.9345,-2.8451,0.0,0.0,0.0,0.0,0.0,0.0,0.0,0.0,0.0,0.0,-2.2928,-2.2928,-2.2928,-2.2928,-2.2928,-2.2928,-2.2928,-2.2928,-2.2928,-2.2928,-2.2928,-2.2928,-2.2928,-2.2654,-2.2104,-2.1897,-2.1565,-2.1012,-2.0804,-2.0665,-2.0665,-2.0665,-2.0665,-2.0665,-2.0665,-2.0665,-2.0665,-2.0665,-2.0665,-2.0665,-2.0665,-2.0665,-2.0665,-2.0665,-2.0665,-2.0665,-2.0665,-2.0665,-2.0665,-2.8371,-2.9267,-3.0701,-3.2173,-3.2558,-3.2588,-3.2588,-3.2588,-3.2588,-3.2588,-3.2588,-3.2588,-3.2588,-3.2588,-3.2441,-3.2074,-3.2038,-3.2038,-3.2038,-3.1653,-3.1616,-3.2019,-3.1653,-3.1433,-3.1433,0.0,0.0,0.0,-3.2271,-3.1698,-3.0174,-3.0191,-2.944,-2.8026,-2.8427,-2.9428,-3.0872,-3.1284,-3.2368,-3.3659,-3.359,-3.359,-3.3678,-3.3678,-3.3747,-3.3817,-3.3817,-3.3817,-3.3817,-3.3817,-3.3817,-3.3817,-3.3817,-3.3817,-3.3817,-3.3817,-3.3541,-3.3248,-3.3248,-3.2955,-3.2661,-3.2661,-3.2661,-3.2308,-3.0922,-3.0633,-3.0208,0.0,0.0,0.0,0.0,0.0,0.0,0.0,0.0,0.0,0.0,-2.2928,-2.2928,-2.2928,-2.2928,-2.2928,-2.2928,-2.2928,-2.2928,-2.2928,-2.2928,-2.2928,-2.2928,-2.2859,-2.2516,-2.1829,-2.1772,-2.1427,-2.0735,-2.0665,-2.0665,-2.0665,-2.0665,-2.0665,-2.0665,-2.0665,-2.0665,-2.0665,-2.0665,-2.0665,-2.0665,-2.0665,-2.0665,-2.0665,-2.0665,-2.0665,-2.0665,-2.0665,-2.0665,-2.0665,-2.8948,-2.9216,-2.9585,-3.0008,-3.144,-3.2588,-3.2588,-3.2588,-3.2588,-3.2588,-3.2588,-3.2588,-3.2588,-3.2588,-3.2551,-3.2441,-3.2441,-3.2441,-3.2441,-3.2349,-3.2331,-3.2441,-3.2349,-3.2276,-3.2276,-3.2386,-3.1889,-3.0713,-3.0818,-3.0106,-2.8599,-2.8927,-2.8847,-2.8443,-2.8861,-2.9289,-2.9731,-3.0963,-3.1719,-3.2018,-3.0855,-3.1067,-3.2088,-3.2088,-3.2806,-3.3817,-3.3817,-3.3817,-3.3817,-3.3817,-3.3817,-3.3817,-3.3817,-3.3817,-3.3817,-3.3817,-3.3743,-3.367,-3.367,-3.3578,-3.3505,-3.3505,-3.3505,-3.3345,-3.2643,-3.2503,-3.1986,-3.0157,-2.8862,-2.7974,0.0,0.0,0.0,0.0,0.0,0.0,0.0,0.0,-2.2928,-2.2928,-2.2928,-2.2928,-2.2928,-2.2928,-2.2928,-2.2928,-2.2928,-2.2928,-2.2928,-2.2654,-2.2242,-2.1829,-2.1484,-2.1151,-2.0665,-2.0665,-2.0665,-2.0665,-2.0665,-2.0665,-2.0665,-2.0665,-2.0665,-2.0665,-2.0665,-2.0665,-2.0665,-2.0665,-2.0665,-2.0665,-2.0665,-2.0665,-2.0665,-2.0665,-2.0665,-2.0665,-2.736,-2.7707,-2.8429,-2.9059,-3.0799,-3.2129,-3.2129,-3.2693,-3.312,-3.312,-3.312,-3.312,-3.312,-3.312,-3.3065,-3.2881,-3.2863,-3.2863,-3.2863,-3.2698,-3.268,-3.2863,-3.2698,-3.2588,-3.2588,-3.2771,0.0,-3.0549,0.0,-2.9679,-2.7519,-2.7789,-2.7508,-2.6877,-2.7054,-2.7563,-2.8285,-2.9861,-3.0501,-3.043,-2.956,-2.9702,0.0,-3.0501,-3.0997,-3.1789,-3.1789,-3.2666,-3.3817,-3.3817,-3.3817,-3.3817,-3.3817,-3.3817,-3.3817,-3.3817,-3.3817,-3.3817,-3.3817,-3.3817,-3.3817,-3.3817,-3.3817,-3.3762,-3.3541,-3.3486,-3.2983,-3.1202,-3.0048,-2.8964,-2.771,-2.5775,0.0,0.0,0.0,0.0,0.0,0.0,0.0,0.0,-2.2928,-2.2928,-2.2928,-2.2928,-2.2928,-2.2928,-2.2928,-2.2928,-2.2928,-2.2516,-2.2173,-2.1841,-2.1415,-2.1012,-2.0665,-2.0665,-2.0665,-2.0665,-2.0665,-2.0665,-2.0665,-2.0665,-2.0665,-2.0665,-2.0665,-2.0665,-2.0665,-2.0665,-2.0665,-2.0665,-2.0665,-2.0665,-2.0665,-2.0665,-2.0665,-2.0665,-2.4857,-2.5639,-2.7012,-2.8357,-2.9861,-3.0943,-3.1155,-3.2666,-3.3817,-3.3817,-3.3817,-3.3817,-3.3817,-3.3817,-3.367,-3.334,-3.3303,-3.3303,-3.3303,-3.2955,-3.2918,-3.3285,-3.2955,-3.2753,-3.2753,-3.312,-3.2445,0.0,-3.1056,-2.9647,-2.6575,-2.6575,-2.5859,-2.4636,-2.4636,-2.5433,-2.6939,-2.8141,-2.8701,-2.8844,-2.8701,-2.8701,-2.8916,-2.8916,-2.8988,-2.9202,-2.9202,-3.0926,-3.3242,-3.3242,-3.3312,-3.3521,-3.3521,-3.3659,-3.3817,-3.3817,-3.3817,-3.3817,-3.3817,-3.3817,-3.3817,-3.3817,-3.3817,-3.3817,-3.3817,-3.3659,-3.3085,-3.1508,-3.0761,-2.9617,-2.7,-2.6237,0.0,0.0,0.0,0.0,0.0,0.0,0.0,0.0,-2.2928,0.0,-2.2928,-2.2928,-2.2928,-2.2928,-2.2928,-2.2928,-2.2928,-2.2448,-2.2104,-2.1841,-2.1358,-2.1012,-2.0665,-2.0665,-2.0665,-2.0665,-2.0665,-2.0665,-2.0665,-2.0665,-2.0665,-2.0665,-2.0665,-2.0665,-2.0665,-2.0665,-2.0665,-2.0665,-2.0665,-2.0665,-2.0665,-2.0665,-2.0665,-2.0665,-2.4636,-2.4857,-2.5065,-2.5345,-2.6648,-2.8156,-2.9433,-3.2018,-3.3817,-3.3817,-3.3817,-3.3817,-3.3817,-3.3817,-3.378,-3.3725,-3.3707,-3.3707,-3.3707,-3.3651,-3.3633,-3.3707,-3.3633,-3.3596,-3.3596,-3.367,-3.235,0.0,-2.9527,-2.7996,-2.4991,-2.4991,-2.4857,-2.4636,-2.4636,-2.5433,-2.6794,-2.5859,-2.6137,-2.723,-2.5932,-2.6137,-2.7303,-2.7303,-2.8068,-2.9202,-2.9202,-2.956,-3.0004,-3.0004,-3.0855,-3.193,-3.193,-3.2806,-3.3817,-3.3817,-3.3817,-3.3817,-3.3817,-3.3817,-3.3817,-3.3817,-3.3817,-3.3817,-3.3817,-3.2806,-3.1437,-2.9932,-2.8526,-2.7431,-2.6924,-2.6574,0.0,0.0,0.0,0.0,0.0,0.0,0.0,0.0,0.0,-2.2928,-2.2928,-2.2928,-2.2928,-2.2928,-2.2928,-2.2928,-2.2928,-2.2242,-2.1829,-2.176,-2.1151,-2.0735,-2.0665,-2.0665,-2.0665,-2.0665,-2.0665,-2.0665,-2.0665,-2.0665,-2.0665,-2.0665,-2.0665,-2.0665,-2.0665,-2.0665,-2.0665,-2.0665,-2.0665,-2.0665,-2.0665,-2.0665,-2.0665,-2.0665,-2.4636,-2.4636,-2.4636,-2.4636,-2.5859,-2.7157,-2.7852,-2.9932,-3.2018,-3.359,-3.3817,-3.3817,-3.3817,-3.3817,-3.3817,-3.3817,-3.3817,-3.3817,-3.3817,-3.3817,-3.3817,-3.3817,-3.3817,-3.3817,-3.3817,-3.3015,-3.1508,-2.9202,-2.8429,-2.6867,-2.4636,-2.4636,-2.4636,-2.4636,-2.4636,-2.4991,-2.5639,-2.4918,-2.4991,-2.5639,-2.4931,-2.5065,-2.5712,-2.5712,-2.6137,-2.6779,-2.6779,-2.6779,-2.707,-2.8644,-2.9702,-3.0288,-3.0288,-3.0785,-3.1437,-3.1437,-3.2,-3.2596,-3.2596,-3.3155,-3.3817,-3.3817,-3.3817,-3.3817,-3.3817,-3.2596,-3.1067,-2.9488,-2.8012,-2.6648,-2.5859,-2.5461,-2.4897,-2.3762,0.0,0.0,0.0,0.0,-2.2928,0.0,0.0,0.0,0.0,-2.2928,-2.2928,-2.2928,-2.2928,-2.2928,-2.2928,-2.2173,-2.176,-2.176,-2.1081,-2.0665,-2.0665,-2.0665,-2.0665,-2.0665,-2.0665,-2.0665,-2.0665,-2.0665,-2.0665,-2.0665,-2.0665,-2.0665,-2.0665,-2.0665,-2.0665,-2.0665,-2.0665,-2.0665,-2.0665,-2.0665,-2.0665,-2.0665,-2.4743,-2.473,-2.4716,-2.4649,-2.5566,-2.6502,-2.6867,-2.7939,-2.9718,-3.2438,-3.2806,-3.2806,-3.2806,-3.2806,-3.2806,-3.2806,-3.2806,-3.2806,-3.2806,-3.2806,-3.2806,-3.2806,-3.2806,-3.2806,-3.2806,-3.1649,-3.0288,0.0,0.0,-2.6078,-2.4636,-2.4636,-2.4636,-2.4636,-2.4636,-2.4636,-2.4636,-2.4636,-2.4636,-2.4636,-2.4636,-2.4636,-2.4636,-2.4636,-2.4636,-2.4636,-2.4636,-2.4636,-2.4991,-2.7418,-2.8429,-2.8716,-2.8716,-2.8932,-2.9202,-2.9202,-3.0075,-3.0997,-3.0997,-3.1877,-3.2806,-3.2806,-3.2806,-3.2806,-3.2806,-3.1649,-3.0146,-2.8932,-2.7505,-2.6078,-2.4857,-2.4449,-2.4195,-2.3915,0.0,0.0,0.0,0.0,0.0,0.0,0.0,0.0,-2.2928,-2.2928,-2.2928,-2.2928,-2.2928,-2.2928,-2.2928,-2.2242,-2.1897,-2.1897,-2.122,-2.0804,-2.0804,-2.0735,-2.0665,-2.0665,-2.0665,-2.0665,-2.0665,-2.0665,-2.0665,-2.0665,-2.0665,-2.0665,-2.0665,-2.0665,-2.0665,-2.0665,-2.0665,-2.0665,-2.0665,-2.0665,-2.0665,-2.0665,-2.509,-2.5037,-2.4957,-2.469,-2.471,-2.5286,-2.6721,-2.7012,-2.7722,-2.9433,-2.9631,-2.9631,-2.9631,-2.9631,-2.9631,-2.9631,-2.9631,-2.9631,-2.9631,-2.9631,-2.9631,-2.9631,-2.9631,-2.9631,-2.9631,-2.9488,-2.8644,0.0,0.0,-2.6078,-2.4636,-2.4636,-2.4636,-2.4636,-2.4636,-2.4636,-2.4636,-2.4636,-2.4636,-2.4636,-2.4636,-2.4636,-2.4636,-2.4636,-2.4636,-2.4636,-2.4636,-2.4636,-2.4636,-2.4918,-2.5932,-2.7157,-2.7157,-2.8068,-2.9202,-2.9202,-2.9274,-2.9417,-2.9417,-2.9488,-2.9631,-2.9631,-2.9631,-2.9631,-2.9631,-2.8429,-2.7303,-2.7157,-2.5859,-2.4784,-2.4636,-2.4609,-2.4502,-2.4209,0.0,0.0,0.0,0.0,-2.2928,-2.2928,0.0,0.0,-2.2928,-2.2928,-2.2928,-2.2928,-2.2928,-2.2928,-2.2928,-2.2516,-2.2242,-2.2242,-2.1553,-2.1138,-2.1138,-2.0873,-2.0665,-2.0665,-2.0665,-2.0665,-2.0665,-2.0665,-2.0665,-2.0665,-2.0665,-2.0665,-2.0665,-2.0665,-2.0665,-2.0665,-2.0665,-2.0665,-2.0665,-2.0665,-2.0665,-2.0665,-2.5358,-2.5197,-2.5037,-2.493,-2.4756,-2.4784,-2.5433,-2.5506,-2.5712,-2.6357,-2.8068,-2.9202,-2.9202,-2.9202,-2.9202,-2.9202,-2.9202,-2.9202,-2.9202,-2.9202,-2.9202,-2.9202,-2.9202,-2.9202,-2.9202,-2.8285,-2.7505,0.0,0.0,-2.5212,-2.4636,-2.4636,-2.4636,-2.4636,-2.4636,-2.4636,-2.4636,-2.4636,-2.4636,-2.4636,-2.4636,-2.4636,-2.4636,-2.4636,-2.4636,-2.4636,-2.4636,-2.4636,-2.4636,-2.4636,-2.4991,-2.5506,-2.5506,-2.5932,-2.643,-2.643,-2.707,-2.7795,-2.7795,-2.8501,-2.9202,-2.9202,-2.9202,-2.9202,-2.9202,-2.7996,-2.6867,-2.6867,-2.5639,-2.4636,-2.4636,-2.4636,-2.4543,-2.4249,0.0,0.0,0.0,0.0,0.0,-2.2928,0.0,-2.2928,-2.2928,-2.2928,-2.2928,-2.2928,-2.2928,-2.2928,-2.2928,-2.231,-2.2104,-2.231,-2.1415,-2.1012,-2.1207,-2.0873,-2.0665,-2.0665,-2.0665,-2.0665,-2.0665,-2.0665,-2.0665,-2.0665,-2.0665,-2.0665,-2.0665,-2.0665,-2.0665,-2.0665,-2.0665,-2.0665,-2.0665,-2.0665,-2.0665,-2.0665,-2.5665,-2.5478,-2.5304,-2.5224,-2.497,-2.477,-2.477,-2.469,-2.4636,-2.4636,-2.6488,-2.7852,-2.7852,-2.7852,-2.7852,-2.7852,-2.7852,-2.7852,-2.7852,-2.7852,-2.7852,-2.7852,-2.7852,-2.7852,-2.7852,-2.6794,-2.6225,-2.6225,-2.5139,-2.4636,-2.4636,-2.4636,-2.4636,-2.4636,-2.4636,-2.4636,-2.4636,-2.4636,-2.4636,-2.4636,-2.4636,-2.4636,-2.4636,-2.4636,-2.4636,-2.4636,-2.4636,-2.4636,-2.4636,-2.4636,-2.4636,-2.4636,-2.4636,-2.4636,-2.4636,-2.4636,-2.5359,-2.6225,-2.6225,-2.6997,-2.7852,-2.7852,-2.7852,-2.7852,-2.7852,-2.6997,-2.6225,-2.6225,-2.5359,-2.4636,-2.4636,-2.4636,-2.4569,-2.4369,-2.4088,0.0,0.0,-2.3193,0.0,-2.2941,-2.2928,-2.2928,-2.2928,-2.2928,-2.2928,-2.2928,-2.2928,-2.2928,-2.2928,-2.231,-2.2035,-2.231,-2.1346,-2.0943,-2.1207,-2.0873,-2.0665,-2.0665,-2.0665,-2.0665,-2.0665,-2.0665,-2.0665,-2.0665,-2.0665,-2.0665,-2.0665,-2.0665,-2.0665,-2.0665,-2.0665,-2.0665,-2.0665,-2.0665,-2.0665,-2.0665,-2.609,-2.6023,-2.5852,-2.5558,-2.5264,-2.5077,-2.5077,-2.4823,-2.4636,-2.4636,-2.4636,-2.4636,-2.4636,-2.4636,-2.4636,-2.4636,-2.4636,-2.4636,-2.4636,-2.4636,-2.4636,-2.4636,-2.4636,-2.4636,-2.4636,-2.4636,-2.4636,-2.4636,0.0,-2.4636,-2.4636,-2.4636,-2.4636,-2.4636,-2.4636,-2.4636,-2.4636,-2.4636,-2.4636,-2.4636,-2.4636,-2.4636,-2.4636,-2.4636,-2.4636,-2.4636,-2.4636,-2.4636,-2.4636,-2.4636,-2.4636,-2.4636,-2.4636,-2.4636,-2.4636,-2.4636,-2.4636,-2.4636,-2.4636,-2.4636,-2.4636,-2.4636,-2.4636,-2.4636,-2.4636,-2.4636,-2.4636,-2.4636,-2.4636,-2.4636,-2.4636,-2.4636,-2.4636,-2.4636,-2.4382,0.0,0.0,-2.3514,0.0,-2.2899,-2.2928,-2.2928,-2.2928,-2.2928,-2.2928,-2.2928,-2.2928,-2.2928,-2.2928,-2.2516,-2.231,-2.231,-2.1553,-2.1207,-2.1207,-2.0873,-2.0665,-2.0665,-2.0665,-2.0665,-2.0665,-2.0665,-2.0665,-2.0665,-2.0665,-2.0665,-2.0665,-2.0665,-2.0665,-2.0665,-2.0665,-2.0665,-2.0665,-2.0665,-2.0665,-2.0665,-2.6266,-2.6092,-2.601,-2.5825,-2.5571,-2.5304,-2.5104,-2.4997,-2.4863,-2.4663,-2.4636,-2.4636,-2.4636,-2.4636,-2.4636,-2.4636,-2.4636,-2.4636,-2.4636,-2.4636,-2.4636,-2.4636,-2.4636,-2.4636,-2.4636,-2.4636,-2.4636,-2.4636,-2.4636,-2.4636,-2.4636,-2.4636,-2.4636,-2.4636,-2.4636,-2.4636,-2.4636,-2.4636,-2.4636,-2.4636,-2.4636,-2.4636,-2.4636,-2.4636,-2.4636,-2.4636,-2.4636,-2.4636,-2.4636,-2.4636,-2.4636,-2.4636,-2.4636,-2.4636,-2.4636,-2.4636,-2.4636,-2.4636,-2.4636,-2.4636,-2.4636,-2.4636,-2.4636,-2.4636,-2.4636,-2.4636,-2.4636,-2.4636,-2.4636,-2.4636,-2.4636,-2.4636,-2.4636,-2.4636,-2.4396,0.0,-2.3808,0.0,-2.3207,-2.2899,-2.2928,-2.2928,-2.2928,-2.2928,-2.2928,-2.2928,-2.2928,-2.2928,-2.2928,-2.231,-2.2035,-2.231,-2.1346,-2.0943,-2.1207,-2.0873,-2.0665,-2.0665,-2.0665,-2.0665,-2.0665,-2.0665,-2.0665,-2.0665,-2.0665,-2.0665,-2.0665,-2.0665,-2.0665,-2.0665,-2.0665,-2.0665,-2.0665,-2.0665,-2.0665,-2.0665,-2.6386,-2.6239,-2.6119,-2.6119,-2.5879,-2.5611,-2.5438,-2.5317,-2.513,-2.4836,-2.4796,-2.4756,-2.4649,-2.4636,-2.4636,-2.4636,-2.4636,-2.4636,-2.4636,-2.4636,-2.4636,-2.4636,-2.4636,-2.4636,-2.4636,-2.4636,-2.4636,-2.4636,-2.4636,-2.4636,-2.4636,-2.4636,-2.4636,-2.4636,-2.4636,-2.4636,-2.4636,-2.4636,-2.4636,-2.4636,-2.4636,-2.4636,-2.4636,-2.4636,-2.4636,-2.4636,-2.4636,-2.4636,-2.4636,-2.4636,-2.4636,-2.4636,-2.4636,-2.4636,-2.4636,-2.4636,-2.4636,-2.4636,-2.4636,-2.4636,-2.4636,-2.4636,-2.4636,-2.4636,-2.4636,-2.4636,-2.4636,-2.4636,-2.4636,-2.4636,-2.4636,-2.4636,-2.4636,-2.4636,-2.4489,-2.4222,-2.3834,0.0,-2.334,0.0,0.0,-2.2928,-2.2928,-2.2928,-2.2928,-2.2928,-2.2928,-2.2928,-2.2928,-2.2173,-2.1897,-2.2104,-2.122,-2.0804,-2.1012,-2.0804,-2.0665,-2.0665,-2.0665,-2.0665,-2.0665,-2.0665,-2.0665,-2.0665,-2.0665,-2.0665,-2.0665,-2.0665,-2.0665,-2.0665,-2.0665,-2.0665,-2.0665,-2.0665,-2.0665,-2.0665,-2.6386,-2.6386,-2.6386,-2.6386,-2.6159,-2.605,-2.6037,-2.5718,-2.5438,-2.5144,-2.509,-2.497,-2.469,-2.4649,-2.4636,-2.4636,-2.4636,-2.4636,-2.4636,-2.4636,-2.4636,-2.4636,-2.4636,-2.4636,-2.4636,-2.4636,-2.4636,-2.4636,-2.4636,-2.4636,-2.4636,-2.4636,-2.4636,-2.4636,-2.4636,-2.4636,-2.4636,-2.4636,-2.4636,-2.4636,-2.4636,-2.4636,-2.4636,-2.4636,-2.4636,-2.4636,-2.4636,-2.4636,-2.4636,-2.4636,-2.4636,-2.4636,-2.4636,-2.4636,-2.4636,-2.4636,-2.4636,-2.4636,-2.4636,-2.4636,-2.4636,-2.4636,-2.4636,-2.4636,-2.4636,-2.4636,-2.4636,-2.4636,-2.4636,-2.4636,-2.4636,-2.4636,-2.4636,-2.4636,-2.4636,-2.4436,-2.3875,-2.3781,-2.3554,-2.3035,-2.2873,-2.2928,-2.2928,-2.2928,-2.2928,-2.2928,-2.2928,-2.2928,-2.2928,-2.2173,-2.176,-2.176,-2.1081,-2.0665,-2.0665,-2.0596,-2.0527,-2.0527,-2.0665,-2.0665,-2.0665,-2.0665,-2.0665,-2.0665,-2.0665,-2.0665,-2.0665,-2.0665,-2.0665,-2.0665,-2.0665,-2.0665,-2.0665,-2.0665,-2.0665,-2.0665,-2.6386,-2.6386,-2.6386,-2.6386,-2.6333,-2.6213,-2.6063,-2.5892,-2.5745,-2.5451,-2.5224,-2.505,-2.4983,-2.477,-2.4636,-2.4636,-2.4636,-2.4636,-2.4636,-2.4636,-2.4636,-2.4636,-2.4636,-2.4636,-2.4636,-2.4636,-2.4636,-2.4636,-2.4636,-2.4636,-2.4636,-2.4636,-2.4636,-2.4636,-2.4636,-2.4636,-2.4636,-2.4636,-2.4636,-2.4636,-2.4636,-2.4636,-2.4636,-2.4636,-2.4636,-2.4636,-2.4636,-2.4636,-2.4636,-2.4636,-2.4636,-2.4636,-2.4636,-2.4636,-2.4636,-2.4636,-2.4636,-2.4636,-2.4636,-2.4636,-2.4636,-2.4636,-2.4636,-2.4636,-2.4636,-2.4636,-2.4636,-2.4636,-2.4636,-2.4636,-2.4636,-2.4636,-2.4636,-2.4636,-2.4636,-2.4516,-2.4155,-2.3915,-2.3634,-2.326,-2.3006,-2.2928,-2.2928,-2.2928,-2.2928,-2.2928,-2.2928,-2.2928,-2.2928,-2.2173,-2.176,-2.176,-2.1081,-2.0665,-2.0665,-1.9541,-1.8971,-1.8971,-2.0179,-2.0665,-2.0665,-2.0665,-2.0665,-2.0665,-2.0665,-2.0665,-2.0665,-2.0665,-2.0665,-2.0665,-2.0665,-2.0665,-2.0665,-2.0665,-2.0665,-2.0665,-2.6386,-2.6386,-2.6386,-2.6386,-2.6386,-2.6333,-2.6186,-2.6159,-2.6052,-2.5758,-2.5585,-2.5384,-2.5104,-2.493,-2.4783,-2.4649,-2.4636,-2.4636,-2.4636,-2.4636,-2.4636,-2.4636,-2.4636,-2.4636,-2.4636,-2.4636,-2.4636,-2.4636,-2.4636,-2.4636,-2.4636,-2.4636,-2.4636,-2.4636,-2.4636,-2.4636,-2.4636,-2.4636,-2.4636,-2.4636,-2.4636,-2.4636,-2.4636,-2.4636,-2.4636,-2.4636,-2.4636,-2.4636,-2.4636,-2.4636,-2.4636,-2.4636,-2.4636,-2.4636,-2.4636,-2.4636,-2.4636,-2.4636,-2.4636,-2.4636,-2.4636,-2.4636,-2.4636,-2.4636,-2.4636,-2.4636,-2.4636,-2.4636,-2.4636,-2.4636,-2.4636,-2.4636,-2.4636,-2.4636,-2.4636,-2.4529,-2.4249,-2.3955,-2.3661,-2.3367,-2.3046,-2.2928,-2.2928,-2.2928,-2.2928,-2.2928,-2.2928,-2.2928,-2.2928,-2.2173,-2.176,-2.176,-2.1081,-2.0388,-1.968,-1.8121,-1.7338,-1.7338,-1.8901,-1.968,-1.968,-2.0388,-2.0665,-2.0665,-2.0665,-2.0665,-2.0665,-2.0665,-2.0665,-2.0665,-2.0665,-2.0665,-2.0665,-2.0665,-2.0665,-2.0665,-2.6386,-2.6386,-2.6386,-2.6386,-2.6386,-2.6386,-2.6386,-2.6386,-2.6306,-2.6052,-2.6063,-2.5772,-2.5264,-2.513,-2.4983,-2.473,-2.4663,-2.4636,-2.4636,-2.4636,-2.4636,-2.4636,-2.4636,-2.4636,-2.4636,-2.4636,-2.4636,-2.4636,-2.4636,-2.4636,-2.4636,-2.4636,-2.4636,-2.4636,-2.4636,-2.4636,-2.4636,-2.4636,-2.4636,-2.4636,-2.4636,-2.4636,-2.4636,-2.4636,-2.4636,-2.4636,-2.4636,-2.4636,-2.4636,-2.4636,-2.4636,-2.4636,-2.4636,-2.4636,-2.4636,-2.4636,-2.4636,-2.4636,-2.4636,-2.4636,-2.4636,-2.4636,-2.4636,-2.4636,-2.4636,-2.4636,-2.4636,-2.4636,-2.4636,-2.4636,-2.4636,-2.4636,-2.4636,-2.4636,-2.4636,-2.4556,-2.4302,-2.4022,-2.3728,-2.3434,-2.3126,-2.2913,-2.2928,-2.2928,-2.2928,-2.2928,-2.2928,-2.2928,-2.2928,-2.2173,-2.1691,-2.1484,-2.0723,-1.9541,-1.777,-1.6625,-1.599,-1.5778,-1.7559,-1.8412,-1.8482,-2.0028,-2.0665,-2.0665,-2.0665,-2.0665,-2.0665,-2.0665,-2.0665,-2.0665,-2.0665,-2.0665,-2.0665,-2.0665,-2.0665,-2.0665,-2.6386,-2.6386,-2.6386,-2.6386,-2.6386,-2.6386,-2.6386,-2.6386,-2.6373,-2.6333,-2.6106,-2.5996,-2.5903,-2.5371,-2.5064,-2.501,-2.4783,-2.4636,-2.4636,-2.4636,-2.4636,-2.4636,-2.4636,-2.4636,-2.4636,-2.4636,-2.4636,-2.4636,-2.4636,-2.4636,-2.4636,-2.4636,-2.4636,-2.4636,-2.4636,-2.4636,-2.4636,-2.4636,-2.4636,-2.4636,-2.4636,-2.4636,-2.4636,-2.4636,-2.4636,-2.4636,-2.4636,-2.4636,-2.4636,-2.4636,-2.4636,-2.4636,-2.4636,-2.4636,-2.4636,-2.4636,-2.4636,-2.4636,-2.4636,-2.4636,-2.4636,-2.4636,-2.4636,-2.4636,-2.4636,-2.4636,-2.4636,-2.4636,-2.4636,-2.4636,-2.4636,-2.4636,-2.4636,-2.4636,-2.4636,-2.4623,-2.4569,-2.4315,-2.4035,-2.3741,-2.3434,-2.3153,-2.2886,-2.2928,-2.2928,-2.2928,-2.2928,-2.2928,-2.2928,-2.2173,-2.1195,-1.9924,-1.917,-1.7419,-1.4662,-1.5566,-1.5495,-1.4307,-1.7067,-1.8412,-1.8482,-2.0028,-2.0665,-2.0665,-2.0665,-2.0665,-2.0665,-2.0665,-2.0665,-2.0665,-2.0665,-2.0665,-2.0665,-2.0665,-2.0665,-2.0665,-2.6386,-2.6386,-2.6386,-2.6386,-2.6386,-2.6386,-2.6386,-2.6386,-2.6386,-2.6386,-2.6279,-2.6132,-2.605,-2.5571,-2.5251,-2.509,-2.481,-2.4636,-2.4636,-2.4636,-2.4636,-2.4636,-2.4636,-2.4636,-2.4636,-2.4636,-2.4636,-2.4636,-2.4636,-2.4636,-2.4636,-2.4636,-2.4636,-2.4636,-2.4636,-2.4636,-2.4636,-2.4636,-2.4636,-2.4636,-2.4636,-2.4636,-2.4636,-2.4636,-2.4636,-2.4636,-2.4636,-2.4636,-2.4636,-2.4636,-2.4636,-2.4636,-2.4636,-2.4636,-2.4636,-2.4636,-2.4636,-2.4636,-2.4636,-2.4636,-2.4636,-2.4636,-2.4636,-2.4636,-2.4636,-2.4636,-2.4636,-2.4636,-2.4636,-2.4636,-2.4636,-2.4636,-2.4636,-2.4636,-2.4636,-2.4636,-2.4636,-2.4382,-2.4102,-2.3808,-2.3514,-2.3207,-2.2954,-2.2928,-2.2928,-2.2928,-2.2928,-2.2516,-2.1747,-2.0975,-1.9854,-1.8379,-1.6775,-1.5301,-1.388,-1.3737,-1.3737,-1.3951,-1.6141,-1.7619,-1.8482,-2.0028,-2.0665,-2.0665,-2.0665,-2.0665,-2.0665,-2.0665,-2.0665,-2.0665,-2.0665,-2.0665,-2.0665,-2.0665,-2.0665,-2.0665,-2.6386,-2.6386,-2.6386,-2.6386,-2.6386,-2.6386,-2.6386,-2.6386,-2.6386,-2.6386,-2.6386,-2.6306,-2.6079,-2.5732,-2.5424,-2.5197,-2.485,-2.4636,-2.4636,-2.4636,-2.4636,-2.4636,-2.4636,-2.4636,-2.4636,-2.4636,-2.4636,-2.4636,-2.4636,-2.4636,-2.4636,-2.4636,-2.4636,-2.4636,-2.4636,-2.4636,-2.4636,-2.4636,-2.4636,-2.4636,-2.4636,-2.4636,-2.4636,-2.4636,-2.4636,-2.4636,-2.4636,-2.4636,-2.4636,-2.4636,-2.4636,-2.4636,-2.4636,-2.4636,-2.4636,-2.4636,-2.4636,-2.4636,-2.4636,-2.4636,-2.4636,-2.4636,-2.4636,-2.4636,-2.4636,-2.4636,-2.4636,-2.4636,-2.4636,-2.4636,-2.4636,-2.4636,-2.4636,-2.4636,-2.4636,-2.4636,-2.4636,-2.4449,-2.4195,-2.3901,-2.3607,-2.3313,-2.3006,-2.2625,-2.2366,-2.2366,-2.2022,-2.1321,-2.0132,-1.9437,-1.8309,-1.6695,-1.4867,-1.3737,-1.3389,-1.2187,-1.2395,-1.3951,-1.5425,-1.6906,-1.8482,-2.0028,-2.0665,-2.0665,-2.0665,-2.0665,-2.0665,-2.0665,-2.0665,-2.0665,-2.0665,-2.0665,-2.0665,-2.0665,-2.0665,-2.0665,-2.6386,-2.6386,-2.6386,-2.6386,-2.6386,-2.6386,-2.6386,-2.6386,-2.6386,-2.6386,-2.6386,-2.6386,-2.636,-2.5852,-2.5504,-2.5478,-2.4957,-2.4636,-2.4636,-2.4636,-2.4636,-2.4636,-2.4636,-2.4636,-2.4636,-2.4636,-2.4636,-2.4636,-2.4636,-2.4636,-2.4636,-2.4636,-2.4636,-2.4636,-2.4636,-2.4636,-2.4636,-2.4636,-2.4636,-2.4636,-2.4636,-2.4636,-2.4636,-2.4636,-2.4636,-2.4636,-2.4636,-2.4636,-2.4636,-2.4636,-2.4636,-2.4636,-2.4636,-2.4636,-2.4636,-2.4636,-2.4636,-2.4636,-2.4636,-2.4636,-2.4636,-2.4636,-2.4636,-2.4636,-2.4636,-2.4636,-2.4636,-2.4636,-2.4636,-2.4636,-2.4636,-2.4636,-2.4636,-2.4636,-2.4636,-2.4636,-2.4636,-2.4549,-2.4489,-2.4209,-2.3915,-2.3621,-2.3327,-2.1761,-2.0768,-2.0768,-1.9507,-1.8659,-1.8589,-1.818,-1.6916,-1.4662,-1.4164,-1.3174,-1.1763,-1.1691,-1.2395,-1.3951,-1.5425,-1.6906,-1.8482,-2.0028,-2.0665,-2.0665,-2.0665,-2.0665,-2.0665,-2.0665,-2.0665,-2.0665,-2.0665,-2.0665,-2.0665,-2.0665,-2.0665,-2.0665,-2.6386,-2.6386,-2.6386,-2.6386,-2.6386,-2.6386,-2.6386,-2.6386,-2.6386,-2.6386,-2.6386,-2.6386,-2.6386,-2.6026,-2.5718,-2.5531,-2.5144,-2.4836,-2.4649,-2.4636,-2.4636,-2.4636,-2.4636,-2.4636,-2.4636,-2.4636,-2.4636,-2.4636,-2.4636,-2.4636,-2.4636,-2.4636,-2.4636,-2.4636,-2.4636,-2.4636,-2.4636,-2.4636,-2.4636,-2.4636,-2.4636,-2.4636,-2.4636,-2.4636,-2.4636,-2.4636,-2.4636,-2.4636,-2.4636,-2.4636,-2.4636,-2.4636,-2.4636,-2.4636,-2.4636,-2.4636,-2.4636,-2.4636,-2.4636,-2.4636,-2.4636,-2.4636,-2.4636,-2.4636,-2.4636,-2.4636,-2.4636,-2.4636,-2.4636,-2.4636,-2.4636,-2.4636,-2.4636,-2.4636,-2.4636,-2.4636,-2.4636,-2.4636,-2.4529,-2.4235,-2.3941,-2.3293,-2.2064,-2.1135,-2.0201,-1.9298,-1.8729,-1.7959,-1.6987,-1.5504,-1.4093,-1.2681,-1.2538,-1.2187,-1.1619,-1.1619,-1.2395,-1.3951,-1.5425,-1.6906,-1.8482,-2.0028,-2.0665,-2.0665,-2.0665,-2.0665,-2.0665,-2.0665,-2.0665,-2.0665,-2.0665,-2.0665,-2.0665,-2.0665,-2.0665,-2.0665,-2.6386,-2.6386,-2.6386,-2.6386,-2.6386,-2.6386,-2.6386,-2.6386,-2.6386,-2.6386,-2.6386,-2.6386,-2.6386,-2.6132,-2.5838,-2.5545,-2.5251,-2.4957,-2.4649,-2.4636,-2.4636,-2.4636,-2.4636,-2.4636,-2.4636,-2.4636,-2.4636,-2.4636,-2.4636,-2.4636,-2.4636,-2.4636,-2.4636,-2.4636,-2.4636,-2.4636,-2.4636,-2.4636,-2.4636,-2.4636,-2.4636,-2.4636,-2.4636,-2.4636,-2.4636,-2.4636,-2.4636,-2.4636,-2.4636,-2.4636,-2.4636,-2.4636,-2.4636,-2.4636,-2.4636,-2.4636,-2.4636,-2.4636,-2.4636,-2.4636,-2.4636,-2.4636,-2.4636,-2.4636,-2.4636,-2.4636,-2.4636,-2.4636,-2.4636,-2.4636,-2.4636,-2.4636,-2.4636,-2.4636,-2.4636,-2.4636,-2.4636,-2.4636,-2.4569,-2.4369,-2.4088,-2.3236,-2.152,-2.0533,-1.9411,-1.7853,-1.7298,-1.6494,-1.5452,-1.3745,-1.2538,-1.1972,-1.1763,-1.1619,-1.1619,-1.1619,-1.2395,-1.388,-1.4937,-1.6494,-1.8412,-1.9471,-2.0249,-2.0665,-2.0665,-2.0665,-2.0665,-2.0665,-2.0665,-2.0665,-2.0665,-2.0665,-2.0678,-2.0762,-2.0868,-2.088,-2.6386,-2.6386,-2.6386,-2.6386,-2.6386,-2.6386,-2.6386,-2.6386,-2.6386,-2.6386,-2.6386,-2.6386,-2.6386,-2.6132,-2.5838,-2.5545,-2.5251,-2.4957,-2.4649,-2.4636,-2.4636,-2.4636,-2.4636,-2.4636,-2.4636,-2.4636,-2.4636,-2.4636,-2.4636,-2.4636,-2.4636,-2.4636,-2.4636,-2.4636,-2.4636,-2.4636,-2.4636,-2.4636,-2.4636,-2.4636,-2.4636,-2.4636,-2.4636,-2.4636,-2.4636,-2.4636,-2.4636,-2.4636,-2.4636,-2.4636,-2.4636,-2.4636,-2.4636,-2.4636,-2.4636,-2.4636,-2.4636,-2.4636,-2.4636,-2.4636,-2.4636,-2.4636,-2.4636,-2.4636,-2.4636,-2.4636,-2.4636,-2.4636,-2.4636,-2.4636,-2.4636,-2.4636,-2.4636,-2.4636,-2.4636,-2.4636,-2.4636,-2.4636,-2.4636,-2.4562,-2.4309,-2.3528,-2.191,-1.9964,-1.8092,-1.6525,-1.4854,-1.3904,-1.3904,-1.3182,-1.2824,-1.2824,-1.2043,-1.1619,-1.1619,-1.1619,-1.2395,-1.388,-1.388,-1.5434,-1.8412,-1.8412,-1.9251,-2.0665,-2.0665,-2.0665,-2.0665,-2.0665,-2.0665,-2.0665,-2.0747,-2.0747,-2.0702,-2.1038,-2.1135,-2.1171,-2.6386,-2.6386,-2.6386,-2.6386,-2.6386,-2.6386,-2.6386,-2.6386,-2.6386,-2.6386,-2.6386,-2.6386,-2.6386,-2.6132,-2.5838,-2.5545,-2.5251,-2.4957,-2.4649,-2.4636,-2.4636,-2.4636,-2.4636,-2.4636,-2.4636,-2.4636,-2.4636,-2.4636,-2.4636,-2.4636,-2.4636,-2.4636,-2.4636,-2.4636,-2.4636,-2.4636,-2.4636,-2.4636,-2.4636,-2.4636,-2.4636,-2.4636,-2.4636,-2.4636,-2.4636,-2.4636,-2.4636,-2.4636,-2.4636,-2.4636,-2.4636,-2.4636,-2.4636,-2.4636,-2.4636,-2.4636,-2.4636,-2.4636,-2.4636,-2.4636,-2.4636,-2.4636,-2.4636,-2.4636,-2.4636,-2.4636,-2.4636,-2.4636,-2.4636,-2.4636,-2.4636,-2.4636,-2.4636,-2.4636,-2.4636,-2.4636,-2.4636,-2.4636,-2.4179,-2.3054,-2.2657,-2.1458,-1.8789,-1.7786,-1.6613,-1.4971,-1.4289,-1.3682,-1.3182,-1.2896,-1.2538,-1.1972,-1.1763,-1.1619,-1.1619,-1.1619,-1.1828,-1.233,-1.3389,-1.4937,-1.6836,-1.791,-1.9251,-2.0665,-2.0665,-2.0665,-2.0678,-2.0871,-2.1013,-2.1038,-2.116,-2.1233,-2.1245,-2.1329,-2.1354,-2.1366,-2.6386,-2.6386,-2.6386,-2.6386,-2.6386,-2.6386,-2.6386,-2.6386,-2.6386,-2.6386,-2.6386,-2.6386,-2.6386,-2.6132,-2.5838,-2.5545,-2.5144,-2.4823,-2.4649,-2.4636,-2.4636,-2.4636,-2.4636,-2.4636,-2.4636,-2.4636,-2.4636,-2.4636,-2.4636,-2.4636,-2.4636,-2.4636,-2.4636,-2.4636,-2.4636,-2.4636,-2.4636,-2.4636,-2.4636,-2.4636,-2.4636,-2.4636,-2.4636,-2.4636,-2.4636,-2.4636,-2.4636,-2.4636,-2.4636,-2.4636,-2.4636,-2.4636,-2.4636,-2.4636,-2.4636,-2.4636,-2.4636,-2.4636,-2.4636,-2.4636,-2.4636,-2.4636,-2.4636,-2.4636,-2.4636,-2.4636,-2.4636,-2.4636,-2.4636,-2.4636,-2.4636,-2.4636,-2.4636,-2.4636,-2.4636,-2.4414,-2.3735,-2.3661,-2.2967,-2.1239,-2.0877,-1.9745,-1.7199,-1.6787,-1.6001,-1.4367,-1.4172,-1.3825,-1.3245,-1.3027,-1.2663,-1.2015,-1.1869,-1.1796,-1.1796,-1.1796,-1.1735,-1.1619,-1.2538,-1.4093,-1.6131,-1.7147,-1.8834,-2.0822,-2.0943,-2.0991,-2.1003,-2.116,-2.1292,-2.1245,-2.1414,-2.1474,-2.1486,-2.1595,-2.1631,-2.1643,-2.6386,-2.6386,-2.6386,-2.6386,-2.6386,-2.6386,-2.6386,-2.6386,-2.6386,-2.6386,-2.6386,-2.6386,-2.6386,-2.6106,-2.5812,-2.5531,-2.497,-2.4636,-2.4636,-2.4636,-2.4636,-2.4636,-2.4636,-2.4636,-2.4636,-2.4636,-2.4636,-2.4636,-2.4636,-2.4636,-2.4636,-2.4636,-2.4636,-2.4636,-2.4636,-2.4636,-2.4636,-2.4636,-2.4636,-2.4636,-2.4636,-2.4636,-2.4636,-2.4636,-2.4636,-2.4636,-2.4636,-2.4636,-2.4636,-2.4636,-2.4636,-2.4636,-2.4636,-2.4636,-2.4636,-2.4636,-2.4636,-2.4636,-2.4636,-2.4636,-2.4636,-2.4636,-2.4636,-2.4636,-2.4636,-2.4636,-2.4636,-2.4636,-2.4636,-2.4636,-2.4636,-2.4636,-2.4562,-2.4414,-2.4414,-2.3809,-2.2223,-2.1924,-2.1239,-1.9197,-1.896,-1.829,-1.6703,-1.637,-1.5733,-1.4539,-1.4366,-1.4136,-1.378,-1.3327,-1.2955,-1.2582,-1.2284,-1.2135,-1.2135,-1.2135,-1.1925,-1.166,-1.166,-1.3149,-1.5975,-1.6324,-1.8144,-2.0958,-2.1294,-2.1474,-2.1486,-2.151,-2.151,-2.151,-2.1547,-2.1547,-2.1583,-2.1824,-2.1909,-2.1933,-2.6386,-2.6386,-2.6386,-2.6386,-2.6386,-2.6386,-2.6386,-2.6386,-2.6386,-2.6386,-2.6386,-2.6386,-2.6386,-2.5919,-2.5585,-2.5518,-2.497,-2.4636,-2.4636,-2.4636,-2.4636,-2.4636,-2.4636,-2.4636,-2.4636,-2.4636,-2.4636,-2.4636,-2.4636,-2.4636,-2.4636,-2.4636,-2.4636,-2.4636,-2.4636,-2.4636,-2.4636,-2.4636,-2.4636,-2.4636,-2.4636,-2.4636,-2.4636,-2.4636,-2.4636,-2.4636,-2.4636,-2.4636,-2.4636,-2.4636,-2.4636,-2.4636,-2.4636,-2.4636,-2.4636,-2.4636,-2.4636,-2.4636,-2.4636,-2.4636,-2.4636,-2.4636,-2.4636,-2.4636,-2.4636,-2.4636,-2.4636,-2.4636,-2.4636,-2.4636,-2.4636,-2.4636,-2.4179,-2.2905,-2.2744,-2.2148,-2.0564,-2.0026,-1.9197,-1.754,-1.7074,-1.6168,-1.4499,-1.4265,-1.4299,-1.4576,-1.3925,-1.3401,-1.3327,-1.2955,-1.2582,-1.221,-1.2135,-1.2135,-1.2135,-1.2135,-1.2033,-1.1965,-1.1965,-1.2912,-1.4725,-1.6086,-1.7719,-1.9554,-2.0934,-2.1474,-2.1498,-2.1704,-2.1788,-2.18,-2.2005,-2.2164,-2.2102,-2.2162,-2.2174,-2.2186,-2.6386,-2.6386,-2.6386,-2.6386,-2.6386,-2.6386,-2.6386,-2.6386,-2.6386,-2.6386,-2.6386,-2.6386,-2.6386,-2.5865,-2.5398,-2.5117,-2.481,-2.4636,-2.4636,-2.4636,-2.4636,-2.4636,-2.4636,-2.4636,-2.4636,-2.4636,-2.4636,-2.4636,-2.4636,-2.4636,-2.4636,-2.4636,-2.4636,-2.4636,-2.4636,-2.4636,-2.4636,-2.4636,-2.4636,-2.4636,-2.4636,-2.4636,-2.4636,-2.4636,-2.4636,-2.4636,-2.4636,-2.4636,-2.4636,-2.4636,-2.4636,-2.4636,-2.4636,-2.4636,-2.4636,-2.4636,-2.4636,-2.4636,-2.4636,-2.4636,-2.4636,-2.4636,-2.4636,-2.4636,-2.4636,-2.4636,-2.4636,-2.4636,-2.4636,-2.4341,-2.3574,-2.3426,-2.2905,-2.1314,-2.0864,-2.0177,-1.8603,-1.7986,-1.7074,-1.5259,-1.4875,-1.4414,-1.3505,-1.3509,-1.3763,-1.4221,-1.3763,-1.3332,-1.3181,-1.2953,-1.265,-1.2271,-1.2271,-1.2271,-1.2271,-1.2271,-1.2271,-1.2271,-1.2128,-1.2866,-1.4334,-1.6194,-1.7792,-1.9295,-2.1117,-2.1848,-2.186,-2.2005,-2.2054,-2.2066,-2.2285,-2.2334,-2.2334,-2.2334,-2.2334,-2.2334,-2.6386,-2.6386,-2.6386,-2.6386,-2.6386,-2.6386,-2.6386,-2.6386,-2.6386,-2.6386,-2.6386,-2.6373,-2.6319,-2.5785,-2.5224,-2.469,-2.4636,-2.4636,-2.4636,-2.4636,-2.4636,-2.4636,-2.4636,-2.4636,-2.4636,-2.4636,-2.4636,-2.4636,-2.4636,-2.4636,-2.4636,-2.4636,-2.4636,-2.4636,-2.4636,-2.4636,-2.4636,-2.4636,-2.4636,-2.4636,-2.4636,-2.4636,-2.4636,-2.4636,-2.4636,-2.4636,-2.4636,-2.4636,-2.4636,-2.4636,-2.4636,-2.4636,-2.4636,-2.4636,-2.4636,-2.4636,-2.4636,-2.4636,-2.4636,-2.4636,-2.4636,-2.4636,-2.4636,-2.4636,-2.4636,-2.4636,-2.4636,-2.4636,-2.4414,-2.3809,-2.2446,-2.1999,-2.1239,-1.9661,-1.9046,-1.8214,-1.6635,-1.5939,-1.502,-1.3274,-1.3042,-1.3042,-1.312,-1.3351,-1.3583,-1.3667,-1.3583,-1.3351,-1.312,-1.3042,-1.2811,-1.2501,-1.2501,-1.2501,-1.2501,-1.2501,-1.2501,-1.2501,-1.225,-1.2953,-1.4505,-1.6367,-1.8021,-1.9531,-2.148,-2.2334,-2.2334,-2.2334,-2.2334,-2.2334,-2.2334,-2.2334,-2.2334,-2.2334,-2.2334,-2.2334,-2.6386,-2.6386,-2.6386,-2.6386,-2.6386,-2.6386,-2.6386,-2.6386,-2.6386,-2.6386,-2.6386,-2.6293,-2.6039,-2.5491,-2.4997,-2.4663,-2.4636,-2.4636,-2.4636,-2.4636,-2.4636,-2.4636,-2.4636,-2.4636,-2.4636,-2.4636,-2.4636,-2.4636,-2.4636,-2.4636,-2.4636,-2.4636,-2.4636,-2.4636,-2.4636,-2.4636,-2.4636,-2.4636,-2.4636,-2.4636,-2.4636,-2.4636,-2.4636,-2.4636,-2.4636,-2.4636,-2.4636,-2.4636,-2.4636,-2.4636,-2.4636,-2.4636,-2.4636,-2.4636,-2.4636,-2.4636,-2.4636,-2.4636,-2.4636,-2.4636,-2.4636,-2.4636,-2.4636,-2.4636,-2.4636,-2.4636,-2.4636,-2.4636,-2.35,-2.2446,-2.2223,-2.1089,-1.9585,-1.8006,-1.7398,-1.6559,-1.4968,-1.4045,-1.3428,-1.312,-1.2811,-1.2733,-1.3042,-1.2811,-1.2965,-1.3667,-1.3042,-1.2811,-1.3042,-1.2733,-1.2579,-1.2501,-1.2501,-1.2501,-1.2501,-1.2501,-1.2501,-1.2501,-1.2461,-1.3279,-1.4871,-1.6563,-1.825,-1.9844,-2.1562,-2.2334,-2.2334,-2.2334,-2.2334,-2.2334,-2.2334,-2.2334,-2.2334,-2.2334,-2.2334,-2.2334,-2.6386,-2.6386,-2.6386,-2.6386,-2.6386,-2.6386,-2.6386,-2.6386,-2.6386,-2.6386,-2.6386,-2.6279,-2.6063,-2.5424,-2.4957,-2.4663,-2.4636,-2.4636,-2.4636,-2.4636,-2.4636,-2.4636,-2.4636,-2.4636,-2.4636,-2.4636,-2.4636,-2.4636,-2.4636,-2.4636,-2.4636,-2.4636,-2.4636,-2.4636,-2.4636,-2.4636,-2.4636,-2.4636,-2.4636,-2.4636,-2.4636,-2.4636,-2.4636,-2.4636,-2.4636,-2.4636,-2.4636,-2.4636,-2.4636,-2.4636,-2.4636,-2.4636,-2.4636,-2.4636,-2.4636,-2.4636,-2.4636,-2.4636,-2.4636,-2.4636,-2.4636,-2.4636,-2.4636,-2.4636,-2.4636,-2.4636,-2.4327,-2.3426,-2.267,-2.1625,-1.9811,-1.8905,-1.793,-1.6339,-1.5727,-1.5198,-1.4515,-1.3667,-1.3042,-1.2811,-1.2579,-1.2579,-1.2733,-1.2579,-1.2656,-1.2965,-1.2733,-1.2579,-1.2733,-1.2579,-1.2501,-1.2501,-1.2501,-1.2501,-1.2501,-1.2501,-1.2501,-1.2501,-1.2501,-1.3344,-1.4944,-1.6617,-1.829,-1.9887,-2.1574,-2.2334,-2.2334,-2.2334,-2.2334,-2.2334,-2.2334,-2.2334,-2.2334,-2.2334,-2.2334,-2.2334]},{"header":{"parameterUnit":"m.s-1","parameterCategory":1,"la1":30.6,"la2":28.766,"lo1":-90.7593,"lo2":-88.6598,"dy":0.0162,"dx":0.0183,"nx":116,"ny":114,"refTime":"2023-05-08T12:00:00:Z","depth":0,"parameterNumber":3,"parameterNumberName":"V-component_of_WINDS"},"data":[0.0,0.0,0.0,0.0,0.0,0.0,0.0,0.0,0.0,0.0,0.0,0.0,0.0,0.0,0.0,0.0,0.0,0.0,0.0,0.0,0.0,0.0,0.0,0.0,0.0,0.0,0.0,0.0,0.0,0.0,0.0,0.0,0.0,0.0,0.0,0.0,0.0,0.0,0.0,0.0,0.0,0.0,0.0,0.0,0.0,0.0,0.0,0.0,0.0,0.0,0.0,0.0,0.0,0.0,0.0,0.0,0.0,0.0,0.0,0.0,0.0,0.0,0.0,0.0,0.0,0.0,0.0,0.0,0.0,0.0,0.0,0.0,0.0,0.0,0.0,0.0,0.0,0.0,0.0,0.0,0.0,0.0,0.0,0.0,0.0,0.0,0.0,0.0,0.0,0.0,0.0,0.0,0.0,0.0,0.0,0.0,0.0,0.0,0.0,0.0,0.0,0.0,0.0,0.0,0.0,0.0,0.0,0.0,0.0,0.0,0.0,0.0,0.0,0.0,0.0,0.0,0.0,0.0,0.0,0.0,0.0,0.0,0.0,0.0,0.0,0.0,0.0,0.0,0.0,0.0,0.0,0.0,0.0,0.0,0.0,0.0,0.0,0.0,0.0,0.0,0.0,0.0,0.0,0.0,0.0,0.0,0.0,0.0,0.0,0.0,0.0,0.0,0.0,0.0,0.0,0.0,0.0,0.0,0.0,0.0,0.0,0.0,0.0,0.0,0.0,0.0,0.0,0.0,0.0,0.0,0.0,0.0,0.0,0.0,0.0,0.0,0.0,0.0,0.0,0.0,0.0,0.0,0.0,0.0,0.0,0.0,0.0,0.0,0.0,0.0,0.0,0.0,0.0,0.0,0.0,0.0,0.0,0.0,0.0,0.0,0.0,0.0,0.0,0.0,0.0,0.0,0.0,0.0,0.0,0.0,0.0,0.0,0.0,0.0,0.0,0.0,0.0,0.0,0.0,0.0,0.0,0.0,0.0,0.0,0.0,0.0,0.0,0.0,0.0,0.0,0.0,0.0,0.0,0.0,0.0,0.0,0.0,0.0,0.0,0.0,0.0,0.0,0.0,0.0,0.0,0.0,0.0,0.0,0.0,0.0,0.0,0.0,0.0,0.0,0.0,0.0,0.0,0.0,0.0,0.0,0.0,0.0,0.0,0.0,0.0,0.0,0.0,0.0,0.0,0.0,0.0,0.0,0.0,0.0,0.0,0.0,0.0,0.0,0.0,0.0,0.0,0.0,0.0,0.0,0.0,0.0,0.0,0.0,0.0,0.0,0.0,0.0,0.0,0.0,0.0,0.0,0.0,0.0,0.0,0.0,0.0,0.0,0.0,0.0,0.0,0.0,0.0,0.0,0.0,0.0,0.0,0.0,0.0,0.0,0.0,0.0,0.0,0.0,0.0,0.0,0.0,0.0,0.0,0.0,0.0,0.0,0.0,0.0,0.0,0.0,0.0,0.0,0.0,0.0,0.0,0.0,0.0,0.0,0.0,0.0,0.0,0.0,0.0,0.0,0.0,0.0,0.0,0.0,0.0,0.0,0.0,0.0,0.0,0.0,0.0,0.0,0.0,0.0,0.0,0.0,0.0,0.0,0.0,0.0,0.0,0.0,0.0,0.0,0.0,0.0,0.0,0.0,0.0,0.0,0.0,0.0,0.0,0.0,0.0,0.0,0.0,0.0,0.0,0.0,0.0,0.0,0.0,0.0,0.0,0.0,0.0,0.0,0.0,0.0,0.0,0.0,0.0,0.0,0.0,0.0,0.0,0.0,0.0,0.0,0.0,0.0,0.0,0.0,0.0,0.0,0.0,0.0,0.0,0.0,0.0,0.0,0.0,0.0,0.0,0.0,0.0,0.0,0.0,0.0,0.0,0.0,0.0,0.0,0.0,0.0,0.0,0.0,0.0,0.0,0.0,0.0,0.0,0.0,0.0,0.0,0.0,0.0,0.0,0.0,0.0,0.0,0.0,0.0,0.0,0.0,0.0,0.0,0.0,0.0,0.0,0.0,0.0,0.0,0.0,0.0,0.0,0.0,0.0,0.0,0.0,0.0,0.0,0.0,0.0,0.0,0.0,0.0,0.0,0.0,0.0,0.0,0.0,0.0,0.0,0.0,0.0,0.0,0.0,0.0,0.0,0.0,0.0,0.0,0.0,0.0,0.0,0.0,0.0,0.0,0.0,0.0,0.0,0.0,0.0,0.0,0.0,0.0,0.0,0.0,0.0,0.0,0.0,0.0,0.0,0.0,0.0,0.0,0.0,0.0,0.0,0.0,0.0,0.0,0.0,0.0,0.0,0.0,0.0,0.0,0.0,0.0,0.0,0.0,0.0,0.0,0.0,0.0,0.0,0.0,0.0,0.0,0.0,0.0,0.0,0.0,0.0,0.0,0.0,0.0,0.0,0.0,0.0,0.0,0.0,0.0,0.0,0.0,0.0,0.0,0.0,0.0,0.0,0.0,0.0,0.0,0.0,0.0,0.0,0.0,0.0,0.0,0.0,0.0,0.0,0.0,0.0,0.0,0.0,0.0,0.0,0.0,0.0,0.0,0.0,0.0,0.0,0.0,0.0,0.0,0.0,0.0,0.0,0.0,0.0,0.0,0.0,0.0,0.0,0.0,0.0,0.0,0.0,0.0,0.0,0.0,0.0,0.0,0.0,0.0,0.0,0.0,0.0,0.0,0.0,0.0,0.0,0.0,0.0,0.0,0.0,0.0,0.0,0.0,0.0,0.0,0.0,0.0,0.0,0.0,0.0,0.0,0.0,0.0,0.0,0.0,0.0,0.0,0.0,0.0,0.0,0.0,0.0,0.0,0.0,0.0,0.0,0.0,0.0,0.0,0.0,0.0,0.0,0.0,0.0,0.0,0.0,0.0,0.0,0.0,0.0,0.0,0.0,0.0,0.0,0.0,0.0,0.0,0.0,0.0,0.0,0.0,0.0,0.0,0.0,0.0,0.0,0.0,0.0,0.0,0.0,0.0,0.0,0.0,0.0,0.0,0.0,0.0,0.0,0.0,0.0,0.0,0.0,0.0,0.0,0.0,0.0,0.0,0.0,0.0,0.0,0.0,0.0,0.0,0.0,0.0,0.0,0.0,0.0,0.0,0.0,0.0,0.0,0.0,0.0,0.0,0.0,0.0,0.0,0.0,0.0,0.0,0.0,0.0,0.0,0.0,0.0,0.0,0.0,0.0,0.0,0.0,0.0,0.0,0.0,0.0,0.0,0.0,0.0,0.0,0.0,0.0,0.0,0.0,0.0,0.0,0.0,0.0,0.0,0.0,0.0,0.0,0.0,0.0,0.0,0.0,0.0,0.0,0.0,0.0,0.0,0.0,0.0,0.0,0.0,0.0,0.0,0.0,0.0,0.0,0.0,0.0,0.0,0.0,0.0,0.0,0.0,0.0,0.0,0.0,0.0,0.0,0.0,0.0,0.0,0.0,0.0,0.0,0.0,0.0,0.0,0.0,0.0,0.0,0.0,0.0,0.0,0.0,0.0,0.0,0.0,0.0,0.0,0.0,0.0,0.0,0.0,0.0,0.0,0.0,0.0,0.0,0.0,0.0,0.0,0.0,0.0,0.0,0.0,0.0,0.0,0.0,0.0,0.0,0.0,0.0,0.0,0.0,0.0,0.0,0.0,0.0,0.0,0.0,0.0,0.0,0.0,0.0,0.0,0.0,0.0,0.0,0.0,0.0,0.0,0.0,0.0,0.0,0.0,0.0,0.0,0.0,0.0,0.0,0.0,0.0,0.0,0.0,0.0,0.0,0.0,0.0,0.0,0.0,0.0,0.0,0.0,0.0,0.0,0.0,0.0,0.0,0.0,0.0,0.0,0.0,0.0,0.0,0.0,0.0,0.0,0.0,0.0,0.0,0.0,0.0,0.0,0.0,0.0,0.0,0.0,0.0,0.0,0.0,0.0,0.0,0.0,0.0,0.0,0.0,0.0,0.0,0.0,0.0,0.0,0.0,0.0,0.0,0.0,0.0,0.0,0.0,0.0,0.0,0.0,0.0,0.0,0.0,0.0,0.0,0.0,0.0,0.0,0.0,0.0,0.0,0.0,0.0,0.0,0.0,0.0,0.0,0.0,0.0,0.0,0.0,0.0,0.0,0.0,0.0,0.0,0.0,0.0,0.0,0.0,0.0,0.0,0.0,0.0,0.0,0.0,0.0,0.0,0.0,0.0,0.0,0.0,0.0,0.0,0.0,0.0,0.0,0.0,0.0,0.0,0.0,0.0,0.0,0.0,0.0,0.0,0.0,0.0,0.0,0.0,0.0,0.0,0.0,0.0,0.0,0.0,0.0,0.0,0.0,0.0,0.0,0.0,0.0,0.0,0.0,0.0,0.0,0.0,0.0,0.0,0.0,0.0,0.0,0.0,0.0,0.0,0.0,0.0,0.0,0.0,0.0,0.0,0.0,0.0,0.0,0.0,0.0,0.0,0.0,0.0,0.0,0.0,0.0,0.0,0.0,0.0,0.0,0.0,0.0,0.0,0.0,0.0,0.0,0.0,0.0,0.0,0.0,0.0,0.0,0.0,0.0,0.0,0.0,0.0,0.0,0.0,0.0,0.0,0.0,0.0,0.0,0.0,0.0,0.0,0.0,0.0,0.0,0.0,0.0,0.0,0.0,0.0,0.0,0.0,0.0,0.0,0.0,0.0,0.0,0.0,0.0,0.0,0.0,0.0,0.0,0.0,0.0,0.0,0.0,0.0,0.0,0.0,0.0,0.0,0.0,0.0,0.0,0.0,0.0,0.0,0.0,0.0,0.0,0.0,0.0,0.0,0.0,0.0,0.0,0.0,0.0,0.0,0.0,0.0,0.0,0.0,0.0,0.0,0.0,0.0,0.0,0.0,0.0,0.0,0.0,0.0,0.0,0.0,0.0,0.0,0.0,0.0,0.0,0.0,0.0,0.0,0.0,0.0,0.0,0.0,0.0,0.0,0.0,0.0,0.0,0.0,0.0,0.0,0.0,0.0,0.0,0.0,0.0,0.0,0.0,0.0,0.0,0.0,0.0,0.0,0.0,0.0,0.0,0.0,0.0,0.0,0.0,0.0,0.0,0.0,0.0,0.0,0.0,0.0,0.0,0.0,0.0,0.0,0.0,0.0,0.0,0.0,0.0,0.0,0.0,0.0,0.0,0.0,0.0,0.0,0.0,0.0,0.0,0.0,0.0,0.0,0.0,0.0,0.0,0.0,0.0,0.0,0.0,0.0,0.0,0.0,0.0,0.0,0.0,0.0,0.0,0.0,0.0,0.0,0.0,0.0,0.0,0.0,0.0,0.0,0.0,0.0,0.0,0.0,0.0,0.0,0.0,0.0,0.0,0.0,0.0,0.0,0.0,0.0,0.0,0.0,0.0,0.0,0.0,0.0,0.0,0.0,0.0,0.0,0.0,0.0,0.0,0.0,0.0,0.0,0.0,0.0,0.0,0.0,0.0,0.0,0.0,0.0,0.0,0.0,0.0,0.0,0.0,0.0,0.0,0.0,0.0,0.0,0.0,0.0,0.0,0.0,0.0,0.0,0.0,0.0,0.0,0.0,0.0,0.0,0.0,0.0,0.0,0.0,0.0,0.0,0.0,0.0,0.0,0.0,0.0,0.0,0.0,0.0,0.0,0.0,0.0,0.0,0.0,0.0,0.0,0.0,0.0,0.0,0.0,0.0,0.0,0.0,0.0,0.0,0.0,0.0,0.0,0.0,0.0,0.0,0.0,0.0,0.0,0.0,0.0,0.0,0.0,0.0,0.0,0.0,0.0,0.0,0.0,0.0,0.0,0.0,0.0,0.0,0.0,0.0,0.0,0.0,0.0,0.0,0.0,0.0,0.0,0.0,0.0,0.0,0.0,0.0,0.0,0.0,0.0,0.0,0.0,0.0,0.0,0.0,0.0,0.0,0.0,0.0,0.0,0.0,0.0,0.0,0.0,0.0,0.0,0.0,0.0,0.0,0.0,0.0,0.0,0.0,0.0,0.0,0.0,0.0,0.0,0.0,0.0,0.0,0.0,0.0,0.0,0.0,0.0,0.0,0.0,0.0,0.0,0.0,0.0,0.0,0.0,0.0,0.0,0.0,0.0,0.0,0.0,5.1475,5.0914,0.0,0.0,0.0,0.0,0.0,0.0,0.0,0.0,0.0,0.0,0.0,0.0,0.0,0.0,0.0,0.0,0.0,0.0,0.0,0.0,0.0,0.0,0.0,0.0,0.0,0.0,0.0,0.0,0.0,0.0,0.0,0.0,0.0,0.0,0.0,0.0,0.0,4.8387,4.8387,4.8215,4.7831,4.708,4.6329,4.566,0.0,0.0,0.0,0.0,0.0,0.0,0.0,0.0,0.0,0.0,0.0,0.0,0.0,0.0,0.0,0.0,0.0,0.0,0.0,0.0,0.0,0.0,0.0,0.0,0.0,0.0,0.0,0.0,0.0,0.0,0.0,0.0,0.0,0.0,0.0,0.0,0.0,0.0,0.0,0.0,0.0,0.0,0.0,0.0,0.0,0.0,0.0,0.0,0.0,0.0,0.0,0.0,0.0,0.0,0.0,0.0,0.0,0.0,0.0,0.0,0.0,0.0,0.0,0.0,0.0,0.0,0.0,0.0,0.0,0.0,5.2134,5.1846,0.0,0.0,0.0,0.0,0.0,0.0,0.0,0.0,0.0,0.0,0.0,0.0,0.0,0.0,0.0,0.0,0.0,0.0,0.0,0.0,0.0,0.0,0.0,4.9782,4.9782,4.9782,4.9782,4.9722,0.0,0.0,0.0,0.0,0.0,0.0,5.027,5.0913,5.0924,5.0326,5.0359,5.0055,4.9431,4.9431,4.8775,4.7562,4.7288,0.0,0.0,0.0,0.0,0.0,0.0,0.0,0.0,0.0,0.0,0.0,0.0,0.0,0.0,0.0,0.0,0.0,0.0,0.0,0.0,0.0,0.0,0.0,0.0,0.0,0.0,0.0,0.0,0.0,0.0,0.0,0.0,0.0,0.0,0.0,0.0,0.0,0.0,0.0,0.0,0.0,0.0,0.0,0.0,0.0,0.0,0.0,0.0,0.0,0.0,0.0,0.0,0.0,0.0,0.0,0.0,0.0,0.0,0.0,0.0,0.0,0.0,0.0,5.2596,5.2596,5.2596,5.2596,5.2975,5.355,5.2873,5.2906,5.3349,5.2665,0.0,0.0,0.0,0.0,0.0,0.0,0.0,0.0,0.0,0.0,0.0,0.0,0.0,0.0,0.0,0.0,0.0,0.0,0.0,5.2913,5.2913,5.2913,5.2913,5.2913,5.2913,5.2664,5.216,0.0,0.0,0.0,0.0,0.0,5.1082,5.1151,5.1249,5.1314,5.1505,5.1441,5.1151,5.1151,5.0953,5.0555,4.9276,4.8641,4.8569,0.0,0.0,0.0,0.0,0.0,0.0,0.0,0.0,0.0,0.0,0.0,0.0,0.0,0.0,0.0,0.0,0.0,0.0,0.0,0.0,0.0,0.0,0.0,0.0,0.0,0.0,0.0,0.0,0.0,0.0,0.0,0.0,0.0,0.0,0.0,0.0,0.0,0.0,0.0,0.0,0.0,5.1885,5.1885,0.0,0.0,0.0,0.0,0.0,0.0,0.0,0.0,0.0,0.0,0.0,0.0,0.0,5.2526,5.3247,5.3247,5.355,5.4173,5.4173,5.4173,5.4173,5.4173,5.4271,5.4335,5.4271,0.0,5.3382,5.3281,0.0,0.0,0.0,0.0,0.0,0.0,0.0,0.0,0.0,0.0,0.0,0.0,0.0,0.0,0.0,0.0,0.0,0.0,0.0,0.0,0.0,5.3504,5.3504,5.3504,5.3504,5.3395,5.312,5.3064,0.0,0.0,0.0,5.3088,5.3088,5.354,5.3632,5.3429,5.3181,5.299,5.2893,5.2893,5.2861,5.2731,5.2102,5.0989,4.9641,4.9641,0.0,0.0,0.0,0.0,0.0,0.0,0.0,0.0,0.0,0.0,0.0,0.0,0.0,0.0,0.0,0.0,0.0,0.0,0.0,0.0,0.0,0.0,0.0,0.0,0.0,0.0,0.0,0.0,0.0,0.0,0.0,0.0,0.0,0.0,0.0,0.0,0.0,0.0,0.0,5.3348,5.3348,5.3348,5.3348,5.3382,0.0,0.0,0.0,0.0,0.0,0.0,0.0,0.0,0.0,5.3482,5.3482,5.3682,5.4011,5.4011,5.4207,5.4494,5.4494,5.4494,5.4494,5.4494,5.4494,5.4494,5.4494,5.4335,5.4011,5.4011,5.3781,5.3482,0.0,0.0,0.0,0.0,5.4239,5.4494,0.0,0.0,0.0,0.0,0.0,0.0,0.0,0.0,0.0,0.0,0.0,0.0,5.4665,5.4665,5.4665,5.4665,5.4665,5.4587,5.4429,5.4403,5.4323,5.4161,5.4638,5.4894,5.4894,5.5461,5.5588,5.5189,5.4799,5.4457,5.4269,5.4269,5.4173,5.398,5.398,5.294,5.1095,5.1095,5.0652,4.9948,0.0,0.0,0.0,0.0,0.0,0.0,0.0,0.0,0.0,0.0,0.0,0.0,0.0,0.0,0.0,0.0,0.0,0.0,0.0,0.0,0.0,0.0,0.0,0.0,0.0,0.0,0.0,0.0,0.0,0.0,0.0,0.0,0.0,0.0,0.0,0.0,0.0,5.4494,5.4494,5.4494,5.4494,5.4494,0.0,0.0,0.0,0.0,0.0,0.0,5.4494,5.4494,5.4494,5.4494,5.4494,5.4494,5.4494,5.4494,5.4494,5.4494,5.4494,5.4494,5.4494,5.4494,5.4494,5.4494,5.4494,5.4494,5.4494,5.4494,5.4494,5.4494,5.4494,5.4494,5.4494,5.4494,5.4494,5.4494,0.0,0.0,0.0,0.0,0.0,0.0,0.0,0.0,0.0,0.0,0.0,5.7757,5.7757,5.7757,5.7757,5.7757,5.7757,5.7533,5.6982,5.6794,5.6482,5.5905,5.5737,5.5653,5.5653,5.5865,5.5956,5.5928,5.6103,5.5766,5.5034,5.5034,5.4676,5.398,5.398,5.3946,5.3813,5.3813,5.3247,5.232,5.2354,0.0,0.0,0.0,0.0,0.0,0.0,0.0,0.0,0.0,0.0,0.0,0.0,0.0,0.0,0.0,0.0,0.0,0.0,0.0,0.0,0.0,0.0,0.0,0.0,0.0,0.0,0.0,0.0,0.0,0.0,0.0,0.0,0.0,0.0,0.0,0.0,0.0,0.0,5.4494,5.4494,0.0,0.0,0.0,0.0,5.4494,5.4494,5.4494,5.4494,5.4494,5.4494,5.4494,5.4494,5.4494,5.4494,5.4494,5.4494,5.4494,5.4494,5.4494,5.4494,5.4494,5.4494,5.4494,5.4494,5.4494,5.4494,5.4494,5.4494,5.4494,5.4494,5.4494,5.4494,5.4494,5.4494,5.4494,0.0,0.0,0.0,0.0,0.0,0.0,0.0,0.0,5.6675,5.7483,5.8047,5.8282,5.8042,5.8253,5.826,5.802,5.7997,5.7927,5.7703,5.7618,5.7498,5.729,5.7241,5.7155,5.7155,5.6876,5.6721,5.6721,5.6438,5.6166,5.5851,5.5851,5.5709,5.5484,5.5074,5.4892,5.4861,5.4237,5.3782,5.3483,5.3483,5.3179,0.0,0.0,0.0,0.0,0.0,0.0,0.0,0.0,0.0,0.0,0.0,0.0,0.0,0.0,0.0,0.0,0.0,0.0,0.0,0.0,0.0,0.0,0.0,0.0,0.0,0.0,0.0,0.0,0.0,0.0,0.0,0.0,0.0,0.0,0.0,0.0,0.0,5.4494,5.4494,0.0,5.4494,5.4494,5.4494,5.4494,5.4865,5.5074,5.5074,5.5461,5.5658,5.5658,5.5658,5.5658,5.5658,5.5284,5.5284,5.5629,5.4865,5.4714,5.5079,5.4683,5.4494,5.4494,5.4494,5.4494,5.4494,5.4494,5.4494,5.4494,5.4494,5.4494,5.4494,5.4494,5.4494,5.4494,0.0,0.0,0.0,0.0,0.0,0.0,0.0,0.0,5.7331,5.828,5.8628,5.871,5.8434,5.8628,5.8689,5.8434,5.8391,5.8391,5.8391,5.8297,5.8209,5.8209,5.8088,5.7997,5.7997,5.7594,5.7401,5.7401,5.704,5.6757,5.6572,5.6572,5.6492,5.6276,5.5887,5.5687,5.5629,5.483,5.4301,5.4078,5.4078,5.3948,5.3783,0.0,0.0,0.0,0.0,0.0,0.0,0.0,0.0,0.0,0.0,0.0,0.0,0.0,0.0,0.0,0.0,0.0,0.0,0.0,0.0,0.0,0.0,0.0,0.0,0.0,0.0,0.0,0.0,0.0,0.0,0.0,0.0,0.0,0.0,5.4494,5.4494,5.4494,5.4683,5.4803,5.4803,5.4987,5.5104,5.5104,5.549,5.5687,5.5687,5.6083,5.6303,5.6303,5.6303,5.6303,5.6303,5.5915,5.5915,5.6303,5.5519,5.5313,5.5687,5.5284,5.5104,5.5104,5.5104,5.5104,5.5104,5.5104,5.5104,5.5079,5.4652,5.462,5.4803,5.4803,5.4926,5.5104,0.0,0.0,0.0,0.0,0.0,0.0,5.602,5.6898,5.7876,5.9047,5.9215,5.9215,5.9215,5.9215,5.9215,5.9215,5.9215,5.9215,5.9215,5.885,5.8628,5.8628,5.8253,5.802,5.802,5.7997,5.7997,5.7997,5.7997,5.7703,5.7141,5.7141,5.6861,5.6357,5.633,5.633,5.6276,5.5687,5.4983,5.4237,5.4239,5.4143,5.398,0.0,0.0,0.0,0.0,0.0,0.0,0.0,0.0,0.0,0.0,0.0,0.0,0.0,0.0,0.0,0.0,0.0,0.0,0.0,0.0,0.0,0.0,0.0,0.0,0.0,0.0,0.0,0.0,0.0,0.0,0.0,0.0,0.0,5.4745,5.4557,5.4557,5.4557,5.5044,5.5432,5.5432,5.5971,5.6303,5.6303,5.633,5.633,5.633,5.6357,5.6357,5.6357,5.6357,5.6357,5.6357,5.633,5.633,5.6357,5.633,5.6303,5.633,5.6303,5.6303,5.6303,5.6303,5.6303,5.6303,5.6303,5.6303,5.6193,5.5018,5.4926,5.5432,5.5432,5.5801,5.6303,0.0,0.0,0.0,0.0,0.0,0.0,5.6134,5.7638,5.8821,5.9159,5.945,5.952,5.9234,5.9467,5.952,5.9234,5.9215,5.9215,5.9215,5.9103,5.9046,5.9046,5.8648,5.8455,5.8455,5.8142,5.7997,5.7997,5.7997,5.7927,5.775,5.775,5.7679,5.7498,5.7065,5.6887,5.6861,5.6303,5.5915,5.5658,5.4772,5.4303,5.4143,0.0,0.0,0.0,0.0,0.0,0.0,0.0,0.0,0.0,0.0,0.0,0.0,0.0,0.0,0.0,0.0,0.0,0.0,0.0,0.0,0.0,0.0,0.0,0.0,0.0,0.0,0.0,0.0,0.0,0.0,0.0,5.6193,5.6193,5.5858,5.5801,5.5801,5.5801,5.5943,5.6055,5.6055,5.6193,5.6303,5.6303,5.6678,5.6887,5.6887,5.7302,5.7522,5.7522,5.7522,5.7522,5.7522,5.7091,5.7091,5.7498,5.6704,5.6519,5.6887,5.6492,5.6303,5.6303,5.6303,5.6303,5.6303,5.6303,5.6303,5.6276,5.5943,5.5915,5.6055,5.6055,5.6185,5.6367,0.0,0.0,0.0,0.0,0.0,0.0,5.6444,5.8182,5.952,5.9673,5.9906,5.9953,5.9744,5.9906,5.9953,5.9706,5.9689,5.9689,5.9689,5.9537,5.9379,5.9215,5.8988,5.887,5.887,5.8476,5.8238,5.8238,5.8074,5.7997,5.7997,5.7997,5.7997,5.7997,5.7618,5.7474,5.7449,5.6887,5.6652,5.6572,5.5629,5.5013,5.4679,5.4333,5.4143,5.4078,5.4013,5.398,5.398,5.398,0.0,0.0,0.0,0.0,0.0,0.0,0.0,0.0,0.0,0.0,0.0,0.0,0.0,0.0,0.0,0.0,0.0,0.0,0.0,0.0,0.0,0.0,0.0,0.0,5.6835,5.6989,5.6989,5.6599,5.6303,5.6303,5.6519,5.6652,5.6652,5.6861,5.6989,5.6989,5.7302,5.7474,5.7474,5.8126,5.851,5.851,5.8841,5.9024,5.9024,5.8665,5.8665,5.9024,5.8308,5.8181,5.8457,5.8156,5.8027,5.8027,5.8027,5.8027,5.8027,5.8027,5.8027,5.7903,0.0,0.0,0.0,0.0,5.7091,5.7155,0.0,0.0,0.0,0.0,0.0,0.0,5.6737,5.8547,5.9984,6.0342,6.0422,6.0422,6.0422,6.0422,6.0422,6.0422,6.0422,6.0422,6.0422,6.0084,5.9689,5.9361,5.9307,5.927,5.927,5.889,5.8648,5.8607,5.8216,5.8065,5.7997,5.7997,5.7997,5.7997,5.7997,5.7997,5.7973,5.7425,5.7191,5.7141,5.6625,5.6027,5.5396,5.4707,5.4397,5.4301,5.4207,5.411,5.4045,5.4045,0.0,0.0,0.0,0.0,0.0,0.0,0.0,0.0,0.0,0.0,0.0,0.0,0.0,0.0,0.0,0.0,0.0,0.0,0.0,0.0,0.0,0.0,0.0,0.0,5.7655,5.7997,5.7997,5.7152,5.6492,5.6492,5.6912,5.7191,5.7191,5.7703,5.8033,5.8143,5.8143,5.818,5.8253,5.8951,0.0,0.0,0.0,6.0419,6.0419,6.0419,6.0419,6.0419,6.0419,6.0419,6.0419,6.0419,6.0419,6.0419,6.0419,6.0419,6.0419,6.0443,6.0443,6.0188,5.7634,5.6855,5.7266,5.7821,5.8088,5.8201,0.0,0.0,0.0,0.0,0.0,0.0,5.6772,5.8796,6.0313,6.0408,6.0422,6.0422,6.0422,6.0422,6.0422,6.0422,6.0422,6.0422,6.0422,6.0328,6.0256,6.0159,5.9858,5.9673,5.9673,5.9307,5.8929,5.8607,5.8503,5.8304,5.7997,5.7997,5.7997,5.7997,5.7997,5.7997,5.7997,5.7904,5.7821,5.7774,5.7166,5.6625,5.6111,5.5971,5.5601,5.5164,5.5134,5.4834,5.4399,5.4399,5.4399,5.4399,5.4399,5.4399,0.0,0.0,0.0,0.0,0.0,0.0,0.0,0.0,0.0,0.0,0.0,0.0,0.0,0.0,0.0,0.0,0.0,0.0,0.0,5.775,5.7927,5.7997,5.7997,5.7797,5.7679,5.7679,5.775,5.7821,5.7821,5.795,5.8253,5.8914,5.8964,5.9245,5.9905,6.0089,6.0162,6.0162,6.0309,6.0419,6.0419,6.0419,6.0419,6.0419,6.0419,0.0,6.0419,6.0419,6.0419,6.0419,6.0419,6.0419,6.0419,6.0501,6.0632,6.0591,5.9175,5.8311,5.7844,5.8065,5.826,5.8371,0.0,0.0,0.0,0.0,0.0,0.0,5.679,5.8858,6.0422,6.0422,6.0422,6.0422,6.0422,6.0422,6.0422,6.0422,6.0422,6.0422,6.0422,6.0422,6.0422,6.0422,6.0188,6.0099,6.0099,5.9727,5.9415,5.9178,5.8811,5.8482,5.8282,5.8074,5.7997,5.7997,5.7997,5.7997,5.7997,5.7997,5.7997,5.7973,5.7679,5.7401,5.7065,5.6519,5.6111,5.5858,5.5858,5.5658,5.5402,5.5402,5.5402,5.5402,5.5402,5.5402,5.5402,0.0,0.0,0.0,0.0,0.0,0.0,0.0,0.0,0.0,0.0,0.0,0.0,0.0,0.0,5.7252,5.7498,0.0,5.7655,5.795,5.7997,5.7997,5.7997,5.7997,5.7997,5.7997,5.8364,5.8621,5.8621,5.8951,5.9391,5.9795,5.9795,5.9979,6.0382,6.0786,6.1006,6.1006,6.141,6.1594,6.1594,6.1594,6.1594,6.1594,6.1594,6.1594,6.1594,6.1594,6.1594,6.1594,6.1594,6.1594,6.1594,6.1739,6.1661,6.1348,6.0803,6.0093,5.9417,5.9462,5.9612,5.9649,0.0,0.0,0.0,0.0,0.0,0.0,0.0,5.8549,6.0036,6.0246,6.0285,6.0313,6.037,6.0422,6.0422,6.0422,6.0422,6.0422,6.0422,6.0422,6.0422,6.0422,6.0422,6.0422,6.0422,6.0084,5.9874,5.9809,5.9065,5.8689,5.8586,5.8186,5.7997,5.7997,5.7997,5.7997,5.7997,5.7997,5.7997,5.7997,5.7997,5.7997,5.7904,5.6964,5.6572,5.6465,5.6465,5.6384,5.6303,5.6303,5.6303,5.6303,5.6303,5.6303,5.6303,5.6303,5.6303,0.0,0.0,0.0,0.0,0.0,0.0,0.0,0.0,5.6964,5.7266,5.7266,5.7679,5.7997,5.7997,5.7997,5.7997,5.7997,5.7997,5.8033,5.8217,5.8217,5.829,5.8437,5.8914,5.9258,5.9404,6.0015,6.0456,6.0639,6.0639,6.0713,6.086,6.1484,6.1814,6.1814,6.2475,6.278,6.278,6.278,6.278,6.278,6.278,6.278,6.278,6.278,6.278,6.278,6.283,6.2855,6.288,6.3026,6.2741,6.2327,6.2327,6.192,6.1306,6.095,6.0907,6.09,0.0,0.0,0.0,0.0,0.0,0.0,0.0,0.0,5.8672,5.9712,5.9874,5.9984,6.0342,6.0422,6.0422,6.0422,6.0422,6.0422,6.0422,6.0422,6.0422,6.0422,6.0422,6.0422,6.0422,6.0342,6.0144,5.9809,5.9361,5.8968,5.8586,5.8186,5.7997,5.7997,5.7997,5.7997,5.7997,5.7997,5.7997,5.7997,5.7997,5.7997,5.7997,5.7844,5.7474,5.7015,5.7015,5.6704,5.6303,5.6303,5.6303,5.6303,5.6303,5.6303,5.6303,5.6303,5.6303,5.6303,5.6303,5.6652,5.7015,5.7015,5.7425,5.7797,0.0,5.7881,5.7927,5.7927,5.795,5.7997,5.7997,5.7997,5.7997,5.7997,5.7997,5.8253,5.8964,5.9074,5.9355,6.0052,5.9575,5.9478,6.0199,6.0346,6.0713,6.141,6.1484,6.1777,6.2511,6.2622,6.2695,6.2695,6.2743,6.278,6.278,6.278,6.278,6.278,6.278,6.278,6.278,6.278,6.278,6.2805,6.2929,6.3051,6.3147,6.3289,6.3368,6.3408,6.3408,6.3371,6.3088,6.1552,6.1011,6.0996,0.0,0.0,0.0,0.0,0.0,0.0,0.0,0.0,5.8179,5.8713,5.9353,5.9874,6.0053,6.027,6.0422,6.0422,6.0422,6.0422,6.0422,6.0422,6.0422,6.0422,6.0173,6.0159,6.037,6.0159,5.9953,5.9809,5.9397,5.9007,5.8586,5.8186,5.7997,5.7997,5.7997,5.7997,5.7997,5.7997,5.7997,5.7997,5.7997,5.7997,5.7997,5.7997,5.7821,5.7594,5.7594,5.7474,0.0,5.7302,5.7302,5.7302,5.7302,5.7302,5.7302,5.7302,5.7302,5.7302,5.7302,5.7449,5.7594,5.7594,5.7797,5.7997,5.7997,5.7997,5.7997,5.7997,5.7997,5.7997,5.7997,5.7997,5.8143,5.8621,5.8694,5.8988,5.9795,5.9905,6.0199,6.1006,6.0786,6.075,6.108,6.152,6.1961,6.2291,6.2291,6.2438,6.278,6.278,6.278,6.278,6.278,6.278,6.278,6.278,6.278,6.278,6.278,6.278,6.278,6.278,6.278,6.2805,6.2953,6.3075,6.3194,6.3336,6.3488,6.3602,6.3602,6.3602,6.3505,6.2792,6.2532,6.2458,0.0,0.0,0.0,0.0,0.0,0.0,0.0,0.0,0.0,0.0,5.861,5.9256,5.9622,5.989,6.0084,6.0084,6.0084,6.0084,6.0084,6.0084,6.0084,6.0084,5.9809,5.9793,6.0068,5.9793,5.9622,5.9622,5.9252,5.889,5.8586,5.8186,5.7997,5.7997,5.7997,5.7997,5.7997,5.7997,5.7997,5.7997,5.7997,5.7997,5.7997,5.7997,5.7997,5.7997,5.7997,5.7997,5.7997,5.7997,5.7997,5.7997,5.7997,5.7997,5.7997,5.7997,5.7997,5.7997,5.7997,5.7997,5.7997,5.7997,5.7997,5.7997,5.7997,5.7997,5.7997,5.7997,5.7997,5.807,5.829,5.8327,5.8584,5.9404,5.9515,5.9832,6.0639,6.075,6.1043,6.1851,6.1924,6.1924,6.1924,6.2475,6.278,6.278,6.278,6.278,6.278,6.278,6.278,6.278,6.278,6.278,6.278,6.278,6.278,6.278,6.278,6.278,6.278,6.278,6.278,6.2805,6.2953,6.3075,6.3194,6.3336,6.3488,6.3602,6.3602,6.3602,6.3602,6.3602,6.3602,6.3527,0.0,0.0,0.0,0.0,0.0,0.0,0.0,0.0,0.0,0.0,0.0,0.0,0.0,5.9234,5.9252,5.9252,5.9252,5.9252,5.9252,5.9252,5.9252,5.9252,5.9234,5.9234,5.9252,5.9234,5.9234,5.9234,5.8831,5.8607,5.8586,5.8186,5.7997,5.7997,5.7997,5.7997,5.7997,5.7997,5.7997,5.7997,5.7997,5.7997,5.7997,5.7997,5.7997,5.7997,5.7997,5.7997,5.7997,5.7997,5.7997,5.7997,5.7997,5.7997,5.7997,5.7997,5.7997,5.7997,5.7997,5.7997,5.7997,5.7997,5.7997,5.7997,5.7997,5.7997,5.7997,5.7997,5.7997,5.8253,5.9001,5.9148,5.9404,6.0236,6.0382,6.0639,6.1447,6.1557,6.1851,6.267,6.2768,6.2768,6.2768,6.2805,6.278,6.278,6.278,6.278,6.278,6.278,6.278,6.278,6.278,6.278,6.278,6.278,6.278,6.278,6.278,6.278,6.278,6.278,6.278,6.2805,6.2953,6.3075,6.3194,6.3336,6.3488,6.3602,6.3602,6.3602,6.3602,6.3602,6.3602,6.3602,0.0,0.0,0.0,0.0,0.0,0.0,0.0,0.0,0.0,0.0,0.0,0.0,0.0,0.0,0.0,0.0,5.9215,5.9215,5.9215,5.9215,5.9215,5.9215,5.8949,5.8949,5.9197,5.8949,5.8811,5.8811,5.8669,5.8439,5.8209,5.8088,5.7997,5.7997,5.7997,5.7997,5.7997,5.7997,5.7997,5.7997,5.7997,5.7997,5.7997,5.7997,5.7997,5.7997,0.0,5.7997,5.7997,5.7997,5.7997,5.7997,5.7997,5.7997,5.7997,5.7997,5.7997,5.7997,5.7997,5.7997,5.7997,5.7997,5.7997,5.7997,5.7997,5.84,5.8804,5.8804,5.9208,5.9685,5.9942,6.0015,6.0272,6.108,6.119,6.1484,6.2291,6.2401,6.2511,6.2743,6.278,6.278,6.278,6.278,6.278,6.278,6.278,6.278,6.278,6.278,6.278,6.278,6.278,6.278,6.278,6.278,6.278,6.278,6.278,6.278,6.278,6.278,6.278,6.2805,6.3026,6.3147,6.3231,6.3442,6.3557,6.3602,6.3602,6.3602,6.3602,6.3602,6.3602,6.3602,0.0,0.0,0.0,0.0,0.0,0.0,0.0,0.0,0.0,0.0,0.0,0.0,0.0,0.0,0.0,0.0,0.0,5.877,5.877,5.877,5.877,5.877,5.8503,5.8519,5.877,5.854,5.8391,5.8391,5.8391,5.8238,5.7997,5.7997,5.7997,5.7997,5.7997,5.7997,5.7997,5.7997,5.7997,5.7997,5.7997,5.7997,5.7997,5.7997,5.7997,0.0,5.7997,5.7997,5.7997,5.7997,5.7997,5.7997,5.7997,5.7997,5.7997,5.7997,5.7997,5.7997,5.7997,5.7997,5.807,5.8364,5.8437,5.851,5.8804,5.9281,5.9648,5.9648,6.0052,6.0493,6.0786,6.0823,6.108,6.1887,6.2034,6.2218,6.2732,6.278,6.278,6.278,6.278,6.278,6.278,6.278,6.278,6.278,6.278,6.278,6.278,6.278,6.278,6.278,6.278,6.278,6.278,6.278,6.278,6.278,6.278,6.278,6.278,6.278,6.283,6.288,6.3051,6.3171,6.3265,6.3465,6.3557,6.3602,6.3602,6.3602,6.3602,6.3602,6.3602,6.3602,0.0,0.0,0.0,0.0,0.0,0.0,0.0,0.0,0.0,0.0,0.0,0.0,0.0,0.0,0.0,0.0,0.0,0.0,5.7997,5.7997,5.7997,5.7997,5.7997,5.7997,5.7997,5.7997,5.7997,5.7997,5.7997,5.7997,5.7997,5.7997,5.7997,5.7997,5.7997,5.7997,5.7997,5.7997,5.7997,5.7997,5.7997,5.7997,5.7997,5.7997,5.7997,5.7997,5.7997,5.7997,5.7997,5.7997,5.7997,5.7997,5.7997,5.7997,5.7997,5.7997,5.7997,5.7997,5.8033,5.807,5.8253,5.9038,5.9258,5.9441,6.0236,6.0419,6.0456,6.0456,6.0493,6.075,6.152,6.1667,6.1924,6.2695,6.278,6.278,6.278,6.278,6.278,6.278,6.278,6.278,6.278,6.278,6.278,6.278,6.278,6.278,6.278,6.278,6.278,6.278,6.278,6.278,6.278,6.278,6.278,6.278,6.278,6.278,6.278,6.2805,6.288,6.3002,6.3026,6.3171,6.3382,6.3382,6.3488,6.3602,6.3602,6.3602,6.3602,6.3602,6.3602,6.3602,0.0,0.0,0.0,0.0,0.0,0.0,0.0,0.0,0.0,0.0,0.0,0.0,0.0,0.0,0.0,0.0,0.0,0.0,5.7997,5.7997,5.7997,5.7997,5.7997,5.7997,5.7997,5.7997,5.7997,5.7997,5.7997,5.7997,5.7997,5.7997,5.7997,5.7997,5.7997,5.7997,5.7997,5.7997,5.7997,5.7997,5.7997,5.7997,5.7997,5.7997,5.7997,5.7997,5.7997,5.7997,5.7997,5.7997,5.7997,5.7997,5.7997,5.7997,5.7997,5.7997,5.7997,5.8143,5.8731,5.8914,5.9098,5.9905,6.0089,6.0162,6.0346,6.086,6.13,6.13,6.1777,6.2254,6.2475,6.2511,6.2585,6.2743,6.278,6.278,6.278,6.278,6.278,6.278,6.278,6.278,6.278,6.278,6.278,6.278,6.278,6.278,6.278,6.278,6.278,6.278,6.278,6.278,6.278,6.278,6.278,6.278,6.278,6.278,6.2805,6.2904,6.2978,6.3026,6.3218,6.3336,6.3382,6.3511,6.3557,6.3602,6.3602,6.3602,6.3602,6.3602,6.3602,6.3602,0.0,0.0,0.0,0.0,0.0,0.0,0.0,0.0,0.0,0.0,0.0,0.0,0.0,0.0,0.0,0.0,0.0,0.0,0.0,5.7997,5.7997,5.7997,5.7997,5.7997,5.7997,5.7997,5.7997,5.7997,5.7997,5.7997,5.7997,5.7997,5.7997,5.7997,5.7997,5.7997,5.7997,5.7997,5.7997,0.0,0.0,5.7997,5.7997,5.7997,5.7997,5.7997,5.7997,5.7997,5.7997,5.7997,5.7997,5.7997,5.7997,5.7997,5.7997,5.7997,5.8253,5.8621,5.9074,5.9441,5.9942,6.075,6.0933,6.1006,6.1374,6.1814,6.2144,6.2144,6.2511,6.278,6.278,6.278,6.278,6.278,6.278,6.278,6.278,6.278,6.278,6.278,6.278,6.278,6.278,6.278,6.278,6.278,6.278,6.278,6.278,6.278,6.278,6.278,6.278,6.278,6.278,6.278,6.278,6.278,6.278,6.278,6.2805,6.2953,6.3026,6.3099,6.3289,6.3405,6.3511,6.3557,6.3602,6.3602,6.3602,6.3602,6.3602,6.3602,6.3602,6.3602,0.0,0.0,0.0,0.0,0.0,0.0,0.0,0.0,0.0,0.0,5.4547,0.0,0.0,0.0,0.0,0.0,0.0,0.0,0.0,0.0,5.7997,5.7997,5.7997,5.7997,5.7997,5.7997,5.7997,5.7997,5.7997,5.7997,5.7997,5.7997,5.7997,5.7997,5.7997,5.7997,5.7997,5.7997,5.7997,5.7997,5.7997,5.7997,5.7997,0.0,5.7997,5.7997,5.7997,5.7997,5.7997,5.7997,5.7997,5.7997,5.7997,5.7997,5.8033,5.8143,5.8657,5.9258,5.9441,6.0052,6.075,6.1557,6.1741,6.1924,6.2658,6.278,6.278,6.278,6.278,6.278,6.278,6.278,6.278,6.278,6.278,6.278,6.278,6.278,6.278,6.278,6.278,6.278,6.278,6.278,6.278,6.278,6.278,6.278,6.278,6.278,6.278,6.278,6.278,6.278,6.278,6.278,6.278,6.278,6.278,6.2805,6.283,6.2978,6.3099,6.3218,6.3359,6.3511,6.3602,6.3602,6.3602,6.3602,6.3602,6.3602,6.3602,6.3602,6.3602,6.3602,0.0,0.0,0.0,0.0,0.0,0.0,0.0,0.0,0.0,0.0,5.4146,5.5463,0.0,0.0,0.0,0.0,0.0,0.0,0.0,0.0,0.0,5.7997,5.7997,5.7997,5.7997,5.7997,5.7997,5.7997,5.7997,5.7997,5.7997,5.7997,5.7997,5.7997,5.7997,5.7997,5.7997,5.7997,5.7997,5.7997,5.7997,5.7997,5.7997,5.7997,0.0,0.0,5.7997,5.7997,5.7997,5.7997,5.7997,5.7997,5.7997,5.7997,5.8143,5.8804,5.9074,5.9478,6.0823,6.13,6.1594,6.2401,6.2585,6.2658,6.2743,6.278,6.278,6.278,6.278,6.278,6.278,6.278,6.278,6.278,6.278,6.278,6.278,6.278,6.278,6.278,6.278,6.278,6.278,6.278,6.278,6.278,6.278,6.278,6.278,6.278,6.278,6.278,6.278,6.278,6.278,6.278,6.278,6.278,6.278,6.2855,6.2978,6.3099,6.3218,6.3359,6.3511,6.3579,6.3602,6.3602,6.3602,6.3602,6.3602,6.3602,6.3602,6.3602,6.3602,6.3602,0.0,0.0,0.0,0.0,0.0,0.0,0.0,5.1517,5.2284,5.2612,5.3966,5.4943,5.5033,5.618,5.6953,0.0,0.0,0.0,0.0,0.0,0.0,5.7997,5.7997,5.7997,5.7997,5.7997,5.7997,5.7997,0.0,5.7997,5.7997,5.7703,5.7703,5.7997,5.7679,5.7726,5.7997,5.7997,5.7997,5.7997,5.7997,5.7997,5.7997,0.0,0.0,0.0,5.7997,5.7997,5.7997,5.7997,5.7997,5.7997,5.7997,5.7997,5.8143,5.8964,5.9478,6.0089,6.1263,6.1924,6.2328,6.267,6.278,6.278,6.278,6.278,6.278,6.278,6.278,6.278,6.278,6.278,6.278,6.278,6.278,6.278,6.278,6.278,6.278,6.278,6.278,6.278,6.278,6.278,6.278,6.278,6.278,6.278,6.278,6.278,6.278,6.278,6.278,6.278,6.278,6.278,6.278,6.278,6.278,6.2855,6.3002,6.3123,6.3265,6.3382,6.3534,6.3602,6.3602,6.3602,6.3602,6.3602,6.3602,6.3602,6.3602,6.3602,6.3602,6.3602,0.0,0.0,0.0,0.0,0.0,0.0,0.0,5.1665,5.2326,5.2887,5.3667,5.4215,5.4262,5.5285,5.5956,0.0,0.0,0.0,0.0,0.0,0.0,0.0,0.0,0.0,5.7655,0.0,0.0,5.7655,5.7655,0.0,0.0,0.0,0.0,0.0,5.7116,5.7166,5.757,5.7631,5.7703,0.0,0.0,5.7867,0.0,0.0,0.0,0.0,0.0,5.7997,5.7997,5.7997,5.7997,5.7997,5.7997,5.7997,5.818,5.9171,5.9905,6.0603,6.1594,6.2328,6.278,6.278,6.278,6.278,6.278,6.278,6.278,6.278,6.278,6.278,6.278,6.278,6.278,6.278,6.278,6.278,6.278,6.278,6.278,6.278,6.278,0.0,6.278,6.278,6.278,6.278,6.278,6.278,6.278,6.278,6.278,6.278,6.278,6.278,6.278,6.278,6.278,6.278,6.283,6.2904,6.3051,6.3171,6.3326,6.3465,6.3557,6.3602,6.3602,6.3602,6.3602,6.3602,6.3602,6.3602,6.3602,6.3602,6.3602,6.3602,0.0,0.0,0.0,0.0,0.0,0.0,0.0,5.1822,5.2297,5.236,5.3073,5.3583,5.3582,5.4874,5.5808,0.0,0.0,0.0,0.0,0.0,0.0,0.0,0.0,0.0,0.0,0.0,0.0,5.6465,5.6465,0.0,0.0,0.0,0.0,0.0,0.0,5.6295,5.6177,5.6376,0.0,0.0,0.0,0.0,0.0,0.0,0.0,0.0,0.0,5.7997,5.7997,5.7997,5.7997,5.7997,5.7997,5.7997,5.829,5.9832,6.0346,6.075,6.2291,6.2743,6.278,6.278,6.278,6.278,6.278,6.278,6.278,6.278,6.278,6.278,6.278,6.278,6.278,6.278,6.278,6.278,6.278,6.278,6.278,6.278,0.0,0.0,6.278,6.278,6.278,6.278,6.278,6.278,6.278,6.278,6.278,6.278,6.278,6.278,6.278,6.278,6.278,6.278,6.2929,6.3051,6.3171,6.3312,6.3465,6.3579,6.3579,6.3602,6.3602,6.3602,6.3602,6.3602,6.3602,6.3602,6.3602,6.3602,6.3602,6.3602,0.0,0.0,0.0,0.0,0.0,0.0,5.186,5.2536,5.301,5.301,5.3315,5.3518,5.3518,5.4044,5.4485,5.4765,0.0,0.0,0.0,0.0,0.0,0.0,0.0,0.0,0.0,0.0,5.6158,5.6303,5.6303,0.0,0.0,0.0,0.0,0.0,0.0,5.5794,5.6185,5.6276,0.0,0.0,0.0,0.0,0.0,0.0,0.0,0.0,0.0,0.0,5.7997,5.7997,5.7997,5.7997,5.7997,5.8327,5.8951,6.0089,6.075,6.1374,6.2511,6.278,6.278,6.278,6.278,6.278,6.278,6.278,6.278,6.278,6.278,6.278,6.278,6.278,6.278,6.278,6.278,6.278,6.278,6.278,6.278,6.278,6.278,6.278,6.278,6.278,6.278,6.278,6.278,6.278,6.278,6.278,6.278,6.278,6.278,6.278,6.278,6.278,6.278,6.278,6.2855,6.2978,6.3194,6.3279,6.3419,6.3602,6.3602,6.3602,6.3602,6.3602,6.3602,6.3602,6.3602,6.3602,6.3602,6.3602,6.3602,6.3602,0.0,0.0,0.0,0.0,0.0,5.2672,5.2672,5.3145,5.3518,5.3518,5.3518,5.3518,5.3518,5.3518,5.3618,5.3882,5.4013,0.0,0.0,0.0,0.0,0.0,0.0,0.0,0.0,0.0,5.5565,5.5773,5.5773,5.5773,0.0,0.0,5.5129,5.5658,0.0,0.0,0.0,0.0,0.0,0.0,0.0,0.0,0.0,0.0,0.0,0.0,0.0,0.0,0.0,0.0,0.0,5.7997,5.7997,5.8547,5.9368,6.0162,6.097,6.1777,6.2585,6.278,6.278,6.278,6.278,6.278,6.278,6.278,6.278,6.278,6.278,6.278,6.278,6.278,6.278,6.278,6.278,6.278,6.278,6.278,6.278,6.278,6.278,6.278,6.278,6.278,6.278,6.278,6.278,6.278,6.278,6.278,6.278,6.278,6.278,6.278,6.278,6.278,6.278,6.278,6.288,6.3002,6.3194,6.3265,6.3419,6.3602,6.3602,6.3602,6.3602,6.3602,6.3602,6.3602,6.3602,6.3602,6.3602,6.3602,6.3602,6.3602,0.0,0.0,0.0,0.0,0.0,0.0,5.3484,5.3484,5.3518,5.3518,5.3518,5.3518,5.3518,5.3518,5.3551,5.3684,5.3717,0.0,0.0,0.0,0.0,0.0,0.0,0.0,0.0,0.0,5.4335,5.4494,5.4494,5.4494,5.4494,5.4303,5.4239,5.4239,0.0,0.0,0.0,0.0,0.0,0.0,0.0,0.0,0.0,0.0,0.0,0.0,0.0,0.0,0.0,0.0,0.0,0.0,0.0,5.8547,5.9368,6.0162,6.097,6.1777,6.2585,6.278,6.278,6.278,6.278,6.278,6.278,6.278,6.278,6.278,6.278,6.278,6.278,6.278,6.278,6.278,6.278,6.278,6.278,6.278,6.278,6.278,6.278,6.278,6.278,6.278,6.278,6.278,6.278,6.278,6.278,6.278,6.278,6.278,6.278,6.278,6.278,6.278,6.278,6.2805,6.3051,6.3208,6.3231,6.3488,6.3579,6.3602,6.3602,6.3602,6.3602,6.3602,6.3602,6.3602,6.3602,6.3602,6.3602,6.3602,6.3602,6.3602,0.0,0.0,0.0,0.0,0.0,0.0,0.0,5.3518,5.3518,5.3518,5.3518,5.3518,5.3518,5.3518,5.3551,5.3551,5.3651,0.0,0.0,0.0,0.0,0.0,0.0,0.0,0.0,5.3882,5.3948,5.4143,5.4143,5.4143,5.4143,5.4078,5.411,5.4207,5.4207,5.4207,0.0,0.0,0.0,0.0,0.0,0.0,5.7997,0.0,0.0,0.0,0.0,0.0,0.0,0.0,0.0,0.0,0.0,0.0,0.0,5.9515,6.0529,6.1777,6.2585,6.278,6.278,6.278,6.278,6.278,6.278,6.278,6.278,6.278,6.278,6.278,6.278,6.278,6.278,6.278,6.278,6.278,6.278,6.278,6.278,6.278,6.278,6.278,6.278,6.278,6.278,6.278,6.278,6.278,6.278,6.278,6.278,6.278,6.278,6.278,6.278,6.278,6.278,6.278,6.288,6.3002,6.3194,6.3302,6.3442,6.3602,6.3602,6.3602,6.3602,6.3602,6.3602,6.3602,6.3602,6.3602,6.3602,6.3602,6.3602,6.3602,0.0,0.0,0.0,0.0,0.0,0.0,0.0,5.3314,5.3518,5.3518,5.3518,5.3518,5.3518,5.3518,5.3518,5.3518,5.3584,0.0,0.0,0.0,0.0,0.0,0.0,0.0,5.3717,5.3717,5.3816,5.398,5.398,5.398,5.398,5.3915,5.398,5.411,5.4045,5.4078,0.0,0.0,0.0,0.0,0.0,0.0,5.7997,0.0,0.0,0.0,0.0,0.0,0.0,0.0,0.0,0.0,0.0,0.0,0.0,0.0,5.9905,6.0933,6.2071,6.2585,6.278,6.278,6.278,6.278,6.278,6.278,6.278,6.278,6.278,6.278,6.278,6.278,6.278,6.278,6.278,6.278,6.278,6.278,6.278,6.278,6.278,6.278,6.278,6.278,6.278,6.278,6.278,6.278,6.278,6.278,6.278,6.278,6.278,6.278,6.278,6.278,6.278,6.278,6.2855,6.2978,6.3194,6.3242,6.3396,6.3602,6.3602,6.3602,0.0,6.3602,6.3602,6.3602,6.3602,6.3602,6.3602,6.3602,6.3602,6.3602,0.0,0.0,0.0,0.0,0.0,0.0,0.0,5.2868,5.3348,5.3382,5.3416,5.345,5.3518,5.3518,5.3518,5.3518,0.0,0.0,0.0,0.0,0.0,0.0,0.0,0.0,5.3684,5.3684,5.3783,5.3948,5.3948,5.3948,5.3948,5.3783,5.3816,5.398,5.3816,5.3915,0.0,0.0,0.0,0.0,5.6887,5.7449,0.0,0.0,0.0,0.0,0.0,0.0,0.0,0.0,0.0,0.0,0.0,0.0,0.0,0.0,0.0,0.0,0.0,6.2071,6.2732,6.2805,6.278,6.278,6.278,6.278,0.0,6.278,6.278,6.278,6.278,6.278,6.278,6.278,6.278,6.278,6.278,6.278,6.278,6.278,6.278,6.278,6.278,6.278,6.278,6.278,6.278,6.278,6.278,6.278,6.278,6.278,6.278,6.278,6.278,6.278,6.278,6.278,6.2929,6.3075,6.3194,6.3336,6.3488,6.3602,6.3602,6.3602,6.3602,6.3602,6.3602,6.3602,6.3602,6.3602,6.3602,6.3602,6.3602,6.3602,0.0,0.0,0.0,0.0,0.0,0.0,0.0,0.0,0.0,0.0,5.2555,5.2834,5.3416,5.3518,5.3518,0.0,0.0,0.0,0.0,0.0,0.0,0.0,0.0,0.0,5.3551,5.3551,5.3551,5.3618,5.3618,5.3618,5.3618,5.3684,5.375,5.3783,5.3882,5.4045,0.0,0.0,0.0,0.0,5.6695,5.7191,0.0,0.0,0.0,0.0,5.7997,5.7997,0.0,0.0,0.0,0.0,0.0,0.0,0.0,0.0,5.8731,5.9258,5.9685,0.0,6.2034,6.2658,6.278,6.278,0.0,6.278,6.278,6.278,6.278,6.278,6.278,6.278,6.278,6.278,6.278,6.278,6.278,6.278,6.278,6.278,6.278,6.278,6.278,6.278,6.278,6.278,6.278,6.278,6.278,6.278,6.278,6.278,6.278,6.278,6.278,6.278,6.278,6.278,6.2929,6.3075,6.3194,6.3336,6.3488,6.3602,6.3602,6.3602,6.3602,6.3602,6.3602,6.3602,6.3602,6.3602,6.3602,6.3602,6.3602,6.3602,0.0,0.0,0.0,0.0,0.0,0.0,0.0,0.0,0.0,0.0,0.0,5.2624,5.3416,5.3518,0.0,0.0,0.0,0.0,0.0,0.0,0.0,0.0,0.0,5.3518,5.3518,5.3518,5.3518,5.3518,5.3518,5.3518,5.3518,5.3584,5.3618,5.3618,5.3882,5.4045,0.0,0.0,0.0,0.0,5.6456,0.0,0.0,0.0,0.0,0.0,5.7997,5.7997,0.0,5.7997,5.7997,5.7997,0.0,0.0,0.0,0.0,5.8327,5.8731,5.9074,6.0382,6.1704,6.2144,6.2548,6.278,6.278,6.278,6.278,6.278,6.278,6.278,6.278,6.278,6.278,6.278,6.278,6.278,6.278,6.278,6.278,6.278,6.278,6.278,6.278,6.278,6.278,6.278,6.278,6.278,6.278,6.278,6.278,6.278,6.278,6.278,6.278,6.278,6.283,6.288,6.2978,6.3099,6.3289,6.3359,6.3488,6.3602,6.3602,6.3602,6.3602,6.3602,6.3602,6.3602,6.3602,6.3602,6.3602,6.3602,6.3602,6.3602,0.0,0.0,0.0,0.0,0.0,0.0,0.0,0.0,0.0,0.0,0.0,0.0,0.0,0.0,0.0,0.0,0.0,0.0,0.0,0.0,0.0,0.0,5.3518,5.3518,5.3518,5.3518,5.3518,5.3518,5.3518,5.3518,5.3518,5.3518,5.3484,5.3517,5.3883,5.4013,5.4045,0.0,0.0,0.0,5.6221,0.0,0.0,0.0,0.0,0.0,0.0,0.0,0.0,5.7997,5.7997,5.7997,5.7997,0.0,0.0,0.0,0.0,0.0,5.8817,6.0199,6.1447,6.1557,6.2218,6.278,6.278,6.278,6.278,6.278,6.278,6.278,6.278,6.278,6.278,6.278,6.278,6.278,6.278,6.278,6.278,6.278,6.278,6.278,6.278,6.278,6.278,6.278,6.278,6.278,6.278,6.278,6.278,6.278,6.278,6.278,6.278,6.278,6.2855,6.2978,6.3002,6.3147,6.3359,6.3382,6.3511,6.3602,6.3602,6.3602,6.3602,6.3602,6.3602,6.3602,6.3602,6.3602,6.3602,6.3602,6.3602,6.3602,0.0,0.0,0.0,0.0,0.0,0.0,0.0,0.0,0.0,0.0,0.0,0.0,0.0,0.0,0.0,0.0,0.0,0.0,0.0,0.0,0.0,5.3518,5.3518,5.3518,5.3518,5.3518,5.3518,5.3518,5.3518,5.3518,5.3518,5.3518,5.3551,5.3684,5.3882,5.4078,5.4175,5.4399,0.0,5.4865,5.5887,0.0,0.0,0.0,0.0,0.0,0.0,0.0,0.0,5.7997,5.7997,5.7997,5.7997,0.0,0.0,0.0,0.0,0.0,5.8143,5.9355,6.075,6.141,6.2218,6.278,6.278,6.278,6.278,6.278,6.278,6.278,6.278,6.278,6.278,6.278,6.278,6.278,6.278,6.278,6.278,6.278,6.278,6.278,6.278,6.278,6.278,6.278,6.278,6.278,6.278,6.278,6.278,6.278,6.278,6.278,6.278,6.278,6.2805,6.283,6.3051,6.3171,6.3255,6.3465,6.3579,6.3602,6.3602,6.3602,6.3602,6.3602,6.3602,6.3602,6.3602,6.3602,6.3602,6.3602,6.3602,6.3602,0.0,0.0,0.0,0.0,0.0,0.0,0.0,0.0,0.0,0.0,0.0,0.0,0.0,0.0,0.0,0.0,0.0,0.0,0.0,0.0,5.3518,5.3518,5.3518,5.3518,5.3518,5.3518,5.3518,5.3518,5.3518,5.3518,5.3518,5.3584,5.3684,5.3882,5.3948,5.4078,5.4207,5.4303,5.4772,5.5513,0.0,0.0,0.0,0.0,0.0,0.0,0.0,0.0,0.0,0.0,5.7997,5.7997,5.7997,0.0,0.0,0.0,0.0,0.0,5.7997,5.9171,6.0493,6.086,6.1887,6.278,6.278,6.278,6.278,6.278,6.278,6.278,6.278,6.278,6.278,6.278,6.278,6.278,6.278,6.278,6.278,6.278,6.278,6.278,6.278,6.278,6.278,6.278,6.278,6.278,6.278,6.278,6.278,6.278,6.278,6.278,6.278,6.288,6.2953,6.3002,6.3123,6.3302,6.3419,6.3534,6.3602,6.3602,6.3602,6.3602,6.3602,6.3602,6.3602,6.3602,6.3602,6.3602,6.3602,6.3602,6.3602,6.3602,0.0,0.0,0.0,0.0,0.0,0.0,0.0,0.0,0.0,0.0,0.0,0.0,0.0,0.0,0.0,0.0,0.0,0.0,0.0,5.3041,5.3518,5.3518,5.3518,5.3518,5.3518,5.3518,5.3518,5.3518,5.3518,5.3518,5.3518,5.3618,5.3783,5.398,5.398,5.411,5.4271,5.4271,5.4983,5.6111,0.0,0.0,0.0,0.0,0.0,0.0,0.0,0.0,0.0,0.0,0.0,0.0,0.0,0.0,0.0,5.7997,5.7997,5.8033,5.8217,5.9318,6.0456,6.0639,6.1741,6.278,6.278,6.278,6.278,6.278,6.278,6.278,6.278,6.278,6.278,6.278,6.278,6.278,6.278,6.278,6.278,6.278,6.278,6.278,6.278,6.278,6.278,6.278,6.278,6.278,6.278,6.278,6.278,6.278,6.278,6.278,6.278,6.2929,6.3051,6.3147,6.3194,6.3336,6.3557,6.3579,6.3602,6.3602,6.3602,6.3602,6.3602,6.3602,6.3602,6.3602,6.3602,6.3602,6.3602,6.3602,6.3602,6.3602,0.0,0.0,0.0,0.0,0.0,0.0,0.0,0.0,0.0,0.0,0.0,0.0,0.0,0.0,0.0,0.0,0.0,0.0,0.0,5.3041,5.3518,5.3518,5.3518,5.3518,5.3518,5.3518,5.3518,5.3518,5.3518,5.3518,5.3518,5.3518,5.3685,5.398,5.398,5.4175,5.4463,5.4463,5.4865,5.5484,5.6083,0.0,0.0,0.0,0.0,0.0,0.0,0.0,0.0,0.0,0.0,0.0,0.0,0.0,5.7997,5.7997,5.7997,5.8143,5.8891,5.9758,6.0566,6.1337,6.2181,6.278,6.278,6.278,6.278,6.278,6.278,6.278,6.278,6.278,6.278,6.278,6.278,6.278,6.278,6.278,6.278,6.278,6.278,6.278,6.278,6.278,6.278,6.278,6.278,6.278,6.278,6.278,6.278,6.278,6.278,6.278,6.278,6.2929,6.3002,6.3026,6.3265,6.3419,6.3405,6.3534,6.3602,6.3602,6.3602,6.3602,6.3602,6.3602,6.3602,6.3602,6.3602,6.3602,6.3602,6.3602,6.3602,6.3602,0.0,0.0,0.0,0.0,0.0,0.0,0.0,0.0,0.0,0.0,0.0,0.0,0.0,0.0,0.0,0.0,0.0,0.0,0.0,5.2023,5.2764,5.2764,5.3246,5.3518,5.3518,5.3518,5.3518,5.3518,5.3518,5.3551,5.3617,5.3617,5.3783,5.411,5.4045,5.4175,5.4494,5.4367,5.4953,5.5971,5.6221,5.6835,0.0,0.0,0.0,0.0,0.0,0.0,0.0,0.0,5.7997,5.7997,5.7997,5.7997,5.7997,5.7997,5.7997,5.818,5.8964,5.9771,6.0603,6.141,6.2218,6.278,6.278,6.278,6.278,6.278,6.278,6.278,6.278,6.278,6.278,6.278,6.278,6.278,6.278,6.278,6.278,6.278,6.278,6.278,6.278,6.278,6.278,6.278,6.278,6.278,6.278,6.278,6.278,6.278,6.278,6.278,6.278,6.2929,6.3051,6.3123,6.3312,6.3428,6.3534,6.3579,6.3602,6.3602,6.3602,6.3602,6.3602,6.3602,6.3602,6.3602,6.3602,6.3602,6.3602,6.3602,6.3602,6.3602,0.0,0.0,0.0,0.0,0.0,0.0,0.0,0.0,0.0,0.0,0.0,0.0,0.0,0.0,0.0,0.0,0.0,0.0,4.9908,5.1177,5.2023,5.2272,5.2834,5.3246,5.3518,5.3518,5.3518,5.3518,5.3518,5.3551,5.3617,5.3684,5.3882,5.4143,5.4078,5.4207,5.4463,5.4367,5.4953,5.6027,5.6027,5.6704,0.0,0.0,0.0,0.0,0.0,0.0,0.0,0.0,5.7997,5.7997,5.7997,5.7997,5.7997,5.7997,5.818,5.8547,5.9355,6.0162,6.097,6.1777,6.2401,6.278,6.278,6.278,6.278,6.278,6.278,6.278,6.278,6.278,6.278,6.278,6.278,6.278,6.278,6.278,6.278,6.278,6.278,6.278,6.278,6.278,6.278,6.278,6.278,6.278,6.278,6.278,6.278,6.278,6.278,6.278,6.278,6.2929,6.3075,6.3194,6.3312,6.3488,6.3602,6.3602,6.3602,6.3602,6.3602,6.3602,6.3602,6.3602,6.3602,6.3602,6.3602,6.3602,6.3602,6.3602,6.3602,6.3602,0.0,0.0,0.0,0.0,0.0,0.0,0.0,0.0,0.0,0.0,0.0,0.0,0.0,0.0,0.0,0.0,0.0,0.0,4.9868,5.0615,5.1443,5.2236,5.2272,5.2659,5.3484,5.345,5.3518,5.3518,5.3518,5.3518,5.3518,5.3617,5.3816,5.4013,5.4143,5.4303,5.4494,5.4494,5.4834,5.5402,5.5402,5.6075,5.7091,0.0,0.0,0.0,0.0,0.0,0.0,0.0,5.7997,5.7997,5.7997,5.7997,5.7997,5.7997,5.8584,5.9368,6.0199,6.1006,6.1777,6.2622,6.278,6.278,6.278,6.278,6.278,6.278,6.278,6.278,6.278,6.278,6.278,6.278,6.278,6.278,6.278,6.278,6.278,6.278,6.278,6.278,6.278,6.278,6.278,6.278,6.278,6.278,6.278,6.278,6.278,6.278,6.278,6.278,6.278,6.2929,6.3075,6.3194,6.3312,6.3488,6.3602,6.3602,6.3602,6.3602,6.3602,6.3602,6.3602,6.3602,6.3602,6.3602,6.3602,6.3602,6.3602,6.3602,6.3602,6.3602,0.0,0.0,0.0,0.0,0.0,0.0,0.0,0.0,0.0,0.0,0.0,0.0,0.0,0.0,0.0,0.0,0.0,0.0,4.8975,4.9789,5.0377,5.0608,5.1145,5.1586,5.1806,5.2378,5.2938,5.3518,5.3518,5.3518,5.3518,5.3617,5.3816,5.4013,5.4143,5.4303,5.4494,5.4494,5.4834,5.5402,5.5402,5.5858,5.6599,0.0,0.0,0.0,0.0,0.0,0.0,0.0,0.0,0.0,5.7997,5.7997,5.7997,5.7997,5.8584,5.9368,6.0199,6.1006,6.1777,6.2622,6.278,6.278,6.278,6.278,6.278,6.278,6.278,6.278,6.278,6.278,6.278,6.278,6.278,6.278,6.278,6.278,6.278,6.278,6.278,6.278,6.278,6.278,6.278,6.278,6.278,6.278,6.278,6.278,6.278,6.278,6.278,6.278,6.278,6.2929,6.3075,6.3194,6.3312,6.3488,6.3602,6.3602,6.3602,6.3602,6.3602,6.3602,6.3602,6.3602,6.3602,6.3602,6.3602,6.3602,6.3602,6.3602,6.3602,6.3602,0.0,0.0,0.0,0.0,0.0,0.0,0.0,0.0,0.0,0.0,4.8604,4.8604,0.0,0.0,0.0,0.0,0.0,0.0,4.8604,4.9097,4.951,4.9868,5.0345,5.0919,5.1553,5.2378,5.3007,5.3518,5.3518,5.3518,5.3518,5.3617,5.3783,5.3882,5.411,5.4271,5.4367,5.4463,5.4714,5.5013,5.5013,5.5402,5.5999,0.0,0.0,0.0,0.0,0.0,0.0,0.0,0.0,0.0,5.7997,5.7997,5.807,5.84,5.9061,5.9869,6.0676,6.1447,6.2181,6.2695,6.278,6.278,6.278,6.278,6.278,6.278,6.278,6.278,6.278,6.278,6.278,6.278,6.278,6.278,6.278,6.278,6.278,6.278,6.278,6.278,6.278,6.278,6.278,6.278,6.278,6.278,6.278,6.278,6.278,6.278,6.278,6.278,6.278,6.288,6.3002,6.3194,6.3265,6.3442,6.3602,6.3602,6.3602,6.3602,6.3602,6.3602,6.3602,6.3602,6.3602,6.3602,6.3602,6.3602,6.3602,6.3602,6.3602,6.3602,0.0,0.0,0.0,0.0,0.0,0.0,0.0,0.0,0.0,0.0,4.8604,4.8604,0.0,0.0,0.0,0.0,0.0,0.0,0.0,4.8604,4.8975,4.9749,4.9789,5.057,5.2164,5.2903,5.3348,5.3518,5.3518,5.3518,5.3518,5.3651,5.375,5.375,5.4078,5.4239,5.4239,5.4399,5.4494,5.4494,5.4494,5.4834,5.5402,5.6055,0.0,0.0,0.0,0.0,0.0,0.0,0.0,0.0,5.7997,5.7997,5.8143,5.8964,5.9795,6.0566,6.1374,6.2181,6.2805,6.2855,6.2904,6.2929,6.2929,6.2929,6.2904,6.2805,6.278,6.278,6.278,6.278,6.278,6.278,6.278,6.278,6.278,6.278,6.278,6.278,6.278,6.278,6.278,6.278,6.278,6.278,6.278,6.278,6.278,6.278,6.278,6.278,6.278,6.278,6.278,6.2805,6.2929,6.3194,6.3194,6.3373,6.3602,6.3602,6.3602,6.3602,6.3602,6.3602,6.3602,6.3602,6.3602,6.3602,6.3602,6.3602,6.3602,6.3602,6.3602,6.3602,0.0,0.0,0.0,0.0,0.0,0.0,0.0,0.0,0.0,0.0,0.0,0.0,0.0,0.0,0.0,0.0,0.0,0.0,0.0,4.8604,4.8687,4.8893,4.8893,4.967,5.1294,5.1516,5.2238,5.3518,5.3518,5.3518,5.3518,5.3817,5.3948,5.3948,5.4271,5.4431,5.4431,5.4463,5.4494,5.4494,5.4494,5.4589,5.4803,5.5887,5.6384,0.0,0.0,0.0,0.0,0.0,0.0,0.0,5.7997,5.7997,5.8143,5.8964,5.9795,6.0566,6.1374,6.2181,6.2904,6.3275,6.3587,6.3808,6.3808,6.3808,6.3631,6.2917,6.278,6.278,6.278,6.278,6.278,6.278,6.278,6.278,6.278,6.278,6.278,6.278,6.278,6.278,6.278,6.278,6.278,6.278,6.278,6.278,6.278,6.278,6.278,6.278,6.278,6.278,6.278,6.2904,6.3026,6.3194,6.3289,6.3465,6.3602,6.3602,6.3602,6.3602,6.3602,6.3602,6.3602,6.3602,6.3602,6.3602,6.3602,6.3602,6.3602,6.3602,6.3602,6.3602,0.0,0.0,0.0,0.0,0.0,0.0,0.0,0.0,0.0,0.0,0.0,0.0,0.0,0.0,0.0,0.0,0.0,0.0,0.0,0.0,4.8604,4.8604,4.939,5.0229,5.107,5.1878,5.2661,5.3518,5.3518,5.3518,5.3518,5.3685,5.3783,5.3882,5.4143,5.4303,5.4367,5.4463,5.4494,5.4494,5.4494,5.4494,5.4589,5.5513,5.6055,5.6412,5.7277,0.0,0.0,0.0,0.0,0.0,0.0,0.0,5.8731,5.9538,6.0346,6.1153,6.1961,6.2475,6.2929,6.3377,6.3803,6.4096,6.4096,6.4096,6.3954,6.352,6.3262,6.3062,6.283,6.278,6.278,6.278,6.278,6.278,6.278,6.278,6.278,6.278,6.278,6.278,6.278,6.278,6.278,6.278,6.278,6.278,6.278,6.278,6.278,6.278,6.278,6.278,6.278,6.2929,6.3075,6.3194,6.3312,6.3488,6.3602,6.3602,6.3602,6.3602,6.3602,6.3602,6.3602,6.3602,6.3602,6.3602,6.3602,6.3602,6.3602,6.3602,6.3602,6.3602,0.0,0.0,0.0,0.0,0.0,0.0,0.0,0.0,0.0,0.0,0.0,0.0,0.0,0.0,0.0,0.0,0.0,0.0,0.0,0.0,0.0,4.8811,5.0151,5.1032,5.1294,5.259,5.3348,5.3518,5.3518,5.3518,5.3518,5.3517,5.3584,5.3717,5.3948,5.411,5.4207,5.4399,5.4494,5.4494,5.4494,5.4494,5.4557,5.5164,5.5716,5.6221,5.6887,5.7425,5.7844,5.7973,0.0,0.0,0.0,0.0,5.9368,6.0162,6.097,6.1777,6.2585,6.2929,6.3158,6.3624,6.4033,6.4312,6.4312,6.4312,6.4293,6.4253,6.3909,6.349,6.311,6.3038,6.299,6.2953,6.2929,6.2904,6.2805,6.278,6.278,6.278,6.278,6.278,6.278,6.278,6.278,6.278,6.278,6.278,6.278,6.278,6.278,6.278,6.278,6.2805,6.283,6.2953,6.3075,6.3255,6.3359,6.3511,6.3602,6.3602,6.3602,6.3602,6.3602,6.3602,6.3602,6.3602,6.3602,6.3602,6.3602,6.3602,6.3602,6.3602,6.3602,6.3602,0.0,0.0,0.0,0.0,0.0,0.0,0.0,0.0,0.0,0.0,4.8604,0.0,0.0,0.0,0.0,0.0,0.0,0.0,0.0,0.0,0.0,4.967,4.9876,5.0659,5.2128,5.2343,5.2799,5.3518,5.3518,5.3518,5.3518,5.3617,5.3684,5.3717,5.4045,5.4207,5.4207,5.4399,5.4494,5.4494,5.4494,5.4494,5.4557,5.5164,5.5461,5.5658,5.6695,5.7166,5.729,5.7821,5.7997,0.0,0.0,0.0,5.9368,6.0162,6.097,6.1777,6.2585,6.334,6.4016,6.4501,6.4913,6.5236,6.5236,6.5236,6.5117,6.4775,6.435,6.3995,6.3934,6.3913,6.3825,6.3468,6.34,6.3238,6.2855,6.278,6.278,6.278,6.278,6.278,6.278,6.278,6.278,6.278,6.278,6.278,6.278,6.278,6.278,6.278,6.278,6.2855,6.2978,6.3002,6.3123,6.3359,6.3511,6.3579,6.3602,6.3602,6.3602,6.3602,6.3602,6.3602,6.3602,6.3602,6.3602,6.3602,6.3602,6.3602,6.3602,6.3602,6.3602,6.3602,0.0,0.0,0.0,0.0,0.0,0.0,0.0,0.0,0.0,0.0,0.0,4.962,0.0,0.0,0.0,4.8666,0.0,0.0,0.0,0.0,0.0,4.9868,5.0306,5.1107,5.2272,5.2764,5.3144,5.3518,5.3518,5.3517,5.3618,5.3618,5.3718,5.3882,5.4013,5.4175,5.4367,5.4463,5.4494,5.4494,5.4494,5.4494,5.4526,5.4772,5.5104,5.549,5.5971,5.6536,5.7141,5.7425,5.7726,5.807,5.8547,0.0,0.0,0.0,6.163,6.2365,6.267,6.3431,6.4136,6.4369,6.4896,6.5413,6.5413,6.5413,6.5329,6.515,6.4964,6.4666,6.4176,6.4096,6.4036,6.3867,6.3631,6.3422,6.3228,6.2978,6.278,6.278,6.278,6.278,6.278,6.278,6.278,6.278,6.278,6.278,6.278,6.278,6.278,6.278,6.278,6.283,6.288,6.3026,6.3242,6.3511,6.3579,6.3602,6.3602,6.3602,6.3602,6.3602,6.3602,6.3602,6.3602,6.3602,6.3602,6.3602,6.3602,6.3602,6.3602,6.3602,6.3602,6.3602,0.0,0.0,0.0,0.0,0.0,0.0,0.0,0.0,0.0,0.0,0.0,0.0,0.0,0.0,0.0,0.0,4.8881,0.0,0.0,0.0,0.0,5.0182,5.0957,5.1769,5.2589,5.3212,5.3551,5.3551,5.3551,5.3584,5.3717,5.3551,5.3651,5.3915,5.3915,5.411,5.4399,5.4399,5.4431,5.4494,5.4494,5.4494,5.4494,5.4494,5.4911,5.5474,5.5413,5.6304,5.7454,5.7427,5.7935,5.8694,5.9318,6.0052,0.0,0.0,0.0,6.2855,6.3086,6.3609,6.4136,6.4388,6.4913,6.5413,6.5413,6.5413,6.5413,6.5413,6.5413,6.5182,6.4557,6.4445,6.4407,6.4274,6.4033,6.3739,6.3535,6.3205,6.2953,6.2805,6.278,6.278,6.278,6.278,6.278,6.278,6.278,6.278,6.278,6.278,6.278,6.278,6.278,6.2805,6.2855,6.3075,6.3326,6.3557,6.3557,6.3557,6.3602,6.3602,6.3602,6.3602,6.3602,6.3602,6.3602,6.3602,6.3602,6.3602,6.3602,6.3602,6.3602,6.3602,6.3602,6.3602,0.0,0.0,0.0,0.0,0.0,0.0,0.0,0.0,0.0,0.0,0.0,0.0,5.0636,5.0636,5.0359,4.9682,4.962,4.9343,4.8666,4.9349,0.0,5.0995,5.1806,0.0,5.3416,5.3484,5.3551,5.3684,5.3551,5.3584,5.3717,5.3551,5.3584,5.3717,5.3717,5.3915,5.4239,5.4239,5.4335,5.4494,5.4494,5.4494,5.4494,5.4494,5.4943,5.5588,5.5474,5.6757,5.8486,5.8274,5.9163,6.0272,6.0309,6.0896,6.1557,0.0,0.0,0.0,6.3787,6.4056,6.4293,6.5117,6.5383,6.5413,6.5413,6.5413,6.5413,6.5413,6.5413,6.5398,6.5329,6.5329,6.522,6.481,6.4739,6.4426,6.3624,6.3468,6.3285,6.2855,6.278,6.278,6.278,6.278,6.278,6.278,6.278,6.278,6.278,6.278,6.278,6.278,6.278,6.2855,6.3002,6.3123,6.3265,6.3405,6.3405,6.3488,6.3602,6.3602,6.3602,6.3602,6.3602,6.3602,6.3602,6.3602,6.3602,6.3602,6.3602,6.3602,6.3602,6.3602,6.3602,6.3602,0.0,0.0,0.0,0.0,0.0,0.0,0.0,0.0,0.0,0.0,0.0,0.0,0.0,5.1344,5.1067,5.0389,4.9928,4.9625,4.9452,4.971,0.0,5.1806,5.2238,5.2802,5.3584,5.375,5.3783,5.3717,5.3651,5.3651,5.3717,5.3651,5.375,5.4013,5.3948,5.4013,5.4242,5.4851,5.5154,5.5253,5.577,5.5977,5.5977,5.5977,5.615,5.6355,5.6304,5.7048,5.8072,5.8387,5.9095,5.9987,0.0,6.1374,6.1704,6.2218,6.2585,6.2917,6.3543,6.3871,6.4235,6.4862,6.522,6.5413,6.5413,6.5413,6.5413,6.5413,6.5413,6.5413,6.5413,6.5413,6.5345,6.522,6.4985,6.4595,6.3992,6.3653,6.3308,6.2855,6.278,6.278,6.278,6.278,6.278,6.278,6.278,6.278,6.278,6.278,6.278,6.278,6.278,6.2855,6.3002,6.3051,6.3171,6.3382,6.3382,6.3488,6.3602,6.3602,6.3602,6.3602,6.3602,6.3602,6.3602,6.3602,6.3602,6.3602,6.3602,6.3602,6.3602,6.3602,6.3602,6.3602,0.0,0.0,0.0,0.0,0.0,0.0,0.0,0.0,5.2698,5.2698,0.0,0.0,0.0,0.0,5.2324,5.1947,5.1069,5.056,5.0682,5.0698,5.1177,5.2236,5.2627,5.3212,5.4091,5.4224,5.429,5.4257,5.4224,5.4055,5.3882,5.4055,5.429,5.452,5.4761,5.4792,5.4716,5.5537,5.5947,5.6046,5.6598,5.6805,5.6805,5.6805,5.6943,5.715,5.6874,5.7538,5.8519,5.8627,5.943,6.0465,0.0,0.0,0.0,0.0,6.278,6.2904,6.3354,6.3696,6.4053,6.4649,6.5002,6.5236,6.5345,6.5413,6.5413,6.5413,6.5413,6.5413,6.5413,6.5413,6.5413,6.5413,6.5188,6.4845,6.4407,6.3971,6.3557,6.3086,6.2904,6.278,6.278,6.278,6.278,6.278,6.278,6.278,6.278,6.278,6.278,6.278,6.278,6.283,6.2929,6.2978,6.3123,6.3312,6.3359,6.3488,6.3602,6.3602,6.3602,6.3602,6.3602,6.3602,6.3602,6.3602,6.3602,6.3602,6.3602,6.3602,6.3602,6.3602,6.3602,6.3602,0.0,0.0,0.0,0.0,0.0,0.0,0.0,0.0,5.2788,5.2788,0.0,0.0,0.0,0.0,0.0,5.4308,5.3058,5.2248,5.2253,5.2273,5.2343,5.2343,0.0,0.0,5.4839,5.4873,5.5041,5.5372,5.5173,5.4831,5.4242,5.4865,5.5141,5.5175,5.6129,5.6227,5.5704,5.6297,5.664,5.684,5.6874,5.6874,5.6874,5.6874,5.7322,5.784,5.7116,5.8201,5.9864,5.9159,6.0226,6.1842,0.0,0.0,0.0,0.0,0.0,0.0,0.0,0.0,0.0,6.4576,6.4775,6.4862,6.5267,6.536,6.5398,6.5345,6.536,6.5413,6.536,6.5413,6.5413,6.5413,6.5413,6.5267,6.4882,6.4407,6.3934,6.3557,6.3086,6.278,6.278,6.278,6.278,6.278,6.278,6.278,6.278,6.278,6.278,6.278,6.278,6.2805,6.2805,6.2929,6.3075,6.3231,6.3312,6.3488,6.3602,6.3602,6.3602,6.3602,6.3602,6.3602,6.3602,6.3602,6.3602,6.3602,6.3602,6.3602,6.3602,6.3602,6.3602,6.3602,0.0,0.0,0.0,0.0,0.0,5.4569,5.4569,5.4569,5.4569,0.0,0.0,0.0,5.4569,5.4819,5.4858,5.4514,5.3604,5.316,5.3443,5.2959,5.294,5.3483,5.3849,5.4115,5.4386,5.455,5.4581,5.4516,5.5066,5.5171,5.4866,5.5719,5.6129,5.6164,5.7087,5.7394,5.7288,5.7428,5.7531,5.7633,5.8185,5.8392,5.8392,5.8392,5.853,5.8668,5.8461,5.8803,5.9315,5.9631,6.0078,6.0681,0.0,0.0,0.0,0.0,0.0,0.0,6.3354,0.0,0.0,0.0,0.0,0.0,6.4445,6.4739,6.4862,6.4538,6.4947,6.5298,6.5019,6.522,6.5413,6.5413,6.5413,6.5267,6.4882,6.4407,6.3934,6.3557,6.3086,6.278,6.278,6.278,6.278,6.278,6.278,6.278,6.278,6.278,6.278,6.278,6.278,6.283,6.2953,6.2978,6.3123,6.3336,6.3359,6.3488,6.3602,6.3602,6.3602,6.3602,6.3602,6.3602,6.3602,6.3602,6.3602,6.3602,6.3602,6.3602,6.3602,6.3602,6.3602,6.3602,0.0,0.0,0.0,0.0,0.0,5.5312,5.5312,5.5312,5.5353,0.0,0.0,0.0,5.6041,5.608,5.6111,5.6212,5.5214,5.4634,5.4868,5.3889,5.3517,5.398,5.4078,5.4417,5.5134,5.5298,5.5468,5.5745,5.6192,5.6228,5.582,5.6675,5.7087,5.7121,5.7979,5.8357,5.8357,5.8357,5.8357,5.8392,5.884,5.9012,5.9012,5.9012,5.9012,5.9012,5.9012,5.9012,5.9081,5.945,5.9779,6.0223,0.0,0.0,0.0,0.0,0.0,0.0,0.0,0.0,0.0,0.0,0.0,0.0,6.4056,6.4331,6.4426,6.4136,6.452,6.481,6.4538,6.4684,6.4862,6.4862,6.4862,6.4845,6.4792,6.4253,6.3761,6.3535,6.3086,6.278,6.278,6.278,6.278,6.278,6.278,6.278,6.278,6.278,6.278,6.278,6.278,6.283,6.2929,6.3026,6.3147,6.3312,6.3442,6.3534,6.3602,6.3602,6.3602,6.3602,6.3602,6.3602,6.3602,6.3602,6.3602,6.3602,6.3602,6.3602,6.3602,6.3602,6.3602,6.3602,0.0,0.0,5.5474,5.5595,5.5595,5.5595,5.5595,5.5595,5.5643,0.0,5.5883,5.6237,5.7222,5.7335,5.7665,5.8455,5.7226,5.6372,5.6372,5.5072,5.4285,5.4285,5.4285,5.5001,5.6504,5.6538,5.6949,5.7771,5.7874,5.7564,5.6943,5.7667,5.8012,5.8047,5.8737,5.9012,5.9012,5.9012,5.9012,5.9012,5.9012,5.8978,5.8978,5.8978,5.9012,5.9012,5.9012,5.9012,5.9012,5.9012,5.945,6.0192,0.0,0.0,0.0,0.0,6.2705,0.0,0.0,0.0,0.0,0.0,6.3422,0.0,6.385,6.3975,6.4016,6.3954,6.4016,6.4076,6.4036,6.4056,6.4096,6.4096,6.4056,6.4176,6.4668,6.4012,6.349,6.349,6.3086,6.278,6.278,6.278,6.278,6.278,6.278,6.278,6.278,6.278,6.278,6.278,6.278,6.2805,6.283,6.3075,6.3194,6.3255,6.3488,6.3602,6.3602,6.3602,6.3602,6.3602,6.3602,6.3602,6.3602,6.3602,6.3602,6.3602,6.3602,6.3602,6.3602,6.3602,6.3602,6.3602,0.0,5.6844,5.6575,5.7293,5.7406,5.7406,5.7406,5.7406,5.7406,5.7443,5.7591,5.7775,5.7991,5.8135,5.8384,5.8701,5.7844,5.7398,5.7533,5.674,5.6258,5.6258,5.6258,5.6429,5.6705,5.6739,5.6841,5.7012,5.7598,5.784,5.7702,5.8461,5.8806,5.8806,5.8944,5.9012,5.9012,5.9012,5.9012,5.9012,5.9012,5.8944,5.884,5.8944,5.9012,5.9012,5.9012,5.9012,5.9012,5.9012,5.945,6.0033,6.0286,0.0,0.0,6.1897,0.0,0.0,0.0,0.0,0.0,0.0,6.2953,0.0,6.3038,6.3354,6.3535,6.3158,6.3631,6.3995,6.3674,6.3888,6.4096,6.4096,6.3846,6.3761,6.4194,6.3803,6.349,6.349,6.3086,6.278,6.278,6.278,6.278,6.278,6.278,6.278,6.278,6.278,6.278,6.278,6.278,6.2904,6.3099,6.3147,6.3326,6.3511,6.3579,6.3602,6.3602,6.3602,6.3602,6.3602,6.3602,6.3602,6.3602,6.3602,6.3602,6.3602,6.3602,6.3602,6.3602,6.3602,6.3602,6.3602,5.7808,5.7554,5.7406,5.7954,5.8027,5.8063,5.8171,5.8171,5.8241,5.8348,5.8491,5.8597,5.8597,5.8667,5.8771,5.8909,5.8187,5.7808,5.7909,5.7219,5.6805,5.6805,5.6805,5.6978,5.7357,5.7357,5.7529,5.7909,5.8288,5.8461,5.8461,5.884,5.9012,5.9012,5.9012,5.9012,5.9012,5.9012,5.8944,5.8909,5.8978,5.8944,5.8909,5.8978,5.9012,5.9012,5.9012,5.9012,5.9012,5.9012,5.9216,5.9582,5.9873,6.0223,6.059,0.0,6.164,6.1951,0.0,0.0,0.0,6.278,0.0,0.0,0.0,6.2965,6.3086,6.2855,6.3144,6.3363,6.3205,6.3331,6.3453,6.3453,6.3285,6.3215,6.3408,6.3285,6.3158,6.3158,6.2953,6.278,6.278,6.278,6.278,6.278,6.278,6.278,6.278,6.278,6.278,6.278,6.2855,6.2953,6.3099,6.3218,6.3373,6.3511,6.3557,6.3602,6.3602,6.3602,6.3602,6.3602,6.3602,6.3602,6.3602,6.3602,6.3602,6.3602,6.3602,6.3602,6.3602,6.3602,6.3602,6.3602,5.7918,5.7881,5.7954,5.8099,5.8171,5.8243,5.8419,5.849,5.8561,5.8701,5.8875,5.8944,5.8944,5.8978,5.9012,5.9012,5.8461,5.8116,5.8116,5.7564,5.7219,5.7219,5.7219,5.7495,5.8116,5.8116,5.8392,5.9012,5.9012,5.9012,5.9012,5.9012,5.9012,5.9012,5.9012,5.9012,5.9012,5.9012,5.8944,5.884,5.8944,5.8978,5.8944,5.8978,5.9012,5.9012,5.9012,5.9012,5.9012,5.9012,5.9012,5.9115,5.9648,5.9811,0.0,0.0,0.0,0.0,0.0,0.0,0.0,0.0,0.0,6.278,0.0,0.0,0.0,6.278,6.278,6.278,6.278,6.278,6.278,6.278,6.278,6.278,6.278,6.278,6.278,6.278,6.278,6.278,6.278,6.278,6.278,6.278,6.278,6.278,6.278,6.278,6.278,6.278,6.2929,6.3026,6.3051,6.3265,6.3405,6.3465,6.3557,6.3602,6.3602,6.3602,6.3602,6.3602,6.3602,6.3602,6.3602,6.3602,6.3602,6.3602,6.3602,6.3602,6.3602,6.3602,6.3602,6.3602,5.7918,5.7881,5.7918,5.7918,5.8063,5.8241,5.8241,5.8384,5.8525,5.8525,5.8701,5.8806,5.8806,5.8944,5.9012,5.9012,5.8944,5.8875,5.8875,5.8806,5.8771,5.8771,5.8771,5.8806,5.8875,5.8875,5.8944,5.9012,5.9012,5.9012,5.9012,5.9012,5.9012,5.9012,5.9012,5.9012,5.9012,5.9012,5.8978,5.8978,5.8978,5.8944,5.884,5.8944,5.9012,5.9012,5.9012,5.9012,5.9012,5.9012,5.9012,5.9012,0.0,5.9115,5.9216,5.9905,0.0,0.0,0.0,0.0,0.0,0.0,6.278,0.0,6.278,0.0,6.278,6.278,0.0,6.278,6.278,0.0,0.0,6.278,6.278,6.278,6.278,6.278,6.278,6.278,6.278,6.278,6.278,6.278,6.278,6.278,6.278,6.278,6.278,6.278,6.278,6.278,6.2929,6.3051,6.3171,6.3312,6.3465,6.3579,6.3579,6.3602,6.3602,6.3602,6.3602,6.3602,6.3602,6.3602,6.3602,6.3602,6.3602,6.3602,6.3602,6.3602,6.3602,6.3602,6.3602,6.3602,5.8063,5.8171,0.0,5.8419,5.849,5.8596,5.8632,5.8736,5.8771,5.8771,5.884,5.8944,5.8944,5.8944,5.9012,5.9012,5.9012,5.9012,5.9012,5.9012,5.9012,5.9012,5.9012,5.9012,5.9012,5.9012,5.9012,5.9012,5.9012,5.9012,5.9012,5.9012,5.9012,5.9012,5.9012,5.9012,5.9047,5.9495,5.9702,5.9737,6.0151,6.0323,6.0149,5.9323,5.9012,5.9012,5.9012,5.9012,5.9012,5.9012,5.9323,5.9599,0.0,0.0,0.0,5.9455,0.0,0.0,0.0,0.0,0.0,0.0,0.0,0.0,6.2281,0.0,6.278,6.278,0.0,0.0,0.0,0.0,0.0,0.0,6.278,6.278,6.278,6.278,6.278,6.278,6.278,6.278,6.278,6.278,6.278,6.278,6.278,6.278,6.278,6.278,6.278,6.278,6.3002,6.3123,6.3194,6.3419,6.3534,6.3602,6.3602,6.3602,6.3602,6.3602,6.3602,6.3602,6.3602,6.3602,6.3602,6.3602,6.3602,6.3602,6.3602,6.3602,6.3602,6.3602,6.3602,6.3602,5.8384,0.0,0.0,5.8666,5.8736,5.884,5.8978,5.9012,5.9012,5.9012,5.9012,5.9012,5.9012,5.9012,5.9012,5.9012,5.9012,5.9012,5.9012,5.9012,5.9012,5.9012,5.9012,5.9012,5.9012,5.9012,5.9012,5.9012,5.9012,5.9012,5.9012,5.9012,5.9012,5.9012,5.9254,5.9323,5.9392,6.0185,6.0496,6.0565,6.1082,6.1289,6.1185,6.0082,5.9633,5.9633,5.9633,5.9633,5.9633,5.9633,6.0013,6.0392,5.9806,6.0047,6.0392,0.0,0.0,0.0,6.0253,0.0,0.0,0.0,0.0,0.0,0.0,0.0,0.0,0.0,6.278,0.0,0.0,0.0,6.278,6.278,0.0,6.278,6.278,6.278,6.278,6.278,6.278,6.278,6.278,6.278,6.278,6.278,6.278,6.278,6.278,6.278,6.2805,6.2855,6.3075,6.3231,6.3242,6.3488,6.3602,6.3602,6.3602,6.3602,6.3602,6.3602,6.3602,6.3602,6.3602,6.3602,6.3602,6.3602,6.3602,6.3602,6.3602,6.3602,6.3602,6.3602,6.3602,6.3602,5.8771,5.8631,0.0,5.8525,5.8666,5.884,5.8978,5.9012,5.9012,5.9012,5.9012,5.9012,5.9012,5.9012,5.9012,5.9012,5.9012,5.9012,5.9012,5.9012,5.9012,5.9012,5.9012,5.9012,5.9012,5.9012,5.9012,5.9012,5.9012,5.9012,5.9012,5.9012,5.9012,5.9047,5.9806,6.0151,6.022,6.0944,6.1254,6.1254,6.1289,6.1289,6.1289,6.1254,6.122,6.122,6.122,6.122,6.122,6.122,6.1254,6.1254,6.122,6.1254,0.0,0.0,0.0,0.0,0.0,6.0563,6.0192,6.0766,6.0944,6.112,6.1723,0.0,6.2086,0.0,0.0,0.0,0.0,0.0,0.0,0.0,0.0,0.0,0.0,6.278,6.278,6.278,6.278,6.278,6.278,6.278,6.278,6.278,6.278,6.278,6.278,6.278,6.2855,6.3002,6.3123,6.3242,6.3382,6.3534,6.3602,6.3602,6.3602,6.3602,6.3602,6.3602,6.3602,6.3602,6.3602,6.3602,6.3602,6.3602,6.3602,6.3602,6.3602,6.3602,6.3602,6.3602,6.3602,6.3602,0.0,0.0,0.0,5.9012,5.8875,5.8944,5.8978,5.9012,5.9012,5.9012,5.9012,5.9012,5.9012,5.9012,5.9012,5.9012,5.9012,5.9012,5.9012,5.9012,5.9012,5.9012,5.9012,5.9012,5.9012,5.9012,5.9012,5.9012,5.9012,5.9012,5.9012,5.953,5.9806,5.984,6.0599,6.0944,6.0978,6.1772,6.2082,6.2117,6.2634,6.2806,6.2703,6.1703,6.1289,6.1289,6.1289,6.1289,6.1289,6.1289,6.1634,6.1979,6.1461,6.1668,6.1979,6.1461,6.1116,6.098,6.1155,6.1051,6.0911,6.1114,6.1478,6.1757,6.1446,0.0,0.0,0.0,0.0,0.0,0.0,0.0,0.0,0.0,0.0,0.0,0.0,6.278,6.278,6.278,6.278,6.278,6.278,6.278,6.278,6.278,6.278,6.278,6.278,6.278,6.2855,6.3002,6.3123,6.3242,6.3382,6.3534,6.3602,6.3602,6.3602,6.3602,6.3602,6.3602,6.3602,6.3602,6.3602,6.3602,6.3602,6.3602,6.3602,6.3602,6.3602,6.3602,6.3602,6.3602,6.3602,6.3602,6.1949,6.1848,6.1259,6.0013,5.984,5.984,5.984,5.984,5.984,5.984,5.984,5.984,5.984,5.984,5.9702,5.9461,5.9426,5.9426,5.9426,5.9185,5.915,5.9426,5.915,5.9012,5.9012,5.9288,5.9426,5.9426,5.9702,5.9944,6.0182,6.0703,6.1083,6.1387,6.2121,6.23,6.2127,6.2926,6.3094,6.291,6.3393,6.36,6.3496,6.2496,6.2117,6.2117,6.2117,6.2117,6.2117,6.2117,6.2461,6.2806,6.2289,6.2461,6.2772,6.2255,6.1944,6.1737,6.1737,6.153,6.1289,6.1289,6.1641,6.1879,6.1588,6.187,6.2071,0.0,0.0,0.0,0.0,0.0,0.0,0.0,0.0,0.0,0.0,6.278,6.278,6.278,6.278,6.278,6.278,6.278,6.278,6.278,6.278,6.278,6.278,6.278,6.288,6.3075,6.3147,6.3302,6.3488,6.3557,6.3602,6.3602,6.3602,6.3602,6.3602,6.3602,6.3602,6.3602,6.3602,6.3602,6.3602,6.3602,6.3602,6.3602,6.3602,6.3602,6.3602,6.3602,6.3602,6.3602,6.3351,6.2942,6.2255,6.164,6.1393,6.1289,6.1289,6.1289,6.1289,6.1289,6.1289,6.1289,6.1289,6.1289,6.1013,6.0323,6.0254,6.0254,6.0254,5.953,5.9461,6.022,5.953,5.9116,5.9116,0.0,0.0,0.0,6.1014,6.171,6.2383,6.2418,6.2775,6.3505,6.4224,6.4202,6.365,6.4319,6.4218,6.3639,6.3675,6.3675,6.3673,6.3673,6.3637,6.36,6.36,6.36,6.36,6.36,6.36,6.36,6.36,6.36,6.36,6.36,6.3082,6.253,6.253,6.1979,6.1427,6.1427,6.1427,6.1569,6.219,6.2289,6.2453,0.0,0.0,0.0,0.0,0.0,0.0,0.0,0.0,0.0,0.0,6.278,6.278,6.278,6.278,6.278,6.278,6.278,6.278,6.278,6.278,6.278,6.278,6.2805,6.2929,6.3171,6.3231,6.3349,6.3579,6.3602,6.3602,6.3602,6.3602,6.3602,6.3602,6.3602,6.3602,6.3602,6.3602,6.3602,6.3602,6.3602,6.3602,6.3602,6.3602,6.3602,6.3602,6.3602,6.3602,6.3602,6.5019,6.4856,6.4731,6.4536,6.2717,6.1289,6.1289,6.1289,6.1289,6.1289,6.1289,6.1289,6.1289,6.1289,6.122,6.1013,6.1013,6.1013,6.1013,6.084,6.0806,6.1013,6.084,6.0703,6.0703,6.0909,6.1259,6.177,6.198,6.2415,6.312,6.3658,6.4037,6.426,6.5014,6.5209,6.5051,6.4734,6.4497,6.4393,6.4872,6.477,6.4358,6.4358,6.4039,6.36,6.36,6.36,6.36,6.36,6.36,6.36,6.36,6.36,6.36,6.36,6.3462,6.3324,6.3324,6.3151,6.3013,6.3013,6.3013,6.2877,6.254,6.2437,6.244,6.2521,6.2785,6.3015,0.0,0.0,0.0,0.0,0.0,0.0,0.0,0.0,6.278,6.278,6.278,6.278,6.278,6.278,6.278,6.278,6.278,6.278,6.278,6.288,6.3026,6.3171,6.3289,6.3442,6.3602,6.3602,6.3602,6.3602,6.3602,6.3602,6.3602,6.3602,6.3602,6.3602,6.3602,6.3602,6.3602,6.3602,6.3602,6.3602,6.3602,6.3602,6.3602,6.3602,6.3602,6.3602,6.6464,6.6277,6.5971,6.5653,6.4032,6.2718,6.2718,6.247,6.2289,6.2289,6.2289,6.2289,6.2289,6.2289,6.2186,6.1841,6.1806,6.1806,6.1806,6.1496,6.1461,6.1806,6.1496,6.1289,6.1289,6.1634,0.0,6.2808,0.0,6.3828,6.4831,6.5268,6.5599,6.5902,6.6336,6.6338,6.6033,6.5335,6.5039,6.5072,6.5429,6.5365,0.0,6.5039,6.4804,6.4463,6.4463,6.4111,6.36,6.36,6.36,6.36,6.36,6.36,6.36,6.36,6.36,6.36,6.36,6.36,6.36,6.36,6.36,6.3496,6.3082,6.2979,6.3024,6.3271,6.3352,6.3555,6.4111,6.4199,0.0,0.0,0.0,0.0,0.0,0.0,0.0,0.0,6.278,6.278,6.278,6.278,6.278,6.278,6.278,6.278,6.278,6.2929,6.3051,6.3208,6.3312,6.3488,6.3602,6.3602,6.3602,6.3602,6.3602,6.3602,6.3602,6.3602,6.3602,6.3602,6.3602,6.3602,6.3602,6.3602,6.3602,6.3602,6.3602,6.3602,6.3602,6.3602,6.3602,6.3602,6.7606,6.723,6.6648,6.6002,6.5335,6.4873,6.4772,6.4111,6.36,6.36,6.36,6.36,6.36,6.36,6.3324,6.2703,6.2634,6.2634,6.2634,6.1979,6.191,6.2599,6.1979,6.1599,6.1599,6.2289,6.2995,0.0,6.4386,6.5433,6.6823,6.6823,6.7146,6.7687,6.7687,6.735,6.6677,6.6095,6.5811,6.5748,6.5811,6.5811,6.5716,6.5716,6.5685,6.559,6.559,6.4838,6.3858,6.3858,6.3821,6.3712,6.3712,6.3639,6.36,6.36,6.36,6.36,6.36,6.36,6.36,6.36,6.36,6.36,6.36,6.3639,6.3895,6.4601,6.4311,6.4244,6.5387,6.4939,0.0,0.0,0.0,0.0,0.0,0.0,0.0,0.0,6.278,0.0,6.278,6.278,6.278,6.278,6.278,6.278,6.278,6.2953,6.3075,6.3208,6.3373,6.3488,6.3602,6.3602,6.3602,6.3602,6.3602,6.3602,6.3602,6.3602,6.3602,6.3602,6.3602,6.3602,6.3602,6.3602,6.3602,6.3602,6.3602,6.3602,6.3602,6.3602,6.3602,6.3602,6.7687,6.7606,6.7488,6.7341,6.6794,6.613,6.5529,6.4393,6.36,6.36,6.36,6.36,6.36,6.36,6.3531,6.3427,6.3393,6.3393,6.3393,6.3289,6.3255,6.3393,6.3255,6.3186,6.3186,6.3324,6.4008,0.0,6.5358,6.6156,6.7515,6.7515,6.7606,6.7687,6.7687,6.735,6.6736,6.7146,6.6996,6.6559,6.7117,6.6996,6.6529,6.6529,6.6125,6.559,6.559,6.5429,6.527,6.527,6.4872,6.4393,6.4393,6.4039,6.36,6.36,6.36,6.36,6.36,6.36,6.36,6.36,6.36,6.36,6.36,6.4039,6.4635,6.5303,6.5801,6.6223,6.6431,6.5772,0.0,0.0,0.0,0.0,0.0,0.0,0.0,0.0,0.0,6.278,6.278,6.278,6.278,6.278,6.278,6.278,6.278,6.3026,6.3171,6.3194,6.3442,6.3579,6.3602,6.3602,6.3602,6.3602,6.3602,6.3602,6.3602,6.3602,6.3602,6.3602,6.3602,6.3602,6.3602,6.3602,6.3602,6.3602,6.3602,6.3602,6.3602,6.3602,6.3602,6.3602,6.7687,6.7687,6.7687,6.7687,6.7146,6.6589,6.6217,6.5303,6.4393,6.3675,6.36,6.36,6.36,6.36,6.36,6.36,6.36,6.36,6.36,6.36,6.36,6.36,6.36,6.36,6.36,6.3931,6.4601,6.559,6.5971,6.6707,6.7687,6.7687,6.7687,6.7687,6.7687,6.7515,6.723,6.7542,6.7515,6.723,6.7579,6.7488,6.7202,6.7202,6.6996,6.67,6.67,6.67,6.6582,6.5878,6.5365,6.5138,6.5138,6.4905,6.4635,6.4635,6.4358,6.4146,6.4146,6.3859,6.36,6.36,6.36,6.36,6.36,6.4146,6.477,6.5462,6.6192,6.6794,6.7146,6.6545,6.5715,6.4846,0.0,0.0,0.0,0.0,6.278,0.0,0.0,0.0,0.0,6.278,6.278,6.278,6.278,6.278,6.278,6.3051,6.3194,6.3194,6.3465,6.3602,6.3602,6.3602,6.3602,6.3602,6.3602,6.3602,6.3602,6.3602,6.3602,6.3602,6.3602,6.3602,6.3602,6.3602,6.3602,6.3602,6.3602,6.3602,6.3602,6.3602,6.3602,6.3602,6.7981,6.7944,6.7907,6.7724,6.7258,6.6852,6.6707,6.6222,6.54,6.4182,6.4039,6.4039,6.4039,6.4039,6.4039,6.4039,6.4039,6.4039,6.4039,6.4039,6.4039,6.4039,6.4039,6.4039,6.4039,6.4532,6.5138,0.0,0.0,6.7061,6.7687,6.7687,6.7687,6.7687,6.7687,6.7687,6.7687,6.7687,6.7687,6.7687,6.7687,6.7687,6.7687,6.7687,6.7687,6.7687,6.7687,6.7687,6.7515,6.6398,6.5971,6.5846,6.5846,6.5752,6.559,6.559,6.5237,6.4804,6.4804,6.4463,6.4039,6.4039,6.4039,6.4039,6.4039,6.4532,6.5204,6.5752,6.6404,6.7061,6.7606,6.7173,6.6476,6.5705,0.0,0.0,0.0,0.0,0.0,0.0,0.0,0.0,6.278,6.278,6.278,6.278,6.278,6.278,6.278,6.3026,6.3147,6.3147,6.3419,6.3557,6.3557,6.3579,6.3602,6.3602,6.3602,6.3602,6.3602,6.3602,6.3602,6.3602,6.3602,6.3602,6.3602,6.3602,6.3602,6.3602,6.3602,6.3602,6.3602,6.3602,6.3602,6.3602,6.8935,6.8788,6.8568,6.7834,6.766,6.7405,6.6765,6.6648,6.6313,6.5529,6.5397,6.5397,6.5397,6.5397,6.5397,6.5397,6.5397,6.5397,6.5397,6.5397,6.5397,6.5397,6.5397,6.5397,6.5397,6.5462,6.5878,0.0,0.0,6.7061,6.7687,6.7687,6.7687,6.7687,6.7687,6.7687,6.7687,6.7687,6.7687,6.7687,6.7687,6.7687,6.7687,6.7687,6.7687,6.7687,6.7687,6.7687,6.7687,6.7542,6.7117,6.6589,6.6589,6.6125,6.559,6.559,6.5558,6.5494,6.5494,6.5462,6.5397,6.5397,6.5397,6.5397,6.5397,6.5971,6.6529,6.6589,6.7146,6.7633,6.7687,6.7614,6.732,6.6512,0.0,0.0,0.0,0.0,6.278,6.278,0.0,0.0,6.278,6.278,6.278,6.278,6.278,6.278,6.278,6.2929,6.3026,6.3026,6.3265,6.3405,6.3405,6.3534,6.3602,6.3602,6.3602,6.3602,6.3602,6.3602,6.3602,6.3602,6.3602,6.3602,6.3602,6.3602,6.3602,6.3602,6.3602,6.3602,6.3602,6.3602,6.3602,6.3602,6.9669,6.9229,6.8788,6.8495,6.8017,6.7633,6.735,6.7322,6.7202,6.691,6.6125,6.559,6.559,6.559,6.559,6.559,6.559,6.559,6.559,6.559,6.559,6.559,6.559,6.559,6.559,6.6033,6.6404,0.0,0.0,6.7433,6.7687,6.7687,6.7687,6.7687,6.7687,6.7687,6.7687,6.7687,6.7687,6.7687,6.7687,6.7687,6.7687,6.7687,6.7687,6.7687,6.7687,6.7687,6.7687,6.7687,6.7515,6.7322,6.7322,6.7117,6.6881,6.6881,6.6582,6.6283,6.6283,6.594,6.559,6.559,6.559,6.559,6.559,6.6156,6.6707,6.6707,6.723,6.7687,6.7687,6.7687,6.743,6.6623,0.0,0.0,0.0,0.0,0.0,6.278,0.0,6.278,6.278,6.278,6.278,6.278,6.278,6.278,6.278,6.3002,6.3075,6.3002,6.3312,6.3488,6.3382,6.3534,6.3602,6.3602,6.3602,6.3602,6.3602,6.3602,6.3602,6.3602,6.3602,6.3602,6.3602,6.3602,6.3602,6.3602,6.3602,6.3602,6.3602,6.3602,6.3602,6.3602,7.0513,7.0,6.9522,6.9302,6.8605,6.8054,6.8054,6.7834,6.7687,6.7687,6.6816,6.6217,6.6217,6.6217,6.6217,6.6217,6.6217,6.6217,6.6217,6.6217,6.6217,6.6217,6.6217,6.6217,6.6217,6.6736,6.7004,6.7004,6.746,6.7687,6.7687,6.7687,6.7687,6.7687,6.7687,6.7687,6.7687,6.7687,6.7687,6.7687,6.7687,6.7687,6.7687,6.7687,6.7687,6.7687,6.7687,6.7687,6.7687,6.7687,6.7687,6.7687,6.7687,6.7687,6.7687,6.7687,6.7378,6.7004,6.7004,6.6612,6.6217,6.6217,6.6217,6.6217,6.6217,6.6612,6.7004,6.7004,6.7378,6.7687,6.7687,6.7687,6.7504,6.6953,6.6182,0.0,0.0,6.3723,0.0,6.2817,6.278,6.278,6.278,6.278,6.278,6.278,6.278,6.278,6.278,6.3002,6.3099,6.3002,6.3336,6.3511,6.3382,6.3534,6.3602,6.3602,6.3602,6.3602,6.3602,6.3602,6.3602,6.3602,6.3602,6.3602,6.3602,6.3602,6.3602,6.3602,6.3602,6.3602,6.3602,6.3602,6.3602,6.3602,7.1439,7.1256,7.1027,7.022,6.9412,6.8898,6.8898,6.8201,6.7687,6.7687,6.7687,6.7687,6.7687,6.7687,6.7687,6.7687,6.7687,6.7687,6.7687,6.7687,6.7687,6.7687,6.7687,6.7687,6.7687,6.7687,6.7687,6.7687,0.0,6.7687,6.7687,6.7687,6.7687,6.7687,6.7687,6.7687,6.7687,6.7687,6.7687,6.7687,6.7687,6.7687,6.7687,6.7687,6.7687,6.7687,6.7687,6.7687,6.7687,6.7687,6.7687,6.7687,6.7687,6.7687,6.7687,6.7687,6.7687,6.7687,6.7687,6.7687,6.7687,6.7687,6.7687,6.7687,6.7687,6.7687,6.7687,6.7687,6.7687,6.7687,6.7687,6.7687,6.7687,6.7687,6.699,0.0,0.0,6.4604,0.0,6.2915,6.278,6.278,6.278,6.278,6.278,6.278,6.278,6.278,6.278,6.2929,6.3002,6.3002,6.3265,6.3382,6.3382,6.3534,6.3602,6.3602,6.3602,6.3602,6.3602,6.3602,6.3602,6.3602,6.3602,6.3602,6.3602,6.3602,6.3602,6.3602,6.3602,6.3602,6.3602,6.3602,6.3602,6.3602,7.2165,7.1688,7.1219,7.0954,7.0257,6.9522,6.8972,6.8678,6.8311,6.776,6.7687,6.7687,6.7687,6.7687,6.7687,6.7687,6.7687,6.7687,6.7687,6.7687,6.7687,6.7687,6.7687,6.7687,6.7687,6.7687,6.7687,6.7687,6.7687,6.7687,6.7687,6.7687,6.7687,6.7687,6.7687,6.7687,6.7687,6.7687,6.7687,6.7687,6.7687,6.7687,6.7687,6.7687,6.7687,6.7687,6.7687,6.7687,6.7687,6.7687,6.7687,6.7687,6.7687,6.7687,6.7687,6.7687,6.7687,6.7687,6.7687,6.7687,6.7687,6.7687,6.7687,6.7687,6.7687,6.7687,6.7687,6.7687,6.7687,6.7687,6.7687,6.7687,6.7687,6.7687,6.7026,0.0,6.5411,0.0,6.3759,6.2915,6.278,6.278,6.278,6.278,6.278,6.278,6.278,6.278,6.278,6.3002,6.3099,6.3002,6.3336,6.3511,6.3382,6.3534,6.3602,6.3602,6.3602,6.3602,6.3602,6.3602,6.3602,6.3602,6.3602,6.3602,6.3602,6.3602,6.3602,6.3602,6.3602,6.3602,6.3602,6.3602,6.3602,6.3602,7.2496,7.2092,7.1762,7.1762,7.1101,7.0367,6.9889,6.9559,6.9045,6.8238,6.8128,6.8017,6.7724,6.7687,6.7687,6.7687,6.7687,6.7687,6.7687,6.7687,6.7687,6.7687,6.7687,6.7687,6.7687,6.7687,6.7687,6.7687,6.7687,6.7687,6.7687,6.7687,6.7687,6.7687,6.7687,6.7687,6.7687,6.7687,6.7687,6.7687,6.7687,6.7687,6.7687,6.7687,6.7687,6.7687,6.7687,6.7687,6.7687,6.7687,6.7687,6.7687,6.7687,6.7687,6.7687,6.7687,6.7687,6.7687,6.7687,6.7687,6.7687,6.7687,6.7687,6.7687,6.7687,6.7687,6.7687,6.7687,6.7687,6.7687,6.7687,6.7687,6.7687,6.7687,6.7283,6.6549,6.5485,0.0,6.4127,0.0,0.0,6.278,6.278,6.278,6.278,6.278,6.278,6.278,6.278,6.3051,6.3147,6.3075,6.3419,6.3557,6.3488,6.3557,6.3602,6.3602,6.3602,6.3602,6.3602,6.3602,6.3602,6.3602,6.3602,6.3602,6.3602,6.3602,6.3602,6.3602,6.3602,6.3602,6.3602,6.3602,6.3602,6.3602,7.2496,7.2496,7.2496,7.2496,7.1872,7.1329,7.1293,7.066,6.9889,6.9082,6.8935,6.8605,6.7834,6.7724,6.7687,6.7687,6.7687,6.7687,6.7687,6.7687,6.7687,6.7687,6.7687,6.7687,6.7687,6.7687,6.7687,6.7687,6.7687,6.7687,6.7687,6.7687,6.7687,6.7687,6.7687,6.7687,6.7687,6.7687,6.7687,6.7687,6.7687,6.7687,6.7687,6.7687,6.7687,6.7687,6.7687,6.7687,6.7687,6.7687,6.7687,6.7687,6.7687,6.7687,6.7687,6.7687,6.7687,6.7687,6.7687,6.7687,6.7687,6.7687,6.7687,6.7687,6.7687,6.7687,6.7687,6.7687,6.7687,6.7687,6.7687,6.7687,6.7687,6.7687,6.7687,6.7136,6.5595,6.5338,6.4714,6.3074,6.2842,6.278,6.278,6.278,6.278,6.278,6.278,6.278,6.278,6.3051,6.3194,6.3194,6.3465,6.3602,6.3602,6.3624,6.3647,6.3647,6.3602,6.3602,6.3602,6.3602,6.3602,6.3602,6.3602,6.3602,6.3602,6.3602,6.3602,6.3602,6.3602,6.3602,6.3602,6.3602,6.3602,6.3602,7.2496,7.2496,7.2496,7.2496,7.2349,7.2018,7.1366,7.1138,7.0734,6.9926,6.9302,6.8825,6.8641,6.8054,6.7687,6.7687,6.7687,6.7687,6.7687,6.7687,6.7687,6.7687,6.7687,6.7687,6.7687,6.7687,6.7687,6.7687,6.7687,6.7687,6.7687,6.7687,6.7687,6.7687,6.7687,6.7687,6.7687,6.7687,6.7687,6.7687,6.7687,6.7687,6.7687,6.7687,6.7687,6.7687,6.7687,6.7687,6.7687,6.7687,6.7687,6.7687,6.7687,6.7687,6.7687,6.7687,6.7687,6.7687,6.7687,6.7687,6.7687,6.7687,6.7687,6.7687,6.7687,6.7687,6.7687,6.7687,6.7687,6.7687,6.7687,6.7687,6.7687,6.7687,6.7687,6.7357,6.6366,6.5705,6.4934,6.3906,6.3209,6.278,6.278,6.278,6.278,6.278,6.278,6.278,6.278,6.3051,6.3194,6.3194,6.3465,6.3602,6.3602,6.3915,6.4046,6.4046,6.3758,6.3602,6.3602,6.3602,6.3602,6.3602,6.3602,6.3602,6.3602,6.3602,6.3602,6.3602,6.3602,6.3602,6.3602,6.3602,6.3602,6.3602,7.2496,7.2496,7.2496,7.2496,7.2496,7.2349,7.1945,7.1872,7.1578,7.077,7.0293,6.9743,6.8972,6.8495,6.8091,6.7724,6.7687,6.7687,6.7687,6.7687,6.7687,6.7687,6.7687,6.7687,6.7687,6.7687,6.7687,6.7687,6.7687,6.7687,6.7687,6.7687,6.7687,6.7687,6.7687,6.7687,6.7687,6.7687,6.7687,6.7687,6.7687,6.7687,6.7687,6.7687,6.7687,6.7687,6.7687,6.7687,6.7687,6.7687,6.7687,6.7687,6.7687,6.7687,6.7687,6.7687,6.7687,6.7687,6.7687,6.7687,6.7687,6.7687,6.7687,6.7687,6.7687,6.7687,6.7687,6.7687,6.7687,6.7687,6.7687,6.7687,6.7687,6.7687,6.7687,6.7393,6.6623,6.5815,6.5007,6.42,6.3319,6.278,6.278,6.278,6.278,6.278,6.278,6.278,6.278,6.3051,6.3194,6.3194,6.3465,6.3691,6.3873,6.4251,6.4426,6.4426,6.4067,6.3873,6.3873,6.3691,6.3602,6.3602,6.3602,6.3602,6.3602,6.3602,6.3602,6.3602,6.3602,6.3602,6.3602,6.3602,6.3602,6.3602,7.2496,7.2496,7.2496,7.2496,7.2496,7.2496,7.2496,7.2496,7.2275,7.1578,7.1366,7.0807,6.9412,6.9045,6.8641,6.7944,6.776,6.7687,6.7687,6.7687,6.7687,6.7687,6.7687,6.7687,6.7687,6.7687,6.7687,6.7687,6.7687,6.7687,6.7687,6.7687,6.7687,6.7687,6.7687,6.7687,6.7687,6.7687,6.7687,6.7687,6.7687,6.7687,6.7687,6.7687,6.7687,6.7687,6.7687,6.7687,6.7687,6.7687,6.7687,6.7687,6.7687,6.7687,6.7687,6.7687,6.7687,6.7687,6.7687,6.7687,6.7687,6.7687,6.7687,6.7687,6.7687,6.7687,6.7687,6.7687,6.7687,6.7687,6.7687,6.7687,6.7687,6.7687,6.7687,6.7467,6.6769,6.5999,6.5191,6.4383,6.3539,6.2952,6.278,6.278,6.278,6.278,6.278,6.278,6.278,6.3051,6.3218,6.3289,6.3542,6.3915,6.4349,6.4574,6.4734,6.4786,6.4407,6.4209,6.4189,6.3764,6.3602,6.3602,6.3602,6.3602,6.3602,6.3602,6.3602,6.3602,6.3602,6.3602,6.3602,6.3602,6.3602,6.3602,7.2496,7.2496,7.2496,7.2496,7.2496,7.2496,7.2496,7.2496,7.2459,7.2349,7.1725,7.1183,7.0926,6.9706,6.8862,6.8715,6.8091,6.7687,6.7687,6.7687,6.7687,6.7687,6.7687,6.7687,6.7687,6.7687,6.7687,6.7687,6.7687,6.7687,6.7687,6.7687,6.7687,6.7687,6.7687,6.7687,6.7687,6.7687,6.7687,6.7687,6.7687,6.7687,6.7687,6.7687,6.7687,6.7687,6.7687,6.7687,6.7687,6.7687,6.7687,6.7687,6.7687,6.7687,6.7687,6.7687,6.7687,6.7687,6.7687,6.7687,6.7687,6.7687,6.7687,6.7687,6.7687,6.7687,6.7687,6.7687,6.7687,6.7687,6.7687,6.7687,6.7687,6.7687,6.7687,6.765,6.7504,6.6806,6.6035,6.5228,6.4383,6.3613,6.2879,6.278,6.278,6.278,6.278,6.278,6.278,6.3051,6.3345,6.3674,6.3946,6.4445,6.5128,6.4837,6.4854,6.5207,6.4539,6.4209,6.4189,6.3764,6.3602,6.3602,6.3602,6.3602,6.3602,6.3602,6.3602,6.3602,6.3602,6.3602,6.3602,6.3602,6.3602,6.3602,7.2496,7.2496,7.2496,7.2496,7.2496,7.2496,7.2496,7.2496,7.2496,7.2496,7.2202,7.1798,7.1329,7.0257,6.9376,6.8935,6.8164,6.7687,6.7687,6.7687,6.7687,6.7687,6.7687,6.7687,6.7687,6.7687,6.7687,6.7687,6.7687,6.7687,6.7687,6.7687,6.7687,6.7687,6.7687,6.7687,6.7687,6.7687,6.7687,6.7687,6.7687,6.7687,6.7687,6.7687,6.7687,6.7687,6.7687,6.7687,6.7687,6.7687,6.7687,6.7687,6.7687,6.7687,6.7687,6.7687,6.7687,6.7687,6.7687,6.7687,6.7687,6.7687,6.7687,6.7687,6.7687,6.7687,6.7687,6.7687,6.7687,6.7687,6.7687,6.7687,6.7687,6.7687,6.7687,6.7687,6.7687,6.699,6.6219,6.5411,6.4604,6.3759,6.2853,6.278,6.278,6.278,6.278,6.2929,6.3158,6.3377,6.3696,6.4096,6.4575,6.4981,6.5299,6.5329,6.5329,6.5284,6.4737,6.435,6.4189,6.3764,6.3602,6.3602,6.3602,6.3602,6.3602,6.3602,6.3602,6.3602,6.3602,6.3602,6.3602,6.3602,6.3602,6.3602,7.2496,7.2496,7.2496,7.2496,7.2496,7.2496,7.2496,7.2496,7.2496,7.2496,7.2496,7.2275,7.1651,7.0697,6.9853,6.9229,6.8274,6.7687,6.7687,6.7687,6.7687,6.7687,6.7687,6.7687,6.7687,6.7687,6.7687,6.7687,6.7687,6.7687,6.7687,6.7687,6.7687,6.7687,6.7687,6.7687,6.7687,6.7687,6.7687,6.7687,6.7687,6.7687,6.7687,6.7687,6.7687,6.7687,6.7687,6.7687,6.7687,6.7687,6.7687,6.7687,6.7687,6.7687,6.7687,6.7687,6.7687,6.7687,6.7687,6.7687,6.7687,6.7687,6.7687,6.7687,6.7687,6.7687,6.7687,6.7687,6.7687,6.7687,6.7687,6.7687,6.7687,6.7687,6.7687,6.7687,6.7687,6.7173,6.6476,6.5668,6.4861,6.4053,6.3209,6.3015,6.2941,6.2941,6.3062,6.3262,6.3609,6.3825,6.4116,6.4556,6.5041,6.5329,6.5441,6.5755,6.5676,6.5284,6.4871,6.4501,6.4189,6.3764,6.3602,6.3602,6.3602,6.3602,6.3602,6.3602,6.3602,6.3602,6.3602,6.3602,6.3602,6.3602,6.3602,6.3602,7.2496,7.2496,7.2496,7.2496,7.2496,7.2496,7.2496,7.2496,7.2496,7.2496,7.2496,7.2496,7.2422,7.1027,7.0073,7.0,6.8568,6.7687,6.7687,6.7687,6.7687,6.7687,6.7687,6.7687,6.7687,6.7687,6.7687,6.7687,6.7687,6.7687,6.7687,6.7687,6.7687,6.7687,6.7687,6.7687,6.7687,6.7687,6.7687,6.7687,6.7687,6.7687,6.7687,6.7687,6.7687,6.7687,6.7687,6.7687,6.7687,6.7687,6.7687,6.7687,6.7687,6.7687,6.7687,6.7687,6.7687,6.7687,6.7687,6.7687,6.7687,6.7687,6.7687,6.7687,6.7687,6.7687,6.7687,6.7687,6.7687,6.7687,6.7687,6.7687,6.7687,6.7687,6.7687,6.7687,6.7687,6.7677,6.7283,6.6512,6.5705,6.4897,6.409,6.3648,6.3445,6.3445,6.3803,6.4016,6.4036,6.4194,6.4538,6.5128,6.5238,6.5485,6.5872,6.5885,6.5676,6.5284,6.4871,6.4501,6.4189,6.3764,6.3602,6.3602,6.3602,6.3602,6.3602,6.3602,6.3602,6.3602,6.3602,6.3602,6.3602,6.3602,6.3602,6.3602,7.2496,7.2496,7.2496,7.2496,7.2496,7.2496,7.2496,7.2496,7.2496,7.2496,7.2496,7.2496,7.2496,7.1505,7.066,7.0146,6.9082,6.8238,6.7724,6.7687,6.7687,6.7687,6.7687,6.7687,6.7687,6.7687,6.7687,6.7687,6.7687,6.7687,6.7687,6.7687,6.7687,6.7687,6.7687,6.7687,6.7687,6.7687,6.7687,6.7687,6.7687,6.7687,6.7687,6.7687,6.7687,6.7687,6.7687,6.7687,6.7687,6.7687,6.7687,6.7687,6.7687,6.7687,6.7687,6.7687,6.7687,6.7687,6.7687,6.7687,6.7687,6.7687,6.7687,6.7687,6.7687,6.7687,6.7687,6.7687,6.7687,6.7687,6.7687,6.7687,6.7687,6.7687,6.7687,6.7687,6.7687,6.7687,6.7393,6.6586,6.5778,6.5099,6.4535,6.3859,6.3587,6.3867,6.3995,6.4215,6.452,6.4892,6.5253,6.5622,6.5649,6.5755,6.5897,6.5897,6.5676,6.5284,6.4871,6.4501,6.4189,6.3764,6.3602,6.3602,6.3602,6.3602,6.3602,6.3602,6.3602,6.3602,6.3602,6.3602,6.3602,6.3602,6.3602,6.3602,7.2496,7.2496,7.2496,7.2496,7.2496,7.2496,7.2496,7.2496,7.2496,7.2496,7.2496,7.2496,7.2496,7.1798,7.0991,7.0183,6.9376,6.8568,6.7724,6.7687,6.7687,6.7687,6.7687,6.7687,6.7687,6.7687,6.7687,6.7687,6.7687,6.7687,6.7687,6.7687,6.7687,6.7687,6.7687,6.7687,6.7687,6.7687,6.7687,6.7687,6.7687,6.7687,6.7687,6.7687,6.7687,6.7687,6.7687,6.7687,6.7687,6.7687,6.7687,6.7687,6.7687,6.7687,6.7687,6.7687,6.7687,6.7687,6.7687,6.7687,6.7687,6.7687,6.7687,6.7687,6.7687,6.7687,6.7687,6.7687,6.7687,6.7687,6.7687,6.7687,6.7687,6.7687,6.7687,6.7687,6.7687,6.7687,6.7504,6.6953,6.6182,6.5617,6.5501,6.4629,6.4241,6.465,6.4558,6.4648,6.4985,6.5367,6.5649,6.5795,6.5872,6.5897,6.5897,6.5897,6.5676,6.5299,6.5025,6.4648,6.4209,6.3937,6.3736,6.3602,6.3602,6.3602,6.3602,6.3602,6.3602,6.3602,6.3602,6.3602,6.3639,6.3899,6.3988,6.4025,7.2496,7.2496,7.2496,7.2496,7.2496,7.2496,7.2496,7.2496,7.2496,7.2496,7.2496,7.2496,7.2496,7.1798,7.0991,7.0183,6.9376,6.8568,6.7724,6.7687,6.7687,6.7687,6.7687,6.7687,6.7687,6.7687,6.7687,6.7687,6.7687,6.7687,6.7687,6.7687,6.7687,6.7687,6.7687,6.7687,6.7687,6.7687,6.7687,6.7687,6.7687,6.7687,6.7687,6.7687,6.7687,6.7687,6.7687,6.7687,6.7687,6.7687,6.7687,6.7687,6.7687,6.7687,6.7687,6.7687,6.7687,6.7687,6.7687,6.7687,6.7687,6.7687,6.7687,6.7687,6.7687,6.7687,6.7687,6.7687,6.7687,6.7687,6.7687,6.7687,6.7687,6.7687,6.7687,6.7687,6.7687,6.7687,6.7687,6.7714,6.7016,6.6673,6.7182,6.6073,6.5516,6.597,6.5645,6.5413,6.5413,6.5523,6.5594,6.5594,6.5781,6.5897,6.5897,6.5897,6.5676,6.5299,6.5299,6.4909,6.4209,6.4209,6.3963,6.3602,6.3602,6.3602,6.3602,6.3602,6.3602,6.3602,6.3616,6.3616,6.3713,6.4508,6.4805,6.4916,7.2496,7.2496,7.2496,7.2496,7.2496,7.2496,7.2496,7.2496,7.2496,7.2496,7.2496,7.2496,7.2496,7.1798,7.0991,7.0183,6.9376,6.8568,6.7724,6.7687,6.7687,6.7687,6.7687,6.7687,6.7687,6.7687,6.7687,6.7687,6.7687,6.7687,6.7687,6.7687,6.7687,6.7687,6.7687,6.7687,6.7687,6.7687,6.7687,6.7687,6.7687,6.7687,6.7687,6.7687,6.7687,6.7687,6.7687,6.7687,6.7687,6.7687,6.7687,6.7687,6.7687,6.7687,6.7687,6.7687,6.7687,6.7687,6.7687,6.7687,6.7687,6.7687,6.7687,6.7687,6.7687,6.7687,6.7687,6.7687,6.7687,6.7687,6.7687,6.7687,6.7687,6.7687,6.7687,6.7687,6.7687,6.7687,6.781,6.816,6.7469,6.7286,6.8039,6.7258,6.6632,6.65,6.581,6.542,6.5523,6.558,6.5649,6.5795,6.5872,6.5897,6.5897,6.5897,6.5821,6.5728,6.5441,6.5025,6.4519,6.431,6.3963,6.3602,6.3602,6.3602,6.3639,6.4233,6.4433,6.4508,6.5125,6.5348,6.5385,6.5645,6.5719,6.5756,7.2496,7.2496,7.2496,7.2496,7.2496,7.2496,7.2496,7.2496,7.2496,7.2496,7.2496,7.2496,7.2496,7.1798,7.0991,7.0183,6.9082,6.8201,6.7724,6.7687,6.7687,6.7687,6.7687,6.7687,6.7687,6.7687,6.7687,6.7687,6.7687,6.7687,6.7687,6.7687,6.7687,6.7687,6.7687,6.7687,6.7687,6.7687,6.7687,6.7687,6.7687,6.7687,6.7687,6.7687,6.7687,6.7687,6.7687,6.7687,6.7687,6.7687,6.7687,6.7687,6.7687,6.7687,6.7687,6.7687,6.7687,6.7687,6.7687,6.7687,6.7687,6.7687,6.7687,6.7687,6.7687,6.7687,6.7687,6.7687,6.7687,6.7687,6.7687,6.7687,6.7687,6.7687,6.7687,6.7767,6.7967,6.7993,6.8148,6.8665,6.8286,6.8297,6.8982,6.8279,6.7625,6.7232,6.6674,6.6468,6.6586,6.6629,6.6699,6.6859,6.6885,6.6898,6.6898,6.6898,6.6551,6.5897,6.5649,6.5253,6.4699,6.4841,6.4616,6.4085,6.4456,6.4605,6.4642,6.5125,6.5287,6.5385,6.5905,6.6091,6.6128,6.6462,6.6574,6.6611,7.2496,7.2496,7.2496,7.2496,7.2496,7.2496,7.2496,7.2496,7.2496,7.2496,7.2496,7.2496,7.2496,7.1725,7.0917,7.0146,6.8605,6.7687,6.7687,6.7687,6.7687,6.7687,6.7687,6.7687,6.7687,6.7687,6.7687,6.7687,6.7687,6.7687,6.7687,6.7687,6.7687,6.7687,6.7687,6.7687,6.7687,6.7687,6.7687,6.7687,6.7687,6.7687,6.7687,6.7687,6.7687,6.7687,6.7687,6.7687,6.7687,6.7687,6.7687,6.7687,6.7687,6.7687,6.7687,6.7687,6.7687,6.7687,6.7687,6.7687,6.7687,6.7687,6.7687,6.7687,6.7687,6.7687,6.7687,6.7687,6.7687,6.7687,6.7687,6.7687,6.7714,6.7767,6.7767,6.7941,6.8394,6.849,6.8665,6.9223,6.9248,6.9468,6.9907,6.9183,6.8489,6.8034,6.7951,6.7959,6.8112,6.8162,6.8234,6.8304,6.8358,6.8385,6.8385,6.8385,6.7628,6.6128,6.6128,6.5729,6.4979,6.5778,6.5705,6.4985,6.578,6.6091,6.6128,6.6202,6.6202,6.6202,6.6314,6.6314,6.6425,6.7168,6.7428,6.7503,7.2496,7.2496,7.2496,7.2496,7.2496,7.2496,7.2496,7.2496,7.2496,7.2496,7.2496,7.2496,7.2496,7.1211,7.0293,7.011,6.8605,6.7687,6.7687,6.7687,6.7687,6.7687,6.7687,6.7687,6.7687,6.7687,6.7687,6.7687,6.7687,6.7687,6.7687,6.7687,6.7687,6.7687,6.7687,6.7687,6.7687,6.7687,6.7687,6.7687,6.7687,6.7687,6.7687,6.7687,6.7687,6.7687,6.7687,6.7687,6.7687,6.7687,6.7687,6.7687,6.7687,6.7687,6.7687,6.7687,6.7687,6.7687,6.7687,6.7687,6.7687,6.7687,6.7687,6.7687,6.7687,6.7687,6.7687,6.7687,6.7687,6.7687,6.7687,6.7687,6.781,6.821,6.8222,6.8418,6.887,6.8988,6.9223,6.9702,6.9777,7.0033,7.0477,6.9727,6.9122,6.8945,6.8441,6.8148,6.8162,6.8234,6.8304,6.8371,6.8385,6.8385,6.8385,6.8385,6.8244,6.7859,6.7859,6.7606,6.7114,6.7002,6.671,6.6277,6.6141,6.6091,6.6165,6.6797,6.7057,6.7094,6.7725,6.7961,6.8023,6.8208,6.8246,6.8283,7.2496,7.2496,7.2496,7.2496,7.2496,7.2496,7.2496,7.2496,7.2496,7.2496,7.2496,7.2496,7.2496,7.1064,6.9779,6.9009,6.8164,6.7687,6.7687,6.7687,6.7687,6.7687,6.7687,6.7687,6.7687,6.7687,6.7687,6.7687,6.7687,6.7687,6.7687,6.7687,6.7687,6.7687,6.7687,6.7687,6.7687,6.7687,6.7687,6.7687,6.7687,6.7687,6.7687,6.7687,6.7687,6.7687,6.7687,6.7687,6.7687,6.7687,6.7687,6.7687,6.7687,6.7687,6.7687,6.7687,6.7687,6.7687,6.7687,6.7687,6.7687,6.7687,6.7687,6.7687,6.7687,6.7687,6.7687,6.7687,6.7687,6.7794,6.7982,6.8033,6.821,6.8642,6.878,6.8944,6.9426,6.9548,6.9777,7.0276,7.0359,7.0455,7.0714,7.0316,6.9988,6.9896,6.9589,6.9395,6.9424,6.9467,6.9522,6.959,6.959,6.959,6.959,6.959,6.959,6.959,6.8783,6.8171,6.7798,6.778,6.758,6.7288,6.723,6.7243,6.728,6.7725,6.7874,6.7911,6.8333,6.8481,6.8481,6.8481,6.8481,6.8481,7.2496,7.2496,7.2496,7.2496,7.2496,7.2496,7.2496,7.2496,7.2496,7.2496,7.2496,7.2459,7.2312,7.0844,6.9302,6.7834,6.7687,6.7687,6.7687,6.7687,6.7687,6.7687,6.7687,6.7687,6.7687,6.7687,6.7687,6.7687,6.7687,6.7687,6.7687,6.7687,6.7687,6.7687,6.7687,6.7687,6.7687,6.7687,6.7687,6.7687,6.7687,6.7687,6.7687,6.7687,6.7687,6.7687,6.7687,6.7687,6.7687,6.7687,6.7687,6.7687,6.7687,6.7687,6.7687,6.7687,6.7687,6.7687,6.7687,6.7687,6.7687,6.7687,6.7687,6.7687,6.7687,6.7687,6.7687,6.7687,6.7767,6.7941,6.8321,6.8467,6.8665,6.9134,6.9265,6.9488,6.9963,7.0085,7.0288,7.0758,7.0801,7.0801,7.0787,7.0743,7.0699,7.0723,7.0699,7.0743,7.0787,7.0801,7.0843,7.0898,7.0898,7.0898,7.0898,7.0898,7.0898,7.0898,6.9475,6.8632,6.8241,6.8501,6.8449,6.8114,6.8385,6.8481,6.8481,6.8481,6.8481,6.8481,6.8481,6.8481,6.8481,6.8481,6.8481,6.8481,7.2496,7.2496,7.2496,7.2496,7.2496,7.2496,7.2496,7.2496,7.2496,7.2496,7.2496,7.2239,7.1541,7.0036,6.8678,6.776,6.7687,6.7687,6.7687,6.7687,6.7687,6.7687,6.7687,6.7687,6.7687,6.7687,6.7687,6.7687,6.7687,6.7687,6.7687,6.7687,6.7687,6.7687,6.7687,6.7687,6.7687,6.7687,6.7687,6.7687,6.7687,6.7687,6.7687,6.7687,6.7687,6.7687,6.7687,6.7687,6.7687,6.7687,6.7687,6.7687,6.7687,6.7687,6.7687,6.7687,6.7687,6.7687,6.7687,6.7687,6.7687,6.7687,6.7687,6.7687,6.7687,6.7687,6.7687,6.7687,6.8007,6.8321,6.8394,6.8711,6.9155,6.9623,6.9778,6.9981,7.0419,7.0609,7.0729,7.0787,7.0843,7.0857,7.0801,7.0843,7.0815,7.0723,7.0801,7.0843,7.0801,7.0857,7.0885,7.0898,7.0898,7.0898,7.0898,7.0898,7.0898,7.0898,7.0667,7.0359,6.996,6.9659,6.9317,6.8919,6.8646,6.8481,6.8481,6.8481,6.8481,6.8481,6.8481,6.8481,6.8481,6.8481,6.8481,6.8481,7.2496,7.2496,7.2496,7.2496,7.2496,7.2496,7.2496,7.2496,7.2496,7.2496,7.2496,7.2202,7.1366,6.9853,6.8568,6.776,6.7687,6.7687,6.7687,6.7687,6.7687,6.7687,6.7687,6.7687,6.7687,6.7687,6.7687,6.7687,6.7687,6.7687,6.7687,6.7687,6.7687,6.7687,6.7687,6.7687,6.7687,6.7687,6.7687,6.7687,6.7687,6.7687,6.7687,6.7687,6.7687,6.7687,6.7687,6.7687,6.7687,6.7687,6.7687,6.7687,6.7687,6.7687,6.7687,6.7687,6.7687,6.7687,6.7687,6.7687,6.7687,6.7687,6.7687,6.7687,6.7687,6.7687,6.7757,6.8033,6.8247,6.8586,6.9091,6.9344,6.9643,7.0073,7.0213,7.0369,7.0554,7.0723,7.0801,7.0843,7.0885,7.0885,7.0857,7.0885,7.0871,7.0815,7.0857,7.0885,7.0857,7.0885,7.0898,7.0898,7.0898,7.0898,7.0898,7.0898,7.0898,7.0898,7.0898,7.0705,7.0304,6.9887,6.9468,6.9069,6.8684,6.8481,6.8481,6.8481,6.8481,6.8481,6.8481,6.8481,6.8481,6.8481,6.8481,6.8481]}]]